[[{"header":{"parameterUnit":"m.s-1","parameterCategory":1,"la1":31.0,"la2":29.5877,"lo1":-88.7671,"lo2":-86.6584,"dy":0.0162,"dx":0.0185,"nx":115,"ny":88,"refTime":"2023-11-22T06:00:00:Z","depth":0,"parameterNumber":2,"parameterNumberName":"U-component_of_WINDS"},"data":[0.0,0.0,0.0,0.0,0.0,0.0,0.0,0.0,0.0,0.0,0.0,0.0,0.0,0.0,0.0,0.0,0.0,0.0,0.0,0.0,0.0,0.0,0.0,0.0,0.0,0.0,0.0,0.0,0.0,0.0,0.0,0.0,0.0,0.0,0.0,0.0,0.0,0.0,0.0,0.0,0.0,0.0,0.0,0.0,0.0,0.0,0.0,0.0,0.0,0.0,0.0,0.0,0.0,0.0,0.0,0.0,0.0,0.0,0.0,0.0,0.0,0.0,0.0,0.0,0.0,0.0,0.0,0.0,0.0,0.0,0.0,0.0,0.0,0.0,0.0,0.0,0.0,0.0,0.0,0.0,0.0,0.0,0.0,0.0,0.0,0.0,0.0,0.0,0.0,0.0,0.0,0.0,0.0,0.0,0.0,0.0,0.0,0.0,0.0,0.0,0.0,0.0,0.0,0.0,0.0,0.0,0.0,0.0,0.0,0.0,0.0,0.0,0.0,0.0,0.0,0.0,0.0,0.0,0.0,0.0,0.0,0.0,0.0,0.0,0.0,0.0,0.0,0.0,0.0,0.0,0.0,0.0,0.0,0.0,0.0,0.0,0.0,0.0,0.0,0.0,0.0,0.0,0.0,0.0,0.0,0.0,0.0,0.0,0.0,0.0,0.0,0.0,0.0,0.0,0.0,0.0,0.0,0.0,0.0,0.0,0.0,0.0,0.0,0.0,0.0,0.0,0.0,0.0,0.0,0.0,0.0,0.0,0.0,0.0,0.0,0.0,0.0,0.0,0.0,0.0,0.0,0.0,0.0,0.0,0.0,0.0,0.0,0.0,0.0,0.0,0.0,0.0,0.0,0.0,0.0,0.0,0.0,0.0,0.0,0.0,0.0,0.0,0.0,0.0,0.0,0.0,0.0,0.0,0.0,0.0,0.0,0.0,0.0,0.0,0.0,0.0,0.0,0.0,0.0,0.0,0.0,0.0,0.0,0.0,0.0,0.0,0.0,0.0,0.0,0.0,0.0,0.0,0.0,0.0,0.0,0.0,0.0,0.0,0.0,0.0,0.0,0.0,0.0,0.0,0.0,0.0,0.0,0.0,0.0,0.0,0.0,0.0,0.0,0.0,0.0,0.0,0.0,0.0,0.0,0.0,0.0,0.0,0.0,0.0,0.0,0.0,0.0,0.0,0.0,0.0,0.0,0.0,0.0,0.0,0.0,0.0,0.0,0.0,0.0,0.0,0.0,0.0,0.0,0.0,0.0,0.0,0.0,0.0,0.0,0.0,0.0,0.0,0.0,0.0,0.0,0.0,0.0,0.0,0.0,0.0,0.0,0.0,0.0,0.0,0.0,0.0,0.0,0.0,0.0,0.0,0.0,0.0,0.0,0.0,0.0,0.0,0.0,0.0,0.0,0.0,0.0,0.0,0.0,0.0,0.0,0.0,0.0,0.0,0.0,0.0,0.0,0.0,0.0,0.0,0.0,0.0,0.0,0.0,0.0,0.0,0.0,0.0,0.0,0.0,0.0,0.0,0.0,0.0,0.0,0.0,0.0,0.0,0.0,0.0,0.0,0.0,0.0,0.0,0.0,0.0,0.0,0.0,0.0,0.0,0.0,0.0,0.0,0.0,0.0,0.0,0.0,0.0,0.0,0.0,0.0,0.0,0.0,0.0,0.0,0.0,0.0,0.0,0.0,0.0,0.0,0.0,0.0,0.0,0.0,0.0,0.0,0.0,0.0,0.0,0.0,0.0,0.0,0.0,0.0,0.0,0.0,0.0,0.0,0.0,0.0,0.0,0.0,0.0,0.0,0.0,0.0,0.0,0.0,0.0,0.0,0.0,0.0,0.0,0.0,0.0,0.0,0.0,0.0,0.0,0.0,0.0,0.0,0.0,0.0,0.0,0.0,0.0,0.0,0.0,0.0,0.0,0.0,0.0,0.0,0.0,0.0,0.0,0.0,0.0,0.0,0.0,0.0,0.0,0.0,0.0,0.0,0.0,0.0,0.0,0.0,0.0,0.0,0.0,0.0,0.0,0.0,0.0,0.0,0.0,0.0,0.0,0.0,0.0,0.0,0.0,0.0,0.0,0.0,0.0,0.0,0.0,0.0,0.0,0.0,0.0,0.0,0.0,0.0,0.0,0.0,0.0,0.0,0.0,0.0,0.0,0.0,0.0,0.0,0.0,0.0,0.0,0.0,0.0,0.0,0.0,0.0,0.0,0.0,0.0,0.0,0.0,0.0,0.0,0.0,0.0,0.0,0.0,0.0,0.0,0.0,0.0,0.0,0.0,0.0,0.0,0.0,0.0,0.0,0.0,0.0,0.0,0.0,0.0,0.0,0.0,0.0,0.0,0.0,0.0,0.0,0.0,0.0,0.0,0.0,0.0,0.0,0.0,0.0,0.0,0.0,0.0,0.0,0.0,0.0,0.0,0.0,0.0,0.0,0.0,0.0,0.0,0.0,0.0,0.0,0.0,0.0,0.0,0.0,0.0,0.0,0.0,0.0,0.0,0.0,0.0,0.0,0.0,0.0,0.0,0.0,0.0,0.0,0.0,0.0,0.0,0.0,0.0,0.0,0.0,0.0,0.0,0.0,0.0,0.0,0.0,0.0,0.0,0.0,0.0,0.0,0.0,0.0,0.0,0.0,0.0,0.0,0.0,0.0,0.0,0.0,0.0,0.0,0.0,0.0,0.0,0.0,0.0,0.0,0.0,0.0,0.0,0.0,0.0,0.0,0.0,0.0,0.0,0.0,0.0,0.0,0.0,0.0,0.0,0.0,0.0,0.0,0.0,0.0,0.0,0.0,0.0,0.0,0.0,0.0,0.0,0.0,0.0,0.0,0.0,0.0,0.0,0.0,0.0,0.0,0.0,0.0,0.0,0.0,0.0,0.0,0.0,0.0,0.0,0.0,0.0,0.0,0.0,0.0,0.0,0.0,0.0,0.0,0.0,0.0,0.0,0.0,0.0,0.0,0.0,0.0,0.0,0.0,0.0,0.0,0.0,0.0,0.0,0.0,0.0,0.0,0.0,0.0,0.0,0.0,0.0,0.0,0.0,0.0,0.0,0.0,0.0,0.0,0.0,0.0,0.0,0.0,0.0,0.0,0.0,0.0,0.0,0.0,0.0,0.0,0.0,0.0,0.0,0.0,0.0,0.0,0.0,0.0,0.0,0.0,0.0,0.0,0.0,0.0,0.0,0.0,0.0,0.0,0.0,0.0,0.0,0.0,0.0,0.0,0.0,0.0,0.0,0.0,0.0,0.0,0.0,0.0,0.0,0.0,0.0,0.0,0.0,0.0,0.0,0.0,0.0,0.0,0.0,0.0,0.0,0.0,0.0,0.0,0.0,0.0,0.0,0.0,0.0,0.0,0.0,0.0,0.0,0.0,0.0,0.0,0.0,0.0,0.0,0.0,0.0,0.0,0.0,0.0,0.0,0.0,0.0,0.0,0.0,0.0,0.0,0.0,0.0,0.0,0.0,0.0,0.0,0.0,0.0,0.0,0.0,0.0,0.0,0.0,0.0,0.0,0.0,0.0,0.0,0.0,0.0,0.0,0.0,0.0,0.0,0.0,0.0,0.0,0.0,0.0,0.0,0.0,0.0,0.0,0.0,0.0,0.0,0.0,0.0,0.0,0.0,0.0,0.0,0.0,0.0,0.0,0.0,0.0,0.0,0.0,0.0,0.0,0.0,0.0,0.0,0.0,0.0,0.0,0.0,0.0,0.0,0.0,0.0,0.0,0.0,0.0,0.0,0.0,0.0,0.0,0.0,0.0,0.0,0.0,0.0,0.0,0.0,0.0,0.0,0.0,0.0,0.0,0.0,0.0,0.0,0.0,0.0,0.0,0.0,0.0,0.0,0.0,0.0,0.0,0.0,0.0,0.0,0.0,0.0,0.0,0.0,0.0,0.0,0.0,0.0,0.0,0.0,0.0,0.0,0.0,0.0,0.0,0.0,0.0,0.0,0.0,0.0,0.0,0.0,0.0,0.0,0.0,0.0,0.0,0.0,0.0,0.0,0.0,0.0,0.0,0.0,0.0,0.0,0.0,0.0,0.0,0.0,0.0,0.0,0.0,0.0,0.0,0.0,0.0,0.0,0.0,0.0,0.0,0.0,0.0,0.0,0.0,0.0,0.0,0.0,0.0,0.0,0.0,0.0,0.0,0.0,0.0,0.0,0.0,0.0,0.0,0.0,0.0,0.0,0.0,0.0,0.0,0.0,0.0,0.0,0.0,0.0,0.0,0.0,0.0,0.0,0.0,0.0,1.9011,0.0,0.0,0.0,0.0,0.0,0.0,0.0,0.0,0.0,0.0,0.0,0.0,0.0,0.0,0.0,0.0,0.0,0.0,0.0,0.0,0.0,0.0,0.0,0.0,0.0,0.0,0.0,0.0,0.0,0.0,0.0,0.0,0.0,0.0,0.0,0.0,0.0,0.0,0.0,0.0,0.0,0.0,0.0,0.0,0.0,0.0,0.0,0.0,0.0,0.0,0.0,0.0,0.0,0.0,0.0,0.0,0.0,0.0,0.0,0.0,0.0,0.0,0.0,0.0,0.0,0.0,0.0,0.0,0.0,0.0,0.0,0.0,0.0,0.0,0.0,0.0,0.0,0.0,0.0,0.0,0.0,0.0,0.0,0.0,0.0,0.0,0.0,0.0,0.0,0.0,0.0,0.0,0.0,0.0,0.0,0.0,0.0,0.0,0.0,0.0,0.0,0.0,0.0,0.0,0.0,0.0,0.0,0.0,0.0,0.0,2.0158,1.9735,2.0523,2.0562,1.9735,0.0,0.0,0.0,0.0,0.0,0.0,0.0,0.0,0.0,0.0,0.0,0.0,0.0,0.0,0.0,0.0,0.0,0.0,0.0,0.0,0.0,0.0,0.0,0.0,0.0,0.0,0.0,0.0,0.0,0.0,0.0,0.0,0.0,0.0,0.0,0.0,0.0,0.0,0.0,0.0,0.0,0.0,0.0,0.0,0.0,0.0,0.0,0.0,0.0,0.0,0.0,0.0,0.0,0.0,0.0,0.0,0.0,0.0,0.0,0.0,0.0,0.0,0.0,0.0,0.0,0.0,0.0,0.0,0.0,0.0,0.0,0.0,0.0,0.0,0.0,0.0,0.0,0.0,0.0,0.0,0.0,0.0,0.0,0.0,0.0,0.0,0.0,0.0,0.0,0.0,0.0,0.0,0.0,0.0,0.0,0.0,0.0,0.0,0.0,0.0,0.0,0.0,0.0,0.0,0.0,0.0,0.0,0.0,0.0,0.0,0.0,0.0,2.1955,2.1889,2.0908,0.0,0.0,0.0,0.0,0.0,0.0,0.0,0.0,0.0,0.0,0.0,0.0,0.0,0.0,0.0,0.0,0.0,0.0,0.0,0.0,0.0,0.0,0.0,0.0,0.0,0.0,0.0,0.0,0.0,0.0,0.0,0.0,0.0,0.0,0.0,0.0,0.0,0.0,0.0,0.0,0.0,0.0,0.0,0.0,0.0,0.0,0.0,0.0,0.0,0.0,0.0,0.0,0.0,0.0,0.0,0.0,0.0,0.0,0.0,0.0,0.0,0.0,0.0,0.0,0.0,0.0,0.0,0.0,0.0,0.0,0.0,0.0,0.0,0.0,0.0,0.0,0.0,0.0,0.0,0.0,0.0,0.0,0.0,0.0,0.0,0.0,0.0,0.0,0.0,0.0,0.0,0.0,0.0,0.0,0.0,0.0,0.0,0.0,0.0,0.0,0.0,0.0,0.0,0.0,0.0,0.0,0.0,0.0,0.0,0.0,2.073,2.3653,2.4561,0.0,2.2667,0.0,0.0,0.0,0.0,0.0,0.0,0.0,0.0,0.0,0.0,0.0,0.0,0.0,0.0,0.0,0.0,0.0,0.0,0.0,0.0,0.0,0.0,0.0,0.0,0.0,0.0,0.0,0.0,0.0,0.0,0.0,0.0,0.0,0.0,0.0,0.0,0.0,0.0,0.0,0.0,0.0,0.0,0.0,0.0,0.0,0.0,0.0,0.0,0.0,0.0,0.0,0.0,0.0,0.0,0.0,0.0,0.0,0.0,0.0,0.0,0.0,0.0,0.0,0.0,0.0,0.0,0.0,0.0,0.0,0.0,0.0,0.0,0.0,0.0,0.0,0.0,0.0,0.0,0.0,0.0,0.0,0.0,0.0,0.0,0.0,0.0,0.0,0.0,0.0,0.0,0.0,0.0,0.0,0.0,0.0,0.0,0.0,0.0,0.0,0.0,0.0,0.0,0.0,0.0,0.0,0.0,0.0,0.0,0.0,0.0,2.1702,2.4047,2.4417,2.3266,0.0,0.0,0.0,0.0,0.0,0.0,0.0,0.0,0.0,0.0,0.0,0.0,0.0,0.0,0.0,0.0,0.0,0.0,0.0,0.0,0.0,0.0,0.0,0.0,0.0,0.0,0.0,0.0,0.0,0.0,0.0,0.0,0.0,0.0,0.0,0.0,0.0,0.0,0.0,0.0,0.0,0.0,0.0,0.0,0.0,0.0,0.0,0.0,0.0,0.0,0.0,0.0,0.0,0.0,0.0,0.0,0.0,0.0,0.0,0.0,0.0,0.0,0.0,0.0,0.0,0.0,0.0,0.0,0.0,0.0,0.0,0.0,0.0,0.0,0.0,0.0,0.0,0.0,0.0,0.0,0.0,0.0,0.0,0.0,0.0,0.0,0.0,0.0,0.0,0.0,0.0,0.0,0.0,0.0,0.0,0.0,0.0,0.0,0.0,0.0,0.0,0.0,0.0,0.0,0.0,0.0,0.0,0.0,0.0,0.0,2.1917,2.3331,2.5292,2.4265,2.2537,2.026,0.0,0.0,0.0,0.0,0.0,0.0,0.0,0.0,0.0,0.0,0.0,0.0,0.0,0.0,0.0,0.0,0.0,0.0,0.0,0.0,0.0,0.0,0.0,0.0,0.0,0.0,0.0,0.0,0.0,0.0,0.0,0.0,0.0,0.0,0.0,0.0,0.0,0.0,0.0,0.0,0.0,0.0,0.0,0.0,0.0,0.0,0.0,0.0,0.0,0.0,0.0,0.0,0.0,0.0,0.0,0.0,0.0,0.0,0.0,0.0,0.0,0.0,0.0,0.0,0.0,0.0,0.0,0.0,0.0,0.0,0.0,0.0,0.0,0.0,0.0,0.0,0.0,0.0,0.0,0.0,0.0,0.0,0.0,0.0,0.0,0.0,0.0,0.0,0.0,0.0,0.0,0.0,0.0,0.0,0.0,0.0,0.0,0.0,0.0,0.0,0.0,0.0,0.0,0.0,0.0,0.0,0.0,0.0,2.5948,2.4807,2.5605,2.8546,2.4847,2.2974,0.0,0.0,0.0,0.0,0.0,0.0,0.0,0.0,0.0,0.0,0.0,0.0,0.0,0.0,0.0,0.0,0.0,0.0,0.0,0.0,0.0,0.0,0.0,0.0,0.0,0.0,0.0,0.0,0.0,0.0,0.0,0.0,0.0,0.0,0.0,0.0,0.0,0.0,0.0,0.0,0.0,0.0,0.0,0.0,0.0,0.0,0.0,0.0,0.0,0.0,0.0,0.0,0.0,0.0,0.0,0.0,0.0,0.0,0.0,0.0,0.0,0.0,0.0,0.0,0.0,0.0,0.0,0.0,0.0,0.0,0.0,0.0,0.0,0.0,0.0,0.0,0.0,0.0,0.0,0.0,0.0,0.0,0.0,0.0,0.0,0.0,0.0,0.0,0.0,0.0,0.0,0.0,0.0,0.0,0.0,0.0,0.0,0.0,0.0,0.0,0.0,0.0,0.0,0.0,0.0,0.0,0.0,0.0,0.0,2.2481,2.3581,2.5213,2.7296,2.4889,2.3609,0.0,0.0,0.0,0.0,0.0,0.0,0.0,0.0,0.0,0.0,0.0,0.0,0.0,0.0,0.0,0.0,0.0,0.0,0.0,0.0,0.0,0.0,0.0,0.0,0.0,0.0,0.0,0.0,0.0,0.0,0.0,0.0,0.0,0.0,0.0,0.0,0.0,0.0,0.0,0.0,0.0,0.0,0.0,0.0,0.0,0.0,0.0,0.0,0.0,0.0,0.0,0.0,0.0,0.0,0.0,0.0,0.0,0.0,0.0,0.0,0.0,0.0,0.0,0.0,0.0,0.0,0.0,0.0,0.0,0.0,0.0,0.0,0.0,0.0,0.0,0.0,0.0,0.0,0.0,0.0,0.0,0.0,0.0,0.0,0.0,0.0,0.0,0.0,0.0,0.0,0.0,0.0,0.0,0.0,0.0,0.0,0.0,0.0,0.0,0.0,0.0,0.0,0.0,0.0,0.0,0.0,0.0,0.0,0.0,2.2681,0.0,2.6728,2.6921,2.5303,2.384,0.0,0.0,0.0,0.0,0.0,0.0,0.0,0.0,0.0,0.0,0.0,0.0,0.0,0.0,0.0,0.0,0.0,0.0,0.0,0.0,0.0,0.0,0.0,0.0,0.0,0.0,0.0,0.0,0.0,0.0,0.0,0.0,0.0,0.0,0.0,0.0,0.0,0.0,0.0,0.0,0.0,0.0,0.0,0.0,0.0,0.0,0.0,0.0,0.0,0.0,0.0,0.0,0.0,0.0,0.0,0.0,0.0,0.0,0.0,0.0,0.0,0.0,0.0,0.0,0.0,0.0,0.0,0.0,0.0,0.0,0.0,0.0,0.0,0.0,0.0,0.0,0.0,0.0,0.0,0.0,0.0,0.0,0.0,0.0,0.0,0.0,0.0,0.0,0.0,0.0,0.0,0.0,0.0,0.0,0.0,0.0,0.0,0.0,0.0,0.0,0.0,0.0,0.0,0.0,0.0,0.0,0.0,0.0,2.191,2.7499,3.0055,3.0055,2.7981,2.6072,2.361,0.0,0.0,0.0,0.0,0.0,0.0,0.0,0.0,0.0,0.0,0.0,0.0,0.0,0.0,0.0,0.0,0.0,0.0,0.0,0.0,0.0,0.0,0.0,0.0,0.0,0.0,0.0,0.0,0.0,0.0,0.0,0.0,0.0,0.0,0.0,0.0,0.0,0.0,0.0,0.0,0.0,0.0,0.0,0.0,0.0,0.0,0.0,0.0,0.0,0.0,0.0,0.0,0.0,0.0,0.0,0.0,0.0,0.0,0.0,0.0,0.0,0.0,0.0,0.0,0.0,0.0,0.0,0.0,0.0,0.0,0.0,0.0,0.0,0.0,0.0,0.0,0.0,0.0,0.0,0.0,0.0,0.0,0.0,0.0,0.0,0.0,0.0,0.0,0.0,0.0,0.0,0.0,0.0,0.0,0.0,0.0,0.0,0.0,0.0,0.0,0.0,0.0,0.0,0.0,0.0,0.0,0.0,0.0,0.0,2.3529,2.6002,2.7862,2.8747,2.5468,2.4201,0.0,0.0,0.0,0.0,0.0,0.0,0.0,0.0,0.0,0.0,0.0,0.0,0.0,0.0,0.0,0.0,0.0,0.0,0.0,0.0,0.0,0.0,0.0,0.0,0.0,0.0,0.0,0.0,0.0,0.0,0.0,0.0,0.0,0.0,0.0,0.0,0.0,0.0,0.0,0.0,0.0,0.0,0.0,0.0,0.0,0.0,0.0,0.0,0.0,0.0,0.0,0.0,0.0,0.0,0.0,0.0,0.0,0.0,0.0,0.0,0.0,0.0,0.0,0.0,0.0,0.0,0.0,0.0,0.0,0.0,0.0,0.0,0.0,0.0,0.0,0.0,0.0,0.0,0.0,0.0,0.0,0.0,0.0,0.0,0.0,0.0,0.0,0.0,0.0,0.0,0.0,0.0,0.0,0.0,0.0,0.0,0.0,0.0,0.0,0.0,0.0,0.0,0.0,0.0,0.0,0.0,0.0,0.0,0.0,2.4152,2.7431,2.962,3.0341,2.7097,2.5524,2.5888,0.0,0.0,0.0,0.0,0.0,0.0,0.0,0.0,0.0,0.0,0.0,0.0,0.0,0.0,0.0,0.0,0.0,0.0,0.0,0.0,0.0,0.0,0.0,0.0,0.0,0.0,0.0,0.0,0.0,0.0,0.0,0.0,0.0,0.0,0.0,0.0,0.0,0.0,0.0,0.0,0.0,0.0,0.0,0.0,0.0,0.0,0.0,0.0,0.0,0.0,0.0,0.0,0.0,0.0,0.0,0.0,0.0,0.0,0.0,0.0,0.0,0.0,0.0,0.0,0.0,0.0,0.0,0.0,0.0,0.0,0.0,0.0,0.0,0.0,0.0,0.0,0.0,0.0,0.0,0.0,0.0,0.0,0.0,0.0,0.0,0.0,0.0,0.0,0.0,0.0,0.0,0.0,0.0,0.0,0.0,0.0,0.0,0.0,0.0,0.0,0.0,0.0,0.0,0.0,0.0,0.0,0.0,0.0,2.8143,3.3213,3.4619,3.2201,3.0263,2.7365,0.0,0.0,0.0,0.0,0.0,0.0,0.0,0.0,0.0,0.0,0.0,0.0,0.0,0.0,0.0,0.0,0.0,0.0,0.0,0.0,0.0,0.0,0.0,0.0,0.0,0.0,0.0,0.0,0.0,0.0,0.0,0.0,0.0,0.0,0.0,0.0,0.0,0.0,0.0,0.0,0.0,0.0,0.0,0.0,0.0,0.0,0.0,0.0,0.0,0.0,0.0,0.0,0.0,0.0,0.0,0.0,0.0,0.0,0.0,0.0,0.0,0.0,0.0,0.0,0.0,0.0,0.0,0.0,0.0,0.0,0.0,0.0,0.0,0.0,0.0,0.0,0.0,0.0,0.0,0.0,0.0,0.0,0.0,0.0,0.0,0.0,0.0,0.0,0.0,0.0,0.0,0.0,0.0,0.0,0.0,0.0,0.0,0.0,0.0,0.0,0.0,0.0,0.0,0.0,0.0,0.0,0.0,0.0,0.0,3.0108,3.4491,3.5899,3.3927,3.0361,2.7897,0.0,0.0,0.0,0.0,0.0,0.0,0.0,0.0,0.0,0.0,0.0,0.0,0.0,0.0,0.0,0.0,0.0,0.0,0.0,0.0,0.0,0.0,0.0,0.0,0.0,0.0,0.0,0.0,0.0,0.0,0.0,0.0,0.0,0.0,0.0,0.0,0.0,0.0,0.0,0.0,0.0,0.0,0.0,0.0,0.0,0.0,0.0,0.0,0.0,0.0,0.0,0.0,0.0,0.0,0.0,0.0,0.0,0.0,0.0,0.0,0.0,0.0,0.0,0.0,0.0,0.0,0.0,0.0,0.0,0.0,0.0,0.0,0.0,0.0,0.0,0.0,0.0,0.0,0.0,0.0,0.0,0.0,0.0,0.0,0.0,0.0,0.0,0.0,0.0,0.0,0.0,0.0,0.0,0.0,0.0,0.0,0.0,0.0,0.0,0.0,0.0,0.0,0.0,0.0,0.0,0.0,0.0,0.0,2.8079,3.0751,3.5351,3.7304,3.6308,3.2783,2.9952,0.0,0.0,0.0,0.0,0.0,0.0,0.0,0.0,0.0,0.0,0.0,0.0,0.0,0.0,0.0,0.0,0.0,0.0,0.0,0.0,0.0,0.0,0.0,0.0,0.0,0.0,0.0,0.0,0.0,0.0,0.0,0.0,0.0,0.0,0.0,0.0,0.0,0.0,0.0,0.0,0.0,0.0,0.0,0.0,0.0,0.0,0.0,0.0,0.0,0.0,0.0,0.0,0.0,0.0,0.0,0.0,0.0,0.0,0.0,0.0,0.0,0.0,0.0,0.0,0.0,0.0,0.0,0.0,0.0,0.0,0.0,0.0,0.0,0.0,0.0,0.0,0.0,0.0,0.0,0.0,0.0,0.0,0.0,0.0,0.0,0.0,0.0,0.0,0.0,0.0,0.0,0.0,0.0,0.0,0.0,0.0,0.0,0.0,0.0,0.0,0.0,0.0,0.0,0.0,0.0,0.0,0.0,0.0,2.8325,3.0984,3.5873,3.8551,3.8632,3.5995,3.2524,0.0,0.0,0.0,0.0,0.0,0.0,0.0,0.0,0.0,0.0,0.0,0.0,0.0,0.0,0.0,0.0,0.0,0.0,0.0,0.0,0.0,0.0,0.0,0.0,0.0,0.0,0.0,0.0,0.0,0.0,0.0,0.0,0.0,0.0,0.0,0.0,0.0,0.0,0.0,0.0,0.0,0.0,0.0,0.0,0.0,0.0,0.0,0.0,0.0,0.0,0.0,0.0,0.0,0.0,0.0,0.0,0.0,0.0,0.0,0.0,0.0,0.0,0.0,0.0,0.0,0.0,0.0,0.0,0.0,0.0,0.0,0.0,0.0,0.0,0.0,0.0,0.0,0.0,0.0,0.0,0.0,0.0,0.0,0.0,0.0,0.0,0.0,0.0,0.0,0.0,0.0,0.0,0.0,0.0,0.0,0.0,0.0,0.0,0.0,0.0,0.0,0.0,0.0,0.0,0.0,0.0,0.0,0.0,2.9466,3.2767,3.595,3.8199,3.9488,3.5586,3.204,0.0,0.0,0.0,0.0,0.0,0.0,0.0,0.0,0.0,0.0,0.0,0.0,0.0,0.0,0.0,0.0,0.0,0.0,0.0,0.0,0.0,0.0,0.0,0.0,0.0,0.0,0.0,0.0,0.0,0.0,0.0,0.0,0.0,0.0,0.0,0.0,0.0,0.0,0.0,0.0,0.0,0.0,0.0,0.0,0.0,0.0,0.0,0.0,2.5215,0.0,0.0,0.0,0.0,0.0,0.0,0.0,0.0,0.0,0.0,0.0,0.0,0.0,0.0,0.0,0.0,0.0,0.0,0.0,0.0,0.0,0.0,0.0,0.0,0.0,0.0,0.0,0.0,0.0,0.0,0.0,0.0,0.0,0.0,0.0,0.0,0.0,0.0,0.0,0.0,0.0,0.0,0.0,0.0,0.0,0.0,0.0,0.0,0.0,0.0,0.0,0.0,0.0,0.0,0.0,0.0,0.0,0.0,0.0,2.8642,3.2104,3.513,3.7103,3.7819,3.522,3.2539,0.0,0.0,0.0,0.0,0.0,0.0,0.0,0.0,0.0,0.0,0.0,0.0,0.0,0.0,0.0,0.0,0.0,0.0,0.0,0.0,0.0,0.0,0.0,0.0,0.0,0.0,0.0,0.0,0.0,0.0,0.0,0.0,0.0,0.0,0.0,0.0,0.0,0.0,0.0,0.0,0.0,0.0,0.0,0.0,0.0,0.0,0.0,0.0,0.0,0.0,0.0,0.0,0.0,0.0,0.0,0.0,0.0,0.0,0.0,0.0,0.0,0.0,0.0,0.0,0.0,0.0,0.0,0.0,0.0,0.0,0.0,0.0,0.0,0.0,0.0,0.0,0.0,0.0,0.0,0.0,0.0,0.0,0.0,0.0,0.0,0.0,0.0,0.0,0.0,0.0,0.0,0.0,0.0,0.0,0.0,0.0,0.0,0.0,0.0,0.0,0.0,0.0,0.0,0.0,0.0,0.0,0.0,2.4913,2.7419,3.1112,3.4074,3.5711,3.5869,3.4484,3.2686,3.0465,0.0,0.0,0.0,0.0,0.0,0.0,0.0,0.0,0.0,0.0,0.0,0.0,0.0,0.0,0.0,0.0,0.0,0.0,0.0,0.0,0.0,0.0,0.0,0.0,0.0,0.0,0.0,0.0,0.0,0.0,0.0,0.0,0.0,0.0,0.0,0.0,0.0,0.0,2.3807,2.5906,0.0,0.0,0.0,0.0,0.0,0.0,0.0,0.0,2.6137,0.0,0.0,0.0,0.0,0.0,0.0,0.0,0.0,0.0,0.0,0.0,0.0,0.0,0.0,0.0,0.0,0.0,0.0,0.0,0.0,0.0,0.0,0.0,0.0,0.0,0.0,0.0,0.0,0.0,0.0,0.0,0.0,0.0,0.0,0.0,0.0,0.0,0.0,0.0,0.0,0.0,0.0,0.0,0.0,0.0,0.0,0.0,0.0,0.0,0.0,0.0,0.0,0.0,0.0,0.0,0.0,2.6146,2.5821,2.8007,3.2823,3.3519,3.4505,3.5732,3.2285,3.0077,2.9443,0.0,0.0,0.0,0.0,0.0,0.0,0.0,0.0,0.0,0.0,0.0,0.0,0.0,0.0,0.0,0.0,0.0,0.0,0.0,0.0,0.0,0.0,0.0,0.0,0.0,0.0,0.0,0.0,0.0,0.0,0.0,0.0,0.0,0.0,0.0,0.0,0.0,0.0,0.0,2.9641,3.0018,0.0,0.0,0.0,0.0,0.0,0.0,0.0,0.0,2.639,0.0,0.0,0.0,0.0,0.0,0.0,0.0,0.0,0.0,0.0,0.0,0.0,0.0,0.0,0.0,0.0,0.0,0.0,0.0,0.0,0.0,0.0,0.0,0.0,0.0,0.0,0.0,0.0,0.0,0.0,0.0,0.0,0.0,0.0,0.0,0.0,0.0,0.0,0.0,0.0,0.0,0.0,0.0,0.0,0.0,0.0,0.0,0.0,0.0,0.0,0.0,0.0,0.0,0.0,0.0,2.5341,2.6473,2.8828,3.258,3.2729,3.3298,3.4408,3.082,2.8546,0.0,0.0,0.0,0.0,0.0,0.0,0.0,0.0,0.0,0.0,0.0,0.0,0.0,0.0,0.0,0.0,0.0,0.0,0.0,0.0,0.0,0.0,0.0,0.0,0.0,0.0,0.0,0.0,0.0,0.0,0.0,0.0,0.0,0.0,0.0,0.0,0.0,0.0,0.0,0.0,3.1243,3.1744,3.3199,0.0,0.0,0.0,0.0,0.0,0.0,2.7843,2.7166,0.0,0.0,0.0,0.0,0.0,0.0,0.0,0.0,0.0,0.0,0.0,0.0,0.0,0.0,0.0,0.0,0.0,0.0,0.0,0.0,0.0,0.0,0.0,0.0,0.0,0.0,0.0,0.0,0.0,0.0,0.0,0.0,0.0,0.0,0.0,0.0,0.0,0.0,0.0,0.0,0.0,0.0,0.0,0.0,0.0,0.0,0.0,0.0,0.0,0.0,0.0,0.0,0.0,0.0,0.0,2.4004,2.662,2.9219,3.1721,3.1841,3.2229,3.2961,2.9398,2.711,0.0,0.0,0.0,0.0,0.0,0.0,0.0,0.0,0.0,0.0,0.0,0.0,0.0,0.0,0.0,0.0,0.0,0.0,0.0,0.0,0.0,0.0,0.0,0.0,0.0,0.0,0.0,0.0,0.0,0.0,0.0,0.0,0.0,0.0,0.0,0.0,0.0,0.0,0.0,0.0,0.0,3.3529,3.5144,3.3384,0.0,0.0,0.0,0.0,2.8694,2.9024,0.0,0.0,0.0,0.0,0.0,0.0,0.0,0.0,0.0,0.0,0.0,0.0,0.0,0.0,0.0,0.0,0.0,0.0,0.0,0.0,0.0,0.0,0.0,0.0,0.0,0.0,0.0,0.0,0.0,0.0,0.0,0.0,0.0,0.0,0.0,0.0,0.0,0.0,0.0,0.0,0.0,0.0,0.0,0.0,0.0,0.0,0.0,0.0,0.0,0.0,0.0,0.0,0.0,0.0,0.0,0.0,2.3143,2.579,2.8398,3.088,3.0983,3.1352,3.2148,2.7386,2.5019,0.0,0.0,0.0,0.0,0.0,0.0,0.0,0.0,0.0,0.0,0.0,0.0,0.0,0.0,0.0,0.0,0.0,0.0,0.0,0.0,0.0,0.0,0.0,0.0,0.0,0.0,0.0,0.0,0.0,0.0,0.0,0.0,0.0,0.0,0.0,0.0,0.0,0.0,0.0,0.0,0.0,3.5735,3.3945,3.2669,3.1771,0.0,0.0,3.1553,3.4309,3.4257,0.0,0.0,0.0,0.0,0.0,0.0,0.0,0.0,0.0,0.0,0.0,0.0,0.0,0.0,0.0,0.0,0.0,0.0,0.0,0.0,0.0,0.0,0.0,0.0,0.0,0.0,0.0,0.0,0.0,0.0,0.0,0.0,0.0,0.0,0.0,0.0,0.0,0.0,0.0,0.0,0.0,0.0,0.0,0.0,0.0,0.0,0.0,0.0,0.0,0.0,0.0,0.0,0.0,0.0,0.0,2.1932,2.3088,2.7087,2.9762,3.0841,3.0837,3.1222,3.2065,2.659,2.3977,0.0,0.0,0.0,0.0,0.0,0.0,0.0,0.0,0.0,0.0,0.0,0.0,0.0,0.0,0.0,0.0,0.0,0.0,0.0,0.0,0.0,0.0,0.0,0.0,0.0,0.0,0.0,0.0,0.0,0.0,0.0,0.0,0.0,0.0,0.0,0.0,0.0,0.0,0.0,0.0,0.0,0.0,3.5545,3.4752,0.0,0.0,0.0,3.305,3.3568,0.0,0.0,0.0,0.0,0.0,0.0,0.0,0.0,0.0,0.0,0.0,0.0,0.0,0.0,0.0,0.0,0.0,0.0,0.0,0.0,0.0,0.0,0.0,0.0,0.0,0.0,0.0,0.0,0.0,0.0,0.0,0.0,0.0,0.0,0.0,0.0,0.0,0.0,0.0,0.0,0.0,0.0,0.0,0.0,0.0,0.0,0.0,0.0,0.0,0.0,0.0,0.0,0.0,0.0,0.0,0.0,0.0,2.3107,2.7793,3.0458,3.0849,3.0817,3.0994,3.1339,2.6424,0.0,0.0,0.0,0.0,0.0,0.0,0.0,0.0,0.0,0.0,0.0,0.0,0.0,0.0,0.0,0.0,0.0,0.0,0.0,0.0,0.0,0.0,0.0,0.0,0.0,0.0,0.0,1.9048,0.0,0.0,0.0,0.0,0.0,0.0,0.0,0.0,0.0,0.0,0.0,0.0,0.0,0.0,3.5318,3.6413,3.6372,3.637,0.0,0.0,3.4633,3.4051,3.5737,3.532,0.0,0.0,0.0,0.0,0.0,0.0,0.0,0.0,0.0,0.0,0.0,0.0,0.0,0.0,0.0,0.0,0.0,0.0,0.0,0.0,0.0,0.0,0.0,0.0,0.0,0.0,0.0,0.0,0.0,0.0,0.0,0.0,0.0,0.0,0.0,0.0,0.0,0.0,0.0,0.0,0.0,0.0,0.0,0.0,0.0,0.0,0.0,0.0,0.0,0.0,0.0,0.0,0.0,0.0,0.0,2.3146,2.664,2.9259,3.075,3.0784,3.0438,2.9652,2.6933,2.4316,0.0,0.0,0.0,0.0,0.0,0.0,0.0,0.0,0.0,0.0,0.0,0.0,0.0,0.0,0.0,0.0,0.0,0.0,0.0,0.0,0.0,0.0,0.0,0.0,0.0,0.0,0.0,0.0,0.0,0.0,0.0,0.0,0.0,0.0,0.0,0.0,0.0,0.0,0.0,0.0,0.0,3.5572,3.4958,3.6147,3.7667,0.0,0.0,3.661,3.8897,4.0058,3.8721,3.2792,0.0,0.0,0.0,0.0,0.0,0.0,0.0,0.0,0.0,0.0,0.0,0.0,0.0,0.0,0.0,0.0,0.0,0.0,0.0,0.0,0.0,0.0,0.0,0.0,0.0,0.0,0.0,0.0,0.0,0.0,0.0,0.0,0.0,0.0,0.0,0.0,0.0,0.0,0.0,0.0,0.0,0.0,0.0,0.0,0.0,0.0,0.0,0.0,0.0,0.0,0.0,0.0,0.0,2.137,2.3047,2.6476,2.9065,3.065,3.0736,3.058,3.0255,2.722,2.4623,0.0,0.0,0.0,0.0,0.0,0.0,0.0,0.0,0.0,0.0,0.0,0.0,0.0,0.0,0.0,0.0,0.0,0.0,0.0,0.0,0.0,0.0,0.0,0.0,0.0,0.0,0.0,0.0,2.1575,2.1619,2.0526,0.0,0.0,0.0,0.0,0.0,0.0,0.0,0.0,0.0,0.0,3.5574,3.6855,3.7597,0.0,0.0,3.8495,3.7654,3.8114,3.8066,3.6265,3.1302,2.792,0.0,0.0,0.0,0.0,0.0,0.0,0.0,0.0,0.0,0.0,0.0,0.0,0.0,0.0,0.0,0.0,0.0,0.0,0.0,0.0,0.0,0.0,0.0,0.0,0.0,0.0,0.0,0.0,0.0,0.0,0.0,0.0,0.0,0.0,0.0,0.0,0.0,0.0,0.0,0.0,0.0,0.0,0.0,0.0,0.0,0.0,0.0,0.0,0.0,0.0,0.0,0.0,2.074,2.2617,2.5785,2.8249,2.9881,3.0166,3.0063,2.9524,2.7218,2.5026,0.0,0.0,0.0,0.0,0.0,0.0,0.0,0.0,0.0,0.0,0.0,0.0,0.0,0.0,0.0,0.0,0.0,0.0,0.0,0.0,0.0,0.0,0.0,0.0,0.0,0.0,0.0,0.0,2.1881,2.1682,2.0164,0.0,0.0,0.0,0.0,0.0,0.0,0.0,0.0,0.0,0.0,3.595,3.7539,3.7949,3.8262,3.8613,3.7909,3.7242,3.6901,3.6053,3.4375,3.1184,0.0,0.0,0.0,0.0,0.0,0.0,0.0,0.0,0.0,0.0,0.0,0.0,0.0,0.0,0.0,0.0,0.0,0.0,0.0,0.0,0.0,0.0,0.0,0.0,0.0,0.0,0.0,1.5095,0.0,0.0,1.4911,0.0,0.0,0.0,0.0,0.0,0.0,0.0,0.0,0.0,0.0,0.0,0.0,0.0,0.0,0.0,0.0,0.0,0.0,0.0,0.0,0.0,0.0,1.9336,2.1815,2.4402,2.65,2.8148,2.898,2.867,2.7136,2.6856,2.559,2.3069,0.0,0.0,0.0,0.0,0.0,0.0,0.0,0.0,0.0,0.0,0.0,0.0,0.0,0.0,0.0,0.0,0.0,0.0,0.0,0.0,0.0,0.0,0.0,0.0,0.0,0.0,1.821,1.9444,2.0156,0.0,0.0,0.0,0.0,0.0,0.0,0.0,0.0,0.0,0.0,3.3895,3.6834,3.617,3.6716,3.6952,3.6269,3.5424,3.5115,3.5923,3.5032,3.4041,0.0,0.0,0.0,0.0,0.0,0.0,0.0,0.0,0.0,0.0,0.0,0.0,0.0,0.0,0.0,0.0,0.0,0.0,0.0,0.0,0.0,0.0,0.0,0.0,0.0,0.0,0.0,1.757,1.7569,0.0,0.0,0.0,0.0,0.0,0.0,0.0,0.0,0.0,0.0,0.0,2.0727,2.1041,0.0,0.0,0.0,0.0,0.0,0.0,0.0,0.0,0.0,0.0,0.0,0.0,1.9772,2.1746,2.4196,2.6273,2.7911,2.824,2.8133,2.7589,2.7063,2.5602,2.3079,0.0,0.0,0.0,0.0,0.0,0.0,0.0,0.0,0.0,0.0,0.0,0.0,0.0,0.0,0.0,0.0,0.0,0.0,0.0,0.0,0.0,0.0,0.0,0.0,0.0,2.1745,0.0,0.0,0.0,0.0,0.0,0.0,0.0,0.0,0.0,0.0,0.0,2.9732,3.1792,3.3548,3.4739,3.5075,3.537,3.5859,0.0,0.0,0.0,0.0,0.0,0.0,0.0,0.0,0.0,0.0,0.0,0.0,0.0,0.0,3.2748,2.8178,2.707,2.6837,2.6767,0.0,0.0,0.0,0.0,0.0,0.0,0.0,0.0,0.0,0.0,0.0,0.0,0.0,0.0,1.976,0.0,1.9837,0.0,0.0,0.0,0.0,0.0,0.0,0.0,0.0,2.032,2.1367,2.2287,2.2603,2.2735,0.0,2.1403,1.9878,0.0,0.0,0.0,0.0,0.0,0.0,0.0,0.0,1.9881,2.1292,2.3983,2.5928,2.6988,2.7297,2.7316,2.7036,2.6575,2.555,2.3858,2.2119,2.0681,0.0,0.0,0.0,0.0,0.0,0.0,0.0,0.0,0.0,0.0,0.0,0.0,0.0,0.0,0.0,0.0,0.0,0.0,0.0,0.0,0.0,0.0,0.0,2.2553,0.0,0.0,0.0,0.0,0.0,0.0,0.0,0.0,0.0,2.7166,2.9292,3.1523,3.3549,3.4273,3.4417,3.388,0.0,0.0,0.0,0.0,0.0,0.0,0.0,3.2549,3.2563,3.2602,3.2821,3.3374,3.486,3.5698,3.4747,0.0,0.0,3.1241,3.02,2.9938,2.9894,2.9363,2.8922,2.8883,2.8625,2.8411,0.0,0.0,0.0,0.0,0.0,0.0,0.0,0.0,2.1981,2.1732,0.0,2.1991,0.0,0.0,0.0,0.0,0.0,1.9904,0.0,0.0,2.3004,2.3702,2.2491,2.321,2.3521,2.348,2.2801,2.2035,2.1205,1.8982,0.0,0.0,0.0,0.0,0.0,0.0,1.9633,2.0615,2.3744,2.5398,2.5447,2.615,2.6198,2.5464,2.5484,2.544,2.5245,2.3786,2.2916,2.2746,1.9589,0.0,0.0,0.0,0.0,0.0,0.0,0.0,0.0,0.0,0.0,0.0,0.0,0.0,0.0,0.0,0.0,0.0,0.0,0.0,0.0,2.118,0.0,0.0,0.0,0.0,0.0,0.0,0.0,0.0,0.0,0.0,2.8158,3.1099,3.3572,3.4361,0.0,0.0,0.0,0.0,3.4199,3.0342,3.1109,3.2272,3.2354,3.2936,3.3965,3.5564,0.0,0.0,3.6282,3.6055,3.5348,3.284,3.451,3.6208,3.6913,3.4808,3.3252,3.3174,3.188,3.0765,3.0591,3.0178,2.959,2.5057,0.0,0.0,0.0,0.0,2.2899,2.4128,2.6488,2.5428,2.485,2.4601,2.393,0.0,0.0,0.0,0.0,0.0,0.0,2.0957,2.241,2.3318,2.4357,2.5554,2.578,2.5892,2.5855,2.4545,2.378,2.3484,2.1758,1.9703,1.7377,0.0,0.0,0.0,0.0,2.0654,2.2216,2.4177,2.5192,2.5243,2.5482,2.5512,2.5322,2.5397,2.5421,2.5448,2.4958,2.4127,2.2991,2.1854,0.0,0.0,0.0,0.0,0.0,0.0,0.0,0.0,0.0,0.0,0.0,0.0,0.0,0.0,0.0,0.0,0.0,0.0,0.0,2.2212,2.301,2.2887,0.0,0.0,0.0,0.0,0.0,0.0,0.0,0.0,0.0,3.0552,3.1649,3.2404,0.0,0.0,3.1991,3.0451,3.1385,3.224,3.2276,3.32,0.0,3.5625,3.5446,3.5324,3.5837,3.6841,3.7416,3.6921,3.736,3.7536,3.6699,3.6757,3.6925,3.7047,3.6094,3.5151,3.5073,3.4691,3.4146,3.3614,3.3271,3.2885,2.8539,2.6375,2.5817,2.589,2.6321,2.5801,2.678,2.8669,2.7803,2.7091,2.6505,2.6084,2.4321,2.1568,2.0739,0.0,0.0,0.0,2.2185,2.3825,2.3844,2.4591,2.5894,2.5949,2.5949,2.5894,2.4964,2.45,2.4462,2.2936,2.1282,1.9523,0.0,0.0,1.8718,2.0333,2.1712,2.28,2.4364,2.5182,2.5212,2.5217,2.5217,2.528,2.5341,2.5367,2.5418,2.5393,2.498,2.4023,2.3168,2.1593,0.0,0.0,0.0,0.0,0.0,0.0,0.0,0.0,0.0,0.0,0.0,1.7244,1.6166,0.0,0.0,0.0,2.1736,2.2763,2.2498,2.3257,0.0,0.0,0.0,0.0,0.0,0.0,0.0,2.7379,2.8476,2.9691,3.1185,3.1675,3.231,3.3372,3.269,3.1675,3.0563,0.0,3.2771,3.2851,3.3866,3.5018,3.6072,3.6062,3.6108,3.683,3.7024,3.7015,3.6739,3.6883,3.6868,3.6513,3.6053,3.5683,3.5708,3.5252,3.5027,3.531,3.5109,3.473,3.4265,3.39,3.3506,3.1004,3.0369,2.7779,2.7396,2.8513,2.8549,2.8744,2.9053,2.9254,2.856,2.7404,2.8076,2.6551,2.3391,2.2048,0.0,2.2322,2.3171,2.3865,2.4464,2.45,2.45,2.4482,2.4482,2.45,2.4518,2.45,2.45,2.4425,2.3086,2.2303,2.2179,2.1587,2.0819,2.0056,2.1613,2.2536,2.2638,2.4232,2.5119,2.5212,2.5206,2.5203,2.5217,2.5273,2.5303,2.5299,2.5387,2.5448,2.5454,2.3831,2.289,2.2664,0.0,0.0,0.0,0.0,0.0,0.0,0.0,0.0,0.0,0.0,0.0,0.0,0.0,0.0,0.0,2.2383,0.0,2.2174,2.2709,0.0,0.0,0.0,2.4804,2.6505,2.7479,2.8654,3.0304,0.0,0.0,3.0602,3.1285,3.2711,3.5256,3.4722,3.3589,3.2109,3.3916,3.4764,3.2656,3.3767,3.4902,3.5253,3.5595,3.6325,3.7517,3.7417,3.6443,3.5772,3.513,3.4332,3.3746,3.341,3.3456,3.3417,3.3465,3.3516,3.4111,3.3829,3.3419,3.3166,3.2569,3.199,3.0683,3.0566,3.0099,3.0109,3.0434,3.0646,3.0578,3.0299,2.9791,2.9082,2.83,2.7602,2.6349,2.4782,2.3832,2.3617,2.3942,2.3944,2.4044,2.4192,2.4411,2.4375,2.421,2.4411,2.4465,2.4448,2.4482,2.4482,2.4411,2.4124,2.3341,2.2241,2.2036,2.1344,2.018,2.0437,2.1323,2.2812,2.3103,2.3877,2.5141,2.5206,2.5217,2.5201,2.5322,2.5378,2.5376,2.5437,2.5505,2.557,2.5033,2.3895,2.1987,1.9538,0.0,0.0,0.0,0.0,0.0,0.0,0.0,0.0,0.0,1.6221,1.4897,0.0,1.8862,0.0,2.0946,2.3723,2.5415,2.4573,0.0,0.0,2.3528,2.4827,2.6501,2.7523,2.8462,2.9485,2.9656,2.9913,3.0525,3.0734,3.1518,3.3374,3.3485,3.3204,3.2868,3.3852,3.4573,3.4172,3.5275,3.6543,3.6487,3.6202,3.5802,3.5548,3.4808,3.4147,3.3945,3.3758,3.3569,3.3371,3.3317,3.3336,3.3294,3.287,3.2233,3.1926,3.2584,3.2966,3.1719,3.1219,3.074,2.9484,2.9098,2.9741,2.9838,2.9653,3.059,3.0726,3.0231,2.9418,2.8771,2.8115,2.6851,2.5846,2.4958,2.4265,2.4039,2.4173,2.4039,2.3979,2.3979,2.421,2.4192,2.3939,2.4154,2.4266,2.4228,2.4266,2.4321,2.4394,2.4447,2.4031,2.3259,2.324,2.2518,2.1119,2.0383,2.0584,2.1621,2.2334,2.3485,2.5122,2.5198,2.5041,2.4725,2.4414,2.4094,2.3782,2.3417,2.3281,2.3348,2.3247,2.238,2.0593,1.8179,1.6176,0.0,0.0,0.0,0.0,0.0,0.0,0.0,0.0,0.0,0.0,0.0,2.0278,2.0499,2.3058,2.4814,2.5031,2.4895,2.4257,2.3004,2.4316,2.5819,2.7107,2.8035,2.8935,2.9776,2.9588,2.9531,2.9958,3.0292,3.081,3.1742,3.2531,3.3021,3.3045,3.3491,3.3852,3.4016,3.4781,3.5441,3.5558,3.5139,3.4608,3.408,3.3297,3.272,3.2688,3.2078,3.1625,3.1582,3.1295,3.1044,3.1064,3.1065,3.0644,3.0075,3.0726,3.1035,2.992,2.9652,2.9283,2.8105,2.7332,2.8287,2.8336,2.7818,2.9383,2.9796,2.9384,2.8743,2.8091,2.7402,2.6056,2.5148,2.4587,2.4028,2.3756,2.3795,2.3774,2.3753,2.3753,2.3941,2.3901,2.3649,2.386,2.3941,2.3955,2.3978,2.4059,2.4192,2.4338,2.4298,2.4068,2.4143,2.3453,2.1922,2.0747,2.0139,2.0165,2.187,2.3467,2.4837,2.4666,2.4263,2.3637,2.2894,2.2197,2.1565,2.082,2.0458,2.0585,2.0365,2.0085,1.9619,1.6387,1.5025,0.0,1.3241,0.0,0.0,0.0,0.0,0.0,0.0,0.0,0.0,2.1222,2.2747,2.5255,2.6169,2.577,2.3728,2.4817,2.5007,2.3552,2.52,2.687,2.7788,2.8473,2.9265,3.0318,2.9641,2.913,2.9158,2.9753,3.0113,3.0186,3.1149,3.1919,3.2242,3.267,3.3161,3.3184,3.3239,3.357,3.3448,3.3324,3.3169,3.2815,3.2263,3.1761,3.1416,3.0419,2.9505,2.9335,2.889,2.8364,2.8193,2.8902,2.9023,2.8278,2.873,2.8974,2.832,2.8127,2.8002,2.8104,2.7949,2.8464,2.8278,2.7753,2.8085,2.8285,2.8391,2.8385,2.7795,2.669,2.5322,2.4657,2.4545,2.3871,2.362,2.3714,2.3553,2.344,2.3417,2.3606,2.3584,2.3399,2.3566,2.3671,2.361,2.3862,2.3654,2.305,2.4007,2.354,2.1717,2.2299,2.1871,2.0408,0.0,0.0,0.0,2.1833,2.2834,2.3176,2.1922,2.1179,2.1105,2.0933,0.0,2.0728,2.0562,2.049,2.0477,1.9823,0.0,0.0,0.0,0.0,0.0,0.0,0.0,0.0,0.0,0.0,0.0,1.9077,1.918,2.0312,2.1162,2.2643,2.507,2.5531,2.6025,2.6853,2.6583,2.6265,2.5948,2.5697,2.6169,2.7634,2.7422,2.7692,2.9245,2.8676,2.8145,2.8155,2.8318,2.8394,2.8433,2.8662,2.8832,2.8948,3.1184,3.286,3.3093,3.2979,3.295,3.2439,3.229,3.173,3.0711,3.0706,3.038,2.9279,2.9311,2.9104,2.8541,2.8236,2.8098,2.8145,2.8349,2.8154,2.7295,2.7283,2.7358,2.7254,2.7218,2.6815,2.6776,0.0,2.7189,2.7138,0.0,2.6942,2.6875,2.6572,2.753,2.7152,2.5873,2.4796,2.4126,2.3795,2.3424,2.3277,2.3353,2.3206,2.3133,2.3126,2.3353,2.3307,2.3077,2.3265,2.341,2.3522,2.3674,2.3644,2.351,2.41,2.3797,2.2644,2.3055,2.2843,2.2107,2.207,2.1846,2.1389,2.2182,2.3064,2.3947,2.3201,2.2588,2.2229,2.1815,0.0,0.0,0.0,0.0,0.0,0.0,0.0,0.0,1.9498,0.0,2.036,1.933,1.9373,2.0926,2.111,2.1503,2.2304,2.2728,2.2574,2.1714,2.3577,2.5298,2.6459,2.6613,2.6804,2.7189,2.6871,2.6428,2.5986,2.5563,2.5707,2.6429,2.6285,2.6371,2.7065,2.694,2.667,2.667,2.7046,2.7267,2.7305,2.7631,2.7871,2.8005,2.9294,3.0552,3.1052,3.0905,3.0798,3.0774,3.0437,3.0021,2.9117,2.9197,2.9069,2.8288,2.8126,2.801,2.7563,2.7174,2.6889,2.6946,2.7254,2.7157,2.6041,2.5971,2.5893,2.537,2.5751,2.598,2.5811,2.5041,2.6068,2.6046,2.5355,2.6104,2.5915,2.5129,0.0,0.0,0.0,2.4234,2.3554,2.3012,2.2995,2.2977,2.2995,2.2919,2.2893,2.285,2.3084,2.3035,2.2816,2.295,2.3135,2.3364,2.3392,2.3602,2.3952,2.4155,2.4211,2.41,2.4229,2.4284,2.4303,2.4284,2.3819,2.2909,2.2656,2.3283,2.4763,2.4582,2.4102,2.345,2.274,2.2064,2.1414,2.0828,2.0511,2.0513,2.0428,2.0254,1.998,1.9824,1.9606,1.9316,1.9326,2.025,2.2221,2.2427,2.3338,2.5453,2.6197,2.5712,2.3721,2.6334,2.7943,2.7702,2.7817,2.7556,2.6697,2.6621,2.6313,2.5591,2.538,2.5322,2.538,2.537,2.5428,2.5388,2.5475,2.5389,2.5466,2.5976,2.639,2.6447,2.689,2.7448,2.7486,2.7813,2.8452,2.8992,2.891,2.8593,2.8977,2.8863,2.8249,2.8045,2.813,2.8087,2.7659,2.7233,2.6883,2.6708,2.6048,2.5757,2.5679,2.6209,2.6085,2.4627,2.4857,2.4911,2.3654,2.4217,2.4844,2.734,2.6772,2.7105,2.6494,2.5333,2.5832,2.5915,2.5584,2.4594,2.4188,2.4199,2.3424,2.3049,2.2995,2.2995,2.297,2.2919,2.2902,2.2825,2.2738,2.2781,2.2747,2.2712,2.2764,2.2756,2.2807,2.3056,2.2944,2.2725,2.3571,2.3766,2.3418,2.3934,2.4266,2.421,2.421,2.4208,2.4192,2.2975,2.2558,2.293,2.1755,2.1035,2.0936,2.088,2.0706,2.0584,2.0567,2.0511,2.0494,1.9842,2.039,2.24,2.1851,2.2375,2.4397,2.4534,2.4686,2.5007,2.4993,2.5142,2.5468,2.563,2.5812,2.626,2.7284,2.7614,2.6911,2.7402,2.7535,2.6736,2.6582,2.6486,2.6332,2.5726,2.5303,2.5313,2.5322,2.5322,2.5322,2.5313,2.5313,2.5341,2.5466,2.5563,2.5534,2.5832,2.5745,2.6024,2.6967,2.7865,2.8141,2.8151,2.8196,2.832,2.831,2.7807,2.7188,2.7649,2.757,2.6345,2.6533,2.6533,2.5951,2.5679,2.5582,2.5582,2.5679,2.5335,2.4413,2.4384,2.4121,2.3121,2.3249,2.3196,2.5978,2.5754,2.5971,2.5727,2.5114,2.4558,2.4277,2.4101,2.2909,2.2999,2.3927,2.3224,2.2876,2.2893,2.2944,2.2902,2.2842,2.2816,2.2764,2.2712,2.2712,2.2712,2.2712,2.2712,2.2574,2.2356,2.2447,2.2291,2.196,2.2424,2.2794,2.3069,2.3861,2.4247,2.4192,2.4191,2.4266,2.4391,2.3921,2.3764,2.3943,2.3368,2.306,2.306,2.3064,2.3052,2.3052,2.3126,2.3179,2.3225,2.2893,2.3263,2.4404,2.41,2.4394,2.55,2.5556,2.551,2.5425,2.5,2.4748,2.4724,2.4731,2.5106,2.5965,2.6342,2.6371,2.5996,2.6294,2.6351,2.5947,2.589,2.589,2.589,2.5514,2.5303,2.5313,2.5313,2.5313,2.5313,2.5313,2.5313,2.5313,2.5313,2.5313,2.5313,2.5303,2.5303,2.5313,2.5947,2.6679,2.7084,2.6912,2.6909,2.7307,2.7035,2.6642,2.6229,2.6509,2.6427,2.569,2.6028,2.599,2.5659,2.5265,2.5135,2.5446,2.5174,2.4572,2.3834,2.3597,2.3154,2.2142,2.1694,2.1679,2.4994,2.4895,2.5123,2.5124,2.4894,2.3592,2.3004,2.2913,2.1948,2.2287,2.3409,2.2989,2.2773,2.2816,2.2868,2.2842,2.279,2.2755,2.2694,2.2712,2.2712,2.2712,2.2712,2.2712,2.2513,2.2171,2.2048,2.1843,2.1598,2.1514,2.199,2.296,2.3621,2.4025,2.421,2.419,2.4209,2.4303,2.457,2.4818,2.5037,2.5203,2.5293,2.5313,2.5274,2.5313,2.5293,2.5365,2.5418,2.548,2.5537,2.5601,2.5668,2.5605,2.5547,2.549,2.5311,2.5057,2.4735,2.4177,2.379,2.3809,2.3955,2.4331,2.4947,2.5205,2.5311,2.537,2.536,2.5302,2.5322,2.5322,2.5313,2.5313,2.5313,2.5313,2.5303,2.5293,2.5253,2.5253,2.5233,2.5212,2.5222,2.5212,2.5222,2.5243,2.5283,2.5303,2.5303,2.5313,2.561,2.5938,2.5772,2.5754,2.634,2.6072,2.5714,2.5601,2.566,2.5697,2.5618,2.5621,2.5621,2.5523,2.4877,2.4663,2.5071,2.4585,2.3736,2.294,2.277,2.2343,2.0998,2.0667,2.0711,2.6441,2.5904,2.5851,2.555,2.4902,2.3795,2.3329,2.319,2.2465,2.2198,2.2383,2.2265,2.2473,2.2773,2.2799,2.2799,2.279,2.279,2.2764,2.2712,2.2712,2.2712,2.2712,2.2712,2.2677,2.2531,2.2115,2.1855,2.1763,2.1572,2.1953,2.2887,2.3088,2.3511,2.4099,2.419,2.419,2.421,2.4424,2.4632,2.485,2.513,2.5313,2.5313,2.5313,2.5313,2.5313,2.5365,2.5395,2.543,2.5473,2.5515,2.5521,2.5515,2.551,2.5459,2.4749,2.3953,2.3157,2.2966,2.2936,2.2956,2.3486,2.3841,2.4017,2.46,2.5043,2.5184,2.5163,2.519,2.5274,2.5303,2.5303,2.5313,2.5313,2.5313,2.5293,2.5182,2.5126,2.5126,2.5024,2.4942,2.4968,2.4962,2.5,2.5149,2.5252,2.5254,2.5168,2.5178,2.5187,2.538,2.5348,2.5398,2.5622,2.5644,2.5531,2.5559,2.5601,2.56,2.5599,2.5562,2.5582,2.5271,2.4663,2.4178,2.4139,2.3736,2.2862,2.226,2.2046,2.1891,2.0837,2.0507,2.0599,2.5513,2.5377,2.5392,2.4982,2.4277,2.3438,2.2872,2.2479,2.1903,2.1748,2.1969,2.2124,2.2419,2.2721,2.279,2.279,2.2738,2.2738,2.2738,2.2712,2.2712,2.2712,2.2712,2.2712,2.2505,2.2074,2.1829,2.1533,2.1334,2.1801,2.2189,2.241,2.3199,2.3639,2.3566,2.397,2.419,2.4192,2.4524,2.4727,2.4828,2.5068,2.5222,2.5283,2.5293,2.5313,2.5293,2.5312,2.5357,2.5387,2.5425,2.546,2.5517,2.5467,2.5226,2.4742,2.3883,2.299,2.2109,2.2023,2.2254,2.2754,2.2983,2.3285,2.3834,2.4431,2.4681,2.4429,2.4714,2.5024,2.5141,2.5182,2.5222,2.5274,2.5313,2.5303,2.5303,2.5171,2.5084,2.5084,2.4994,2.4902,2.4915,2.4962,2.5068,2.519,2.5262,2.512,2.4716,2.4582,2.4601,2.4514,2.4195,2.4389,2.5103,2.502,2.5093,2.544,2.561,2.5605,2.5515,2.5077,2.4824,2.4838,2.375,2.3212,2.3464,2.2843,2.2085,2.1658,2.125,2.1036,2.0565,2.0507,2.0502,2.4782,2.495,2.4799,2.4507,2.4112,2.3054,2.2453,2.216,2.1843,2.1784,2.1844,2.24,2.2634,2.2703,2.2764,2.2721,2.2712,2.2712,2.2712,2.2712,2.2712,2.2712,2.2712,2.2712,2.241,2.1953,2.1769,2.1394,2.0934,2.1685,2.2111,2.2209,2.3253,2.3695,2.3437,2.3933,2.4209,2.4229,2.451,2.4588,2.4488,2.4841,2.5134,2.5292,2.5293,2.5313,2.5313,2.5313,2.5206,2.5045,2.5065,2.4954,2.4768,2.471,2.4312,2.3559,2.3067,2.2312,2.1254,2.1133,2.1481,2.2238,2.2263,2.2622,2.356,2.4088,2.4185,2.4072,2.4421,2.4799,2.5012,2.5037,2.5103,2.5222,2.5233,2.5243,2.5241,2.5126,2.5031,2.4975,2.4814,2.4775,2.4832,2.4949,2.5057,2.4854,2.4859,2.4649,2.3966,2.3744,2.3744,2.3706,2.3013,2.3356,2.4877,2.4786,2.4717,2.513,2.5413,2.5157,2.5149,2.4463,2.395,2.3795,2.2493,2.1949,2.2396,2.1969,2.1425,2.1289,2.0954,2.0565,2.0507,2.0507,2.0507,2.4982,2.4871,2.4255,2.4334,2.4784,2.2801,2.2295,2.2794,2.2769,2.2394,2.2003,2.3107,2.3323,2.2703,2.2712,2.2712,2.2712,2.2712,2.2712,2.2712,2.2712,2.2712,2.2712,2.2712,2.2677,2.2522,2.2129,2.1645,2.1125,2.1212,2.166,2.2546,2.2977,2.3437,2.3914,2.4098,2.4171,2.4117,2.4229,2.4033,2.3652,2.4384,2.4924,2.5119,2.5303,2.5284,2.5245,2.5284,2.4928,2.4168,2.4168,2.3803,2.3099,2.2966,2.2592,2.1936,2.235,2.2062,2.071,2.0392,2.0623,2.1281,2.1417,2.1767,2.315,2.3297,2.3553,2.4262,2.4225,2.4433,2.4738,2.4858,2.4968,2.5094,2.5103,2.5103,2.5106,2.4968,2.4832,2.4685,2.4545,2.4491,2.4591,2.4893,2.4593,2.4167,2.3983,2.3756,2.3072,2.2851,2.287,2.2697,2.2331,2.2423,2.4637,2.4498,2.4474,2.4914,2.4807,2.4438,2.4057,2.3702,2.3312,2.2882,2.2041,2.1575,2.1556,2.1289,2.0862,2.0667,2.0701,2.0507,2.0507,2.0527,2.0643,2.4498,2.4623,2.4146,2.4318,2.4752,2.2738,2.2248,2.2825,2.2393,2.2059,2.1982,2.2743,2.2953,2.2712,2.2712,2.2712,2.2712,2.2712,2.2712,2.2712,2.2712,2.2712,2.2712,2.2712,2.2712,2.266,2.2513,2.2394,2.2365,2.2376,2.2438,2.2648,2.3222,2.3541,2.3547,2.3951,2.3951,2.3492,2.3581,2.3321,2.2674,2.3088,2.3431,2.3618,2.4666,2.4994,2.4476,2.4457,2.4092,2.3294,2.3266,2.3103,2.2748,2.2238,2.2094,2.2226,2.1549,2.1244,2.155,2.1094,2.1074,2.182,2.1798,2.1846,2.2412,2.2473,2.2693,2.336,2.3563,2.363,2.3854,2.4377,2.4888,2.5013,2.5031,2.4994,2.4902,2.4756,2.4601,2.4559,2.4444,2.4296,2.4042,2.4058,2.3852,2.3252,2.318,2.2833,2.2207,2.1977,2.1968,2.1825,2.1317,2.1364,2.3274,2.3499,2.3523,2.4122,2.432,2.4208,2.3918,2.2784,2.2204,2.2086,2.1452,2.1085,2.0973,2.0953,2.0502,2.0507,2.0507,2.0507,2.0507,2.076,2.1051,2.4441,2.4552,2.4092,2.4334,2.472,2.2722,2.2232,2.2778,2.2248,2.1906,2.1982,2.2581,2.2873,2.272,2.2712,2.2712,2.2712,2.2712,2.2712,2.2712,2.2712,2.2712,2.2712,2.2712,2.2712,2.2712,2.2712,2.2799,2.297,2.307,2.3017,2.2926,2.3518,2.3662,2.3528,2.3933,2.3804,2.318,2.3154,2.2715,2.189,2.2154,2.2261,2.2331,2.3564,2.4117,2.3631,2.3592,2.3218,2.2516,2.2383,2.223,2.1904,2.1922,2.1912,2.1845,2.134,2.1051,2.1464,2.0996,2.0954,2.1712,2.1492,2.1405,2.1906,2.192,2.2278,2.2866,2.3362,2.3472,2.3633,2.4241,2.4618,2.4549,2.4671,2.478,2.4697,2.4586,2.4489,2.4424,2.4478,2.4188,2.3652,2.3682,2.3271,2.246,2.2354,2.2015,2.1323,2.1103,2.1086,2.1029,2.0647,2.0753,2.1817,2.2218,2.2688,2.3312,2.3799,2.3788,2.3201,2.2022,2.1311,2.1179,2.0939,2.0584,2.0434,2.0476,2.0491,2.0493,2.0507,2.0507,2.076,2.1148,2.1464,2.4982,2.4831,2.4223,2.4286,2.4578,2.269,2.2216,2.2667,2.2439,2.2033,2.1867,2.2849,2.2982,2.2735,2.2685,2.2712,2.2712,2.2712,2.2712,2.2712,2.2712,2.2712,2.2712,2.2712,2.2712,2.2712,2.2712,2.2712,2.2764,2.2952,2.3129,2.3397,2.3617,2.386,2.4153,2.4135,2.3786,2.3107,2.2958,2.227,2.1094,2.1592,2.1695,2.1193,2.1988,2.255,2.2709,2.2757,2.2373,2.1624,2.1492,2.1101,2.0725,2.1645,2.1933,2.0853,2.1606,2.1505,2.0339,1.9982,2.0252,2.091,2.0233,2.06,2.1662,2.1861,2.2155,2.2923,2.3566,2.4081,2.4134,2.4315,2.4199,2.3561,2.4164,2.4522,2.451,2.4491,2.4441,2.4302,2.4459,2.4294,2.3729,2.3537,2.3148,2.2048,2.1529,2.1421,2.0949,2.0787,2.0356,2.0356,2.0446,2.0746,2.089,2.1101,2.1847,2.2527,2.2967,2.3127,2.2246,2.1207,2.0797,2.061,2.0682,2.0388,2.041,2.0449,2.0458,2.0468,2.0488,2.0643,2.1032,2.1439,2.1886,2.4661,2.4608,2.4092,2.4033,2.4033,2.2532,2.2011,2.2074,2.1778,2.1566,2.1606,2.2245,2.2485,2.2443,2.2588,2.2712,2.2712,2.2712,2.2712,2.2712,2.2712,2.2712,2.2712,2.2712,2.2712,2.2712,2.2712,2.2712,2.2712,2.2773,2.3017,2.3364,2.3477,2.3774,2.417,2.4153,2.3584,2.2391,2.2721,2.2001,2.0144,2.0697,2.0788,2.0175,2.0481,2.0779,2.0899,2.1531,2.1473,2.0659,2.0601,2.0459,2.0355,2.0623,2.089,2.0916,2.0604,2.0954,2.1269,2.0703,2.0585,2.1221,2.1173,2.1303,2.1726,2.1805,2.2154,2.2868,2.3235,2.3419,2.3511,2.3971,2.4155,2.4053,2.4256,2.4391,2.4321,2.4321,2.4284,2.4247,2.4409,2.3942,2.298,2.2842,2.2609,2.1656,2.1041,2.0817,2.1606,2.1318,2.109,2.1033,2.0976,2.0699,2.0584,2.0575,2.0958,2.1503,2.1942,2.2275,2.1414,2.083,2.0403,2.0296,2.036,2.0475,2.0479,2.0612,2.0764,2.0614,2.0648,2.0924,2.1323,2.1867,2.2488,2.462,2.4492,2.4375,2.4318,2.4191,2.3085,2.2485,2.2172,2.1725,2.1456,2.1451,2.1823,2.2124,2.2265,2.2544,2.2712,2.2712,2.2712,2.2712,2.2712,2.2712,2.2712,2.2712,2.2712,2.2712,2.2712,2.2712,2.2712,2.2712,2.2738,2.2917,2.3341,2.341,2.3671,2.4151,2.4171,2.3511,2.2501,2.2721,2.1969,2.0368,2.0354,2.0252,1.9643,1.9682,1.9793,1.9866,2.0511,2.0671,2.0269,2.0126,2.0069,2.0067,2.0262,2.0475,2.0516,2.0377,2.0401,2.0897,2.0351,2.0312,2.0794,2.1128,2.1292,2.1363,2.1524,2.2165,2.2832,2.3033,2.3125,2.3492,2.3859,2.421,2.4302,2.4302,2.4284,2.4209,2.419,2.4228,2.4284,2.4442,2.3899,2.3145,2.2476,2.2242,2.1512,2.1004,2.083,2.1943,2.2039,2.1847,2.1713,2.1684,2.1158,2.0289,2.0155,2.0174,2.0489,2.0862,2.1052,2.0775,2.0525,2.0205,2.0408,2.0525,2.0978,2.1062,2.1455,2.1654,2.1318,2.1028,2.1471,2.2025,2.2857,2.3478,2.4766,2.4564,2.4846,2.491,2.4713,2.3986,2.3259,2.2706,2.2046,2.1548,2.1374,2.1648,2.1911,2.2181,2.249,2.2659,2.2685,2.2685,2.2685,2.2685,2.2685,2.2685,2.2685,2.2712,2.2712,2.2712,2.2712,2.2712,2.2712,2.2712,2.2917,2.3346,2.3432,2.3671,2.4094,2.419,2.3786,2.3033,2.3052,2.2282,2.0721,2.0739,2.0391,1.9651,1.9717,1.9814,2.0004,2.012,2.0107,2.0117,1.9979,1.9877,1.9936,2.0527,2.0427,1.9876,2.0362,2.0108,1.9653,1.9556,1.9617,1.995,2.0523,2.062,2.1033,2.1832,2.2438,2.2941,2.3125,2.3437,2.3969,2.4171,2.4209,2.419,2.4228,2.4227,2.4209,2.419,2.4228,2.4355,2.4505,2.4415,2.3604,2.3042,2.2514,2.1971,2.1656,2.1732,2.2211,2.2632,2.2354,2.2364,2.2515,2.1999,2.1273,2.1063,2.1111,2.1187,2.1254,2.111,2.0995,2.0793,2.0802,2.0949,2.1066,2.1444,2.1748,2.2105,2.2197,2.1881,2.192,2.2262,2.2823,2.3591,2.4141,2.4742,2.4886,2.4966,2.472,2.4144,2.3433,2.2769,2.2058,2.1426,2.1128,2.0974,2.1464,2.1691,2.1748,2.2315,2.2552,2.2603,2.2603,2.2579,2.2605,2.2632,2.2659,2.2685,2.2712,2.2712,2.2712,2.2712,2.2712,2.2712,2.2712,2.296,2.3387,2.3392,2.3671,2.4113,2.419,2.3768,2.3235,2.3621,2.3088,2.1804,2.2024,2.1932,2.1197,2.0659,2.0741,2.1171,2.0862,2.033,1.9859,1.9802,1.9748,1.9797,1.9963,1.9935,1.9689,1.9662,1.9686,1.9427,1.936,1.984,2.0994,2.126,2.1701,2.2318,2.307,2.3327,2.3309,2.3492,2.3933,2.4153,2.419,2.419,2.419,2.419,2.419,2.419,2.419,2.4228,2.4284,2.453,2.4279,2.3813,2.3518,2.3373,2.3089,2.2774,2.2699,2.3254,2.3503,2.3358,2.3414,2.3422,2.2927,2.2487,2.2249,2.2163,2.223,2.2192,2.2009,2.1913,2.1779,2.1999,2.2275,2.2177,2.2434,2.2474,2.2637,2.2511,2.2681,2.2744,2.3064,2.3501,2.4122,2.4548,2.4661,2.4726,2.4926,2.4784,2.4318,2.3885,2.3122,2.2256,2.1764,2.1164,2.0854,2.1166,2.1448,2.157,2.2362,2.2847,2.2948,2.2976,2.2976,2.2963,2.2706,2.2623,2.2685,2.2712,2.2712,2.2712,2.2712,2.2712,2.2712,2.2712,2.291,2.3236,2.3364,2.361,2.3996,2.4133,2.3988,2.3657,2.3951,2.3547,2.2464,2.274,2.2483,2.1913,2.1353,2.1451,2.1795,2.1485,2.0913,2.0311,2.0132,2.0103,2.0092,2.0015,1.9822,1.9512,1.9402,1.9357,1.9378,1.9583,2.0228,2.1178,2.1789,2.2474,2.2886,2.3473,2.3454,2.3639,2.3694,2.3859,2.4135,2.419,2.419,2.419,2.419,2.419,2.419,2.419,2.4228,2.4303,2.4407,2.4507,2.4034,2.3942,2.385,2.3766,2.3443,2.3711,2.417,2.4304,2.4285,2.414,2.411,2.373,2.3263,2.2967,2.2834,2.293,2.3189,2.2997,2.292,2.2804,2.2785,2.3016,2.3179,2.3409,2.364,2.3803,2.389,2.3995,2.3851,2.379,2.4157,2.4498,2.4923,2.4605,2.4343,2.4751,2.4966,2.4879,2.4697,2.3802,2.2875,2.241,2.1635,2.0814,2.0957,2.1471,2.1671,2.2829,2.3401,2.3682,2.367,2.3579,2.3323,2.2925,2.262,2.29,2.2917,2.302,2.3081,2.2909,2.2961,2.3057,2.2953,2.2911,2.3225,2.3395,2.3522,2.3816,2.4036,2.4151,2.4116,2.4116,2.3896,2.3254,2.3217,2.296,2.2482,2.2299,2.1967,2.1929,2.1832,2.1643,2.099,2.0863,2.0788,2.0726,2.0629,2.0223,1.974,1.9596,1.9562,1.9583,2.0228,2.0743,2.1216,2.2313,2.3067,2.3199,2.3381,2.3582,2.4025,2.3529,2.3694,2.4043,2.419,2.419,2.419,2.419,2.419,2.419,2.419,2.4247,2.4355,2.4391,2.4556,2.4586,2.4346,2.3904,2.4358,2.4132,2.4323,2.4629,2.4717,2.4572,2.4361,2.4388,2.4514,2.4066,2.3647,2.3553,2.3563,2.3996,2.4072,2.4034,2.388,2.3563,2.3678,2.463,2.5156,2.5393,2.5469,2.5327,2.5086,2.4809,2.461,2.4552,2.4848,2.5243,2.4589,2.4549,2.463,2.467,2.4592,2.4092,2.342,2.2639,2.2087,2.1424,2.0858,2.1632,2.2102,2.2264,2.3496,2.4239,2.4265,2.4232,2.4041,2.3437,2.2811,2.2935,2.335,2.3522,2.3796,2.4059,2.3732,2.3846,2.4081,2.3367,2.3154,2.3788,2.3379,2.3376,2.3732,2.3837,2.3996,2.4151,2.4208,2.4116,2.3969,2.3859,2.3768,2.3529,2.3547,2.296,2.2188,2.2426,2.2643,2.2402,2.1983,2.1658,2.146,2.0998,2.0607,2.0388,2.0312,2.0312,2.0409,2.1033,2.1786,2.2299,2.2737,2.327,2.3915,2.3895,2.3987,2.4171,2.4025,2.3969,2.4153,2.419,2.419,2.419,2.419,2.419,2.419,2.419,2.4228,2.4266,2.432,2.4474,2.4704,2.4719,2.4619,2.4832,2.4878,2.4897,2.4973,2.505,2.4843,2.4541,2.469,2.4786,2.4626,2.4353,2.4417,2.4341,2.4678,2.5264,2.5245,2.536,2.5187,2.5695,2.6549,2.6822,2.6623,2.645,2.6156,2.596,2.5707,2.5332,2.5146,2.5369,2.5303,2.4523,2.4564,2.4589,2.4589,2.4527,2.42,2.3631,2.304,2.2599,2.1982,2.161,2.2327,2.2485,2.2308,2.3885,2.4624,2.4471,2.4801,2.4642,2.4058,2.3641,2.3925,2.453,2.4663,2.4846,2.4918,2.4551,2.4666,2.4546,2.3943,2.3463,2.3884,2.3379,2.3193,2.3491,2.3667,2.3858,2.3996,2.4151,2.419,2.419,2.419,2.419,2.419,2.4171,2.3694,2.3107,2.3309,2.3548,2.3437,2.3143,2.2722,2.2392,2.1934,2.1582,2.1197,2.1141,2.1158,2.1308,2.1859,2.2538,2.2978,2.3327,2.3732,2.408,2.419,2.419,2.419,2.419,2.419,2.419,2.419,2.419,2.419,2.419,2.419,2.419,2.419,2.419,2.4209,2.4266,2.4374,2.4526,2.4716,2.4874,2.4879,2.4996,2.5027,2.4948,2.5005,2.4962,2.4835,2.4962,2.5037,2.503,2.5057,2.531,2.5253,2.5322,2.6062,2.657,2.6781,2.7001,2.7316,2.7409,2.7458,2.7306,2.7134,2.6937,2.6766,2.6448,2.5983,2.5619,2.5524,2.5373,2.4457,2.4457,2.4564,2.4549,2.4549,2.4467,2.4064,2.3467,2.3341,2.2748,2.2523,2.2818,2.2881,2.2847,2.4359,2.4846,2.4812,2.5009,2.5101,2.4709,2.4431,2.4832,2.5408,2.5589,2.5647,2.5304,2.52,2.5252,2.5183,2.4465,2.4167,2.4085,2.3432,2.336,2.3411,2.3481,2.371,2.3837,2.4016,2.4151,2.419,2.419,2.419,2.419,2.419,2.4153,2.3951,2.4061,2.4135,2.419,2.419,2.3823,2.3382,2.2978,2.2776,2.2023,2.1986,2.1969,2.2116,2.2685,2.3217,2.3217,2.3749,2.4116,2.419,2.419,2.419,2.419,2.419,2.419,2.419,2.419,2.4208,2.419,2.419,2.419,2.4208,2.419,2.4209,2.4247,2.4303,2.4392,2.4459,2.4607,2.476,2.4921,2.5044,2.5113,2.5025,2.4955,2.4902,2.4902,2.4987,2.5106,2.5111,2.5153,2.5491,2.5781,2.5812,2.6559,2.7355,2.7486,2.7532,2.7692,2.7783,2.7892,2.7797,2.7478,2.7344,2.7385,2.6915,2.6186,2.5825,2.5614,2.5409,2.4302,2.4343,2.4343,2.4343,2.4343,2.4359,2.3989,2.3403,2.3403,2.2932,2.2532,2.3299,2.3882,2.422,2.5299,2.598,2.595,2.588,2.5609,2.5321,2.5077,2.5241,2.5848,2.6065,2.6261,2.6467,2.6224,2.6151,2.6316,2.5609,2.4981,2.5229,2.4326,2.3779,2.3614,2.3587,2.3534,2.3689,2.3855,2.3996,2.4113,2.419,2.419,2.419,2.419,2.419,2.417,2.419,2.419,2.419,2.419,2.4098,2.3841,2.3345,2.3033,2.2868,2.2813,2.2813,2.2905,2.3492,2.3896,2.4025,2.4116,2.419,2.419,2.419,2.419,2.419,2.419,2.4208,2.419,2.419,2.417,2.4151,2.417,2.417,2.4151,2.419,2.4266,2.4321,2.4355,2.4391,2.4476,2.4543,2.4654,2.4775,2.4865,2.4934,2.4902,2.4861,2.4851,2.4879,2.4929,2.5063,2.5164,2.5225,2.5423,2.5894,2.6154,2.6738,2.7378,2.7687,2.7886,2.8058,2.8268,2.8428,2.8217,2.7834,2.7655,2.7622,2.6991,2.6303,2.6186,2.606,2.5442,2.4302,2.4302,2.4302,2.4302,2.4302,2.4302,2.4133,2.384,2.381,2.3656,2.3685,2.4277,2.4479,2.4673,2.5791,2.6522,2.6522,2.6387,2.6167,2.6081,2.5959,2.5987,2.6426,2.6507,2.6776,2.698,2.6791,2.6722,2.7063,2.6052,2.5601,2.5269,2.4683,2.4102,2.3658,2.3622,2.3517,2.3624,2.3721,2.3873,2.4034,2.4132,2.419,2.419,2.417,2.4132,2.3996,2.3996,2.3917,2.3855,2.3917,2.3958,2.3888,2.3802,2.3602,2.3584,2.3584,2.3602,2.3621,2.4025,2.4153,2.4171,2.419,2.419,2.419,2.419,2.4208,2.4151,2.4094,2.4132,2.4151,2.4151,2.4151,2.4151,2.4189,2.4189,2.419,2.4247,2.4321,2.4373,2.4376,2.4394,2.4459,2.4526,2.4575,2.4639,2.47,2.4746,2.4775,2.4731,2.4704,2.479,2.4861,2.5038,2.5153,2.5225,2.5497,2.5967,2.6312,2.6895,2.7592,2.7988,2.8243,2.8421,2.8651,2.9027,2.8612,2.821,2.8044,2.784,2.7399,2.6991,2.677,2.6435,2.5774,2.4302,2.4302,2.4302,2.4302,2.4302,2.4302,2.4302,2.4302,2.4287,2.4256,2.4385,2.4855,2.4707,2.4616,2.5557,2.6522,2.6657,2.6657,2.664,2.664,2.6723,2.6858,2.6925,2.7024,2.7087,2.7103,2.71,2.7117,2.7066,2.6536,2.588,2.5515,2.5222,2.4534,2.3705,2.3832,2.3737,2.3816,2.3708,2.3898,2.4052,2.4127,2.417,2.4132,2.4113,2.3996,2.3735,2.3714,2.3631,2.3566,2.3606,2.3732,2.3774,2.3958,2.4113,2.4113,2.4151,2.419,2.4171,2.4153,2.419,2.419,2.419,2.419,2.417,2.4133,2.4113,2.4094,2.4036,2.4016,2.4074,2.4074,2.4094,2.4151,2.4151,2.417,2.419,2.4229,2.4284,2.4321,2.4339,2.4395,2.4482,2.4392,2.4426,2.4476,2.4524,2.4559,2.4591,2.4526,2.4528,2.4654,2.4785,2.4981,2.5099,2.5195,2.5608,2.6182,2.6393,2.6737,2.7605,2.8415,2.8651,2.8924,2.9421,2.9664,2.9115,2.8548,2.8311,2.8074,2.7875,2.7622,2.7306,2.6696,2.5983,2.4302,2.4302,2.4302,2.4302,2.4302,2.4302,2.4302,2.4302,2.4271,2.4302,2.4343,2.4446,2.4476,2.4745,2.5363,2.6134,2.6539,2.6708,2.6708,2.6725,2.6825,2.6876,2.6959,2.7055,2.7072,2.7105,2.712,2.7184,2.7166,2.7046,2.6647,2.6027,2.5855,2.5459,2.4505,2.4199,2.4274,2.4742,2.4374,2.4277,2.4504,2.4288,2.4051,2.3896,2.3816,2.3714,2.35,2.3455,2.341,2.3369,2.3432,2.3477,2.3482,2.3692,2.3816,2.3917,2.4036,2.419,2.419,2.419,2.419,2.419,2.4208,2.417,2.4112,2.4054,2.4016,2.4034,2.3996,2.3978,2.3996,2.4016,2.4016,2.4036,2.4113,2.4113,2.4133,2.419,2.4247,2.4487,2.4577,2.4506,2.4485,2.4358,2.4284,2.4321,2.4373,2.4391,2.4444,2.4409,2.4461,2.4623,2.479,2.4968,2.5118,2.5203,2.5482,2.619,2.6312,2.6541,2.7542,2.846,2.9205,2.9535,2.9994,2.965,2.8561,2.8134,2.8316,2.836,2.8245,2.8025,2.7727,2.7039,2.6454,2.4276,2.4302,2.4302,2.4302,2.4302,2.4302,2.4302,2.4225,2.3902,2.407,2.4538,2.446,2.4846,2.5557,2.6118,2.6387,2.6657,2.6708,2.6708,2.6691,2.6792,2.6842,2.6942,2.7007,2.7007,2.7105,2.7105,2.707,2.7169,2.7132,2.6788,2.6281,2.6454,2.6109,2.5212,2.4695,2.4458,2.4292,2.3937,2.3766,2.3907,2.3865,2.3671,2.3566,2.3544,2.3427,2.3265,2.3236,2.314,2.3098,2.32,2.341,2.3522,2.3774,2.4034,2.4054,2.4132,2.4208,2.419,2.419,2.417,2.417,2.4151,2.4113,2.4032,2.3974,2.3955,2.3955,2.3935,2.3917,2.3937,2.3958,2.4016,2.4054,2.4094,2.4132,2.4151,2.417,2.4264,2.4558,2.4815,2.48,2.4838,2.4967,2.4708,2.4357,2.4356,2.4338,2.441,2.4445,2.4528,2.4689,2.4818,2.4955,2.5094,2.5203,2.5222,2.5662,2.57,2.6185,2.7434,2.837,2.9096,2.9707,3.0089,2.9344,2.8064,2.8376,2.9145,2.8973,2.8635,2.8458,2.83,2.8242,2.7746,2.4039,2.4234,2.4276,2.4184,2.4071,2.4225,2.4302,2.4241,2.3825,2.4002,2.4524,2.4596,2.5266,2.6252,2.6404,2.6404,2.6691,2.6708,2.6708,2.6691,2.6725,2.6825,2.6892,2.6925,2.704,2.7218,2.7105,2.7055,2.7107,2.7173,2.7,2.6182,2.6833,2.6471,2.5643,2.5264,2.5092,2.4689,2.4435,2.4232,2.4052,2.3821,2.3572,2.3407,2.3265,2.317,2.301,2.3003,2.2893,2.285,2.2993,2.3194,2.3335,2.3646,2.3935,2.4016,2.4113,2.417,2.417,2.417,2.4152,2.4113,2.4056,2.4016,2.3987,2.393,2.3876,2.3876,2.3837,2.3855,2.3876,2.3937,2.3996,2.4054,2.4113,2.4151,2.4208,2.4208,2.4428,2.4869,2.5107,2.5254,2.5369,2.561,2.5317,2.4616,2.4357,2.434,2.4339,2.4428,2.4561,2.4704,2.495,2.5051,2.5106,2.5203,2.521,2.5287,2.5344,2.6001,2.7364,2.8261,2.8962,2.9516,3.0128,2.9841,2.9039,2.9535,2.9956,2.9369,2.8935,2.9006,2.8949,2.8911,2.8796,2.3462,2.4024,2.4166,2.3912,2.3486,2.4056,2.4302,2.4302,2.421,2.4189,2.4371,2.4531,2.5173,2.5857,2.6068,2.6251,2.6742,2.6708,2.6793,2.6843,2.6792,2.6843,2.6893,2.6957,2.7023,2.7007,2.7007,2.704,2.716,2.7468,2.6987,2.6313,2.7063,2.6699,2.623,2.5855,2.57,2.5483,2.5442,2.5275,2.4866,2.4423,2.3914,2.3274,2.3102,2.3003,2.2764,2.2764,2.2764,2.2712,2.2833,2.3175,2.343,2.3549,2.3789,2.4317,2.4167,2.4243,2.4278,2.4224,2.4151,2.4094,2.3996,2.3935,2.391,2.3852,2.3834,2.3871,2.3922,2.3889,2.3891,2.393,2.4358,2.4271,2.446,2.4627,2.4575,2.4245,2.452,2.5089,2.5328,2.5364,2.5458,2.5608,2.5829,2.5208,2.469,2.4635,2.4358,2.4373,2.4524,2.4716,2.5042,2.5158,2.516,2.5241,2.5421,2.5554,2.5631,2.6402,2.7459,2.8204,2.8916,2.9598,3.0157,3.0095,3.007,3.0089,2.9956,2.9478,2.9235,2.9421,2.9268,2.9077,2.9039,2.3455,2.3421,2.38,2.3914,2.3882,2.4142,2.4276,2.4225,2.3871,2.3832,2.4139,2.4996,2.5537,2.5776,2.6251,2.6539,2.7004,2.7298,2.735,2.7402,2.7419,2.7216,2.7063,2.6977,2.6957,2.6976,2.6992,2.6975,2.701,2.7504,2.7146,2.6905,2.75,2.724,2.6877,2.6241,2.5911,2.5592,2.5524,2.5201,2.449,2.4197,2.365,2.298,2.279,2.279,2.2712,2.2712,2.2712,2.2738,2.2842,2.3237,2.3713,2.3705,2.4216,2.4893,2.4657,2.4476,2.4584,2.4423,2.4094,2.3976,2.3896,2.3855,2.3871,2.3831,2.3813,2.3922,2.423,2.4342,2.3943,2.4732,2.5436,2.4983,2.4897,2.5122,2.5087,2.4814,2.4942,2.5697,2.5476,2.5237,2.5349,2.5479,2.5737,2.5811,2.5316,2.4894,2.4635,2.4373,2.454,2.487,2.5224,2.5203,2.517,2.5404,2.5715,2.5829,2.5944,2.6817,2.7668,2.827,2.8974,2.9656,3.0147,3.0104,3.0118,3.0185,3.0032,2.9746,2.9765,2.9937,2.9669,2.9306,2.9344,2.336,2.3175,2.339,2.361,2.3849,2.409,2.425,2.4184,2.384,2.3802,2.4261,2.5292,2.5689,2.5758,2.6421,2.692,2.7331,2.7763,2.8093,2.8163,2.813,2.7911,2.7674,2.7556,2.7674,2.7368,2.7504,2.759,2.7284,2.764,2.7828,2.7981,2.8219,2.8084,2.7055,2.659,2.6055,2.5708,2.5549,2.5222,2.4637,2.4528,2.4201,2.3643,2.3529,2.3305,2.3202,2.3099,2.29,2.2824,2.2928,2.339,2.3851,2.4338,2.4827,2.5245,2.5436,2.5056,2.5145,2.4616,2.4051,2.3917,2.4208,2.4037,2.3907,2.3997,2.4275,2.4266,2.4704,2.4867,2.4454,2.5597,2.606,2.5683,2.5688,2.5858,2.5876,2.575,2.5933,2.6284,2.5972,2.586,2.6631,2.6817,2.6178,2.6178,2.5537,2.519,2.5059,2.4777,2.4522,2.496,2.5471,2.5332,2.5158,2.5958,2.6593,2.618,2.6454,2.7159,2.7913,2.8493,2.9053,2.9715,3.0053,3.0098,3.0147,3.0176,3.019,3.0166,3.0185,3.0147,3.0089,2.9784,2.9898,2.3113,2.3475,2.3023,2.2923,2.3223,2.3865,2.4223,2.4208,2.4199,2.4384,2.4697,2.5005,2.516,2.5578,2.6381,2.6904,2.737,2.8223,2.8763,2.8797,2.8851,2.889,2.8863,2.8711,2.8371,2.8113,2.8284,2.8284,2.7841,2.8704,2.9098,2.9047,2.9064,2.8795,2.7179,2.7007,2.6956,2.6939,2.6882,2.6382,2.5846,2.5652,2.5252,2.4718,2.4528,2.4218,2.388,2.376,2.3526,2.3165,2.3258,2.363,2.4027,2.461,2.5122,2.559,2.6071,2.6158,2.615,2.4751,2.4278,2.4314,2.4769,2.4732,2.429,2.4496,2.4972,2.5034,2.5306,2.5623,2.594,2.6461,2.6615,2.6527,2.6533,2.6722,2.6778,2.6355,2.6447,2.6686,2.6796,2.6998,2.8026,2.8393,2.7227,2.653,2.5795,2.5466,2.5412,2.5374,2.5147,2.5558,2.6136,2.6152,2.6227,2.7045,2.7421,2.6912,2.6949,2.7676,2.8236,2.8757,2.9295,2.9826,3.0022,3.0117,3.0147,3.0161,3.019,3.0204,3.0204,3.0204,3.0204,3.0204,3.0204,2.34,2.358,2.337,2.3338,2.3453,2.3876,2.4151,2.4234,2.4317,2.4385,2.4533,2.4759,2.4759,2.5053,2.5722,2.6558,2.7227,2.7702,2.8339,2.9232,2.9287,2.9143,2.9104,2.913,2.8946,2.8774,2.8943,2.9045,2.8602,2.9431,2.9313,2.918,2.9299,2.8725,2.7828,2.7317,2.6942,2.6975,2.6937,2.6696,2.6107,2.6018,2.5756,2.5097,2.5097,2.4925,2.4557,2.4522,2.4242,2.3922,2.4061,2.4576,2.5057,2.5683,2.6128,2.6662,2.7126,2.6313,2.6232,2.5611,2.5466,2.5524,2.555,2.5641,2.5466,2.5583,2.5804,2.5986,2.6277,2.6486,2.6457,2.7579,2.7881,2.7427,2.7431,2.782,2.7805,2.6979,2.6667,2.6998,2.72,2.6631,2.7071,2.8301,2.7717,2.7243,2.6599,2.6033,2.5854,2.6111,2.6132,2.6581,2.7017,2.7062,2.7329,2.7932,2.7965,2.7456,2.7628,2.8237,2.8733,2.9096,2.9434,2.9888,3.0022,3.0136,3.0395,3.0557,3.0285,3.0204,3.0261,3.0242,3.0204,3.0204,3.0204,2.3595,2.3595,2.3595,2.3653,2.3739,2.3925,2.4109,2.4261,2.4302,2.4302,2.4343,2.4574,2.4558,2.4698,2.5543,2.6278,2.7179,2.812,2.863,2.9535,2.9535,2.9549,2.956,2.9463,2.9555,2.9458,2.9617,2.9702,2.9414,2.9651,2.9875,2.9824,2.9245,2.9062,2.854,2.8201,2.7555,2.7505,2.7317,2.7077,2.6595,2.6319,2.6196,2.5884,2.5743,2.5588,2.5339,2.5176,2.506,2.4966,2.5178,2.5627,2.6074,2.6611,2.6988,2.7483,2.7707,2.7061,2.7109,2.7109,2.7037,2.7055,2.6817,2.649,2.6408,2.6431,2.6599,2.6877,2.73,2.7401,2.7483,2.8662,2.8539,2.8086,2.8201,2.8572,2.8466,2.764,2.7493,2.7787,2.775,2.6979,2.641,2.7273,2.7952,2.7714,2.7457,2.6909,2.6436,2.6657,2.694,2.7288,2.7603,2.7641,2.7953,2.8578,2.846,2.8008,2.8408,2.899,2.9122,2.9481,2.9706,2.9986,3.033,3.0689,3.0977,3.1026,3.0892,3.0643,3.0433,3.0376,3.0242,3.0204,3.0204,2.3595,2.3595,2.3595,2.3739,2.394,2.3982,2.4109,2.4261,2.4302,2.4302,2.4302,2.4359,2.4317,2.4647,2.6104,2.672,2.6983,2.8426,2.9081,2.9459,2.9372,2.9721,3.0104,3.0195,3.0049,3.0269,3.0437,3.0347,3.0205,3.0497,3.0852,3.0751,2.9888,2.9773,2.9655,2.9401,2.8672,2.8199,2.7725,2.7487,2.7078,2.6872,2.6751,2.6612,2.661,2.637,2.607,2.5839,2.5452,2.5316,2.5346,2.552,2.595,2.6742,2.7186,2.7628,2.8196,2.8243,2.8279,2.8207,2.8261,2.8051,2.7743,2.7108,2.6879,2.7176,2.7368,2.7459,2.7707,2.8184,2.8657,2.8772,2.8874,2.8787,2.881,2.8925,2.892,2.8723,2.8705,2.8778,2.8741,2.8246,2.7622,2.8026,2.8282,2.7915,2.7805,2.8084,2.7613,2.7251,2.7518,2.766,2.7941,2.8116,2.8553,2.9058,2.9128,2.8698,2.9257,2.979,2.9866,2.9825,2.999,3.0305,3.0823,3.1188,3.134,3.1503,3.1637,3.1331,3.0949,3.0472,3.0338,3.0223,3.0204,2.3595,2.3595,2.3595,2.3638,2.3739,2.3925,2.4109,2.4302,2.4302,2.4302,2.4302,2.4302,2.4276,2.4326,2.4843,2.5366,2.5886,2.6439,2.7466,2.8056,2.8698,2.9274,2.9718,3.0021,3.0128,3.036,3.0613,3.0858,3.0881,3.119,3.1157,3.0987,3.0514,3.0598,3.0632,3.0632,2.9702,2.8822,2.8249,2.7843,2.7505,2.7164,2.7061,2.6957,2.6973,2.6734,2.6585,2.6519,2.6248,2.6196,2.6488,2.6795,2.7144,2.7593,2.7958,2.8261,2.8478,2.8551,2.8587,2.8587,2.8641,2.8696,2.8438,2.836,2.8062,2.7954,2.8066,2.799,2.7908,2.8265,2.856,2.8731,2.8881,2.8952,2.8975,2.8975,2.8975,2.8975,2.8975,2.8975,2.8975,2.8796,2.8282,2.8429,2.8576,2.8136,2.8062,2.8452,2.8599,2.8184,2.8006,2.8176,2.837,2.8559,2.8912,2.9416,2.9507,2.9581,3.0056,3.0339,3.0245,3.0223,3.0292,3.0604,3.1137,3.1409,3.1565,3.1866,3.2382,3.1909,3.1488,3.0911,3.0452,3.0491,3.0663,2.3595,2.3595,2.3595,2.3638,2.3696,2.394,2.4051,2.4177,2.4234,2.4234,2.4177,2.4177,2.4151,2.417,2.4529,2.4882,2.5323,2.5872,2.6683,2.7562,2.7823,2.8643,2.9185,2.9705,3.0107,3.0393,3.0699,3.0982,3.11,3.0903,3.0801,3.1157,3.1004,3.0987,3.1038,3.097,3.048,2.955,2.8755,2.8249,2.7776,2.7284,2.6978,2.696,2.6959,2.6943,2.6893,2.6961,2.6826,2.6808,2.7147,2.7487,2.7754,2.8047,2.829,2.8533,2.8569,2.8587,2.8641,2.8993,2.8977,2.9024,2.9184,2.9104,2.873,2.8415,2.8263,2.8139,2.8084,2.8147,2.8404,2.8626,2.8791,2.897,2.8975,2.8975,2.8975,2.8975,2.8975,2.8975,2.8906,2.8778,2.8741,2.892,2.8883,2.8517,2.8278,2.8329,2.864,2.8682,2.8553,2.8603,2.8809,2.905,2.9433,2.9814,2.9945,3.0133,3.0434,3.0641,3.0603,3.0693,3.0817,3.1086,3.1428,3.1817,3.2306,3.2821,3.3184,3.2768,3.2462,3.2019,3.158,3.1217,3.1465,2.346,2.352,2.358,2.3638,2.3782,2.3925,2.3982,2.3982,2.4109,2.4124,2.4024,2.3982,2.4009,2.4058,2.4435,2.4706,2.4994,2.5374,2.6075,2.7242,2.7288,2.7905,2.8854,2.9499,2.975,3.0351,3.0757,3.0838,3.0943,3.0835,3.0801,3.1089,3.0531,3.0463,3.0869,3.092,3.0514,2.9956,2.9194,2.8586,2.801,2.7368,2.6877,2.7013,2.7046,2.703,2.6996,2.6894,2.6776,2.7026,2.7215,2.7592,2.7922,2.8237,2.8492,2.8696,2.8775,2.8902,2.9101,2.9526,2.971,2.9891,3.0107,2.9826,2.9387,2.8682,2.8405,2.7993,2.7858,2.801,2.8255,2.8719,2.9018,2.9406,2.9635,2.9567,2.9439,2.9292,2.8975,2.909,2.9292,2.914,2.93,2.9502,2.9643,2.9135,2.8837,2.874,2.8552,2.8821,2.9022,2.904,2.9274,2.9544,2.9993,3.0309,3.0487,3.0695,3.1072,3.1318,3.1506,3.1482,3.1393,3.1759,3.218,3.2749,3.3261,3.3681,3.4006,3.419,3.383,3.3318,3.284,3.2363,3.2344,2.2443,2.2936,2.3415,2.361,2.3653,2.3797,2.3782,2.3696,2.3839,2.394,2.3982,2.3982,2.3894,2.3839,2.4122,2.4286,2.4316,2.4765,2.5419,2.6198,2.6581,2.7226,2.8357,2.8747,2.9223,2.975,3.0199,3.0642,3.087,3.0852,3.0632,3.0412,3.0108,3.0311,3.0463,3.0497,3.0395,3.0074,2.9634,2.9059,2.8586,2.8586,2.8433,2.8384,2.8352,2.8267,2.813,2.7806,2.7654,2.7606,2.7351,2.758,2.7993,2.8416,2.858,2.8677,2.9228,2.9445,2.9717,3.0188,3.0523,3.0556,3.0589,3.0291,2.9801,2.8977,2.8394,2.7949,2.7707,2.794,2.8289,2.8819,2.935,2.9853,3.0338,3.0136,2.9953,2.9567,2.9163,2.931,2.9604,2.9745,2.9844,2.9984,3.0179,3.0088,2.9807,2.9491,2.8822,2.8798,2.9362,2.9478,2.9741,3.005,3.0434,3.0794,3.0966,3.1615,3.2183,3.2335,3.2374,3.2348,3.2311,3.2607,3.3032,3.3223,3.3566,3.4273,3.4633,3.4898,3.4764,3.4079,3.4063,3.3738,3.3643,2.2084,2.2768,2.334,2.3595,2.3595,2.3696,2.3653,2.3653,2.3696,2.3739,2.3839,2.3809,2.3661,2.3498,2.3646,2.367,2.3625,2.3948,2.4823,2.5584,2.6089,2.6549,2.7242,2.8046,2.8704,2.927,3.0152,3.0714,3.083,3.0666,3.0362,3.0142,3.0108,3.0091,3.0142,3.0328,3.0328,3.0125,2.9871,2.9583,2.9093,2.8772,2.8772,2.8791,2.8994,2.903,2.8892,2.8533,2.8433,2.8476,2.847,2.8956,2.939,2.9719,2.9727,2.9826,3.0079,3.0341,3.0532,3.0848,3.1268,3.1184,3.1177,3.0927,3.0245,2.9558,2.9362,2.8905,2.8117,2.8185,2.8865,2.9425,2.9835,3.0313,3.0728,3.0834,3.0742,3.0558,3.0081,2.9751,2.991,2.9917,3.0003,2.999,3.0154,3.0111,2.9977,2.9726,2.9148,2.9032,2.9522,2.9966,3.025,3.0314,3.0448,3.0936,3.1418,3.2208,3.3183,3.2902,3.2748,3.3039,3.3252,3.2959,3.284,3.2974,3.3452,3.4254,3.4789,3.5015,3.492,3.4674,3.4789,3.4827,3.4598,2.1979,2.2712,2.334,2.3595,2.3595,2.3595,2.3595,2.3595,2.3595,2.3595,2.3638,2.3595,2.3251,2.3161,2.3281,2.3254,2.3353,2.3773,2.4508,2.5295,2.5567,2.6304,2.6978,2.7561,2.8271,2.9118,3.0054,3.0375,3.0531,3.0497,3.048,3.0192,3.004,3.0006,3.026,3.0446,3.0446,3.0311,3.0159,3.0091,2.9347,2.8501,2.8789,2.9008,2.9127,2.9214,2.9265,2.918,2.9166,2.9231,2.9493,2.997,3.0391,3.0577,3.0668,3.0731,3.0948,3.1093,3.1265,3.1588,3.1635,3.1604,3.1696,3.1363,3.0681,3.04,3.0214,2.985,2.9092,2.8826,2.9505,3.0064,3.0478,3.0867,3.1271,3.1561,3.1524,3.1396,3.0864,3.0345,3.0393,3.0405,3.041,3.036,3.0396,3.0298,3.0054,2.9621,2.9432,2.9678,3.0015,3.0485,3.0836,3.0839,3.1057,3.1597,3.2359,3.3023,3.3827,3.3392,3.3215,3.3753,3.3573,3.2501,3.2458,3.3184,3.349,3.4082,3.456,3.4999,3.5037,3.4942,3.4999,3.5037,3.5114,2.1431,2.2587,2.3298,2.3595,2.3595,2.3595,2.3595,2.3595,2.3595,2.3595,2.3595,2.3595,2.349,2.34,2.3505,2.3516,2.3513,2.3824,2.4743,2.5682,2.571,2.6382,2.7102,2.7724,2.8104,2.8806,2.9615,3.0185,3.0251,3.056,3.0632,3.0142,2.9448,2.9533,3.0006,3.0108,3.0006,3.0159,3.0328,3.0209,3.0108,2.9651,2.9753,2.9871,2.9888,3.0277,3.0446,3.0159,2.9959,2.9932,3.0086,3.0543,3.0991,3.1271,3.1245,3.1436,3.1653,3.1823,3.2007,3.2217,3.2183,3.2077,3.2019,3.1651,3.1231,3.1216,3.1127,3.1272,3.061,3.0007,3.0446,3.0924,3.1374,3.1771,3.2146,3.2237,3.2245,3.1798,3.1305,3.1287,3.1425,3.15,3.1628,3.171,3.1929,3.1792,3.161,3.1121,3.035,3.045,3.0604,3.1011,3.1455,3.2488,3.316,3.3161,3.3749,3.4275,3.4472,3.4128,3.4139,3.4721,3.4292,3.2974,3.3318,3.4197,3.4407,3.4063,3.435,3.477,3.5037,3.5133,3.519,3.519,3.519]},{"header":{"parameterUnit":"m.s-1","parameterCategory":1,"la1":31.0,"la2":29.5877,"lo1":-88.7671,"lo2":-86.6584,"dy":0.0162,"dx":0.0185,"nx":115,"ny":88,"refTime":"2023-11-22T06:00:00:Z","depth":0,"parameterNumber":3,"parameterNumberName":"V-component_of_WINDS"},"data":[0.0,0.0,0.0,0.0,0.0,0.0,0.0,0.0,0.0,0.0,0.0,0.0,0.0,0.0,0.0,0.0,0.0,0.0,0.0,0.0,0.0,0.0,0.0,0.0,0.0,0.0,0.0,0.0,0.0,0.0,0.0,0.0,0.0,0.0,0.0,0.0,0.0,0.0,0.0,0.0,0.0,0.0,0.0,0.0,0.0,0.0,0.0,0.0,0.0,0.0,0.0,0.0,0.0,0.0,0.0,0.0,0.0,0.0,0.0,0.0,0.0,0.0,0.0,0.0,0.0,0.0,0.0,0.0,0.0,0.0,0.0,0.0,0.0,0.0,0.0,0.0,0.0,0.0,0.0,0.0,0.0,0.0,0.0,0.0,0.0,0.0,0.0,0.0,0.0,0.0,0.0,0.0,0.0,0.0,0.0,0.0,0.0,0.0,0.0,0.0,0.0,0.0,0.0,0.0,0.0,0.0,0.0,0.0,0.0,0.0,0.0,0.0,0.0,0.0,0.0,0.0,0.0,0.0,0.0,0.0,0.0,0.0,0.0,0.0,0.0,0.0,0.0,0.0,0.0,0.0,0.0,0.0,0.0,0.0,0.0,0.0,0.0,0.0,0.0,0.0,0.0,0.0,0.0,0.0,0.0,0.0,0.0,0.0,0.0,0.0,0.0,0.0,0.0,0.0,0.0,0.0,0.0,0.0,0.0,0.0,0.0,0.0,0.0,0.0,0.0,0.0,0.0,0.0,0.0,0.0,0.0,0.0,0.0,0.0,0.0,0.0,0.0,0.0,0.0,0.0,0.0,0.0,0.0,0.0,0.0,0.0,0.0,0.0,0.0,0.0,0.0,0.0,0.0,0.0,0.0,0.0,0.0,0.0,0.0,0.0,0.0,0.0,0.0,0.0,0.0,0.0,0.0,0.0,0.0,0.0,0.0,0.0,0.0,0.0,0.0,0.0,0.0,0.0,0.0,0.0,0.0,0.0,0.0,0.0,0.0,0.0,0.0,0.0,0.0,0.0,0.0,0.0,0.0,0.0,0.0,0.0,0.0,0.0,0.0,0.0,0.0,0.0,0.0,0.0,0.0,0.0,0.0,0.0,0.0,0.0,0.0,0.0,0.0,0.0,0.0,0.0,0.0,0.0,0.0,0.0,0.0,0.0,0.0,0.0,0.0,0.0,0.0,0.0,0.0,0.0,0.0,0.0,0.0,0.0,0.0,0.0,0.0,0.0,0.0,0.0,0.0,0.0,0.0,0.0,0.0,0.0,0.0,0.0,0.0,0.0,0.0,0.0,0.0,0.0,0.0,0.0,0.0,0.0,0.0,0.0,0.0,0.0,0.0,0.0,0.0,0.0,0.0,0.0,0.0,0.0,0.0,0.0,0.0,0.0,0.0,0.0,0.0,0.0,0.0,0.0,0.0,0.0,0.0,0.0,0.0,0.0,0.0,0.0,0.0,0.0,0.0,0.0,0.0,0.0,0.0,0.0,0.0,0.0,0.0,0.0,0.0,0.0,0.0,0.0,0.0,0.0,0.0,0.0,0.0,0.0,0.0,0.0,0.0,0.0,0.0,0.0,0.0,0.0,0.0,0.0,0.0,0.0,0.0,0.0,0.0,0.0,0.0,0.0,0.0,0.0,0.0,0.0,0.0,0.0,0.0,0.0,0.0,0.0,0.0,0.0,0.0,0.0,0.0,0.0,0.0,0.0,0.0,0.0,0.0,0.0,0.0,0.0,0.0,0.0,0.0,0.0,0.0,0.0,0.0,0.0,0.0,0.0,0.0,0.0,0.0,0.0,0.0,0.0,0.0,0.0,0.0,0.0,0.0,0.0,0.0,0.0,0.0,0.0,0.0,0.0,0.0,0.0,0.0,0.0,0.0,0.0,0.0,0.0,0.0,0.0,0.0,0.0,0.0,0.0,0.0,0.0,0.0,0.0,0.0,0.0,0.0,0.0,0.0,0.0,0.0,0.0,0.0,0.0,0.0,0.0,0.0,0.0,0.0,0.0,0.0,0.0,0.0,0.0,0.0,0.0,0.0,0.0,0.0,0.0,0.0,0.0,0.0,0.0,0.0,0.0,0.0,0.0,0.0,0.0,0.0,0.0,0.0,0.0,0.0,0.0,0.0,0.0,0.0,0.0,0.0,0.0,0.0,0.0,0.0,0.0,0.0,0.0,0.0,0.0,0.0,0.0,0.0,0.0,0.0,0.0,0.0,0.0,0.0,0.0,0.0,0.0,0.0,0.0,0.0,0.0,0.0,0.0,0.0,0.0,0.0,0.0,0.0,0.0,0.0,0.0,0.0,0.0,0.0,0.0,0.0,0.0,0.0,0.0,0.0,0.0,0.0,0.0,0.0,0.0,0.0,0.0,0.0,0.0,0.0,0.0,0.0,0.0,0.0,0.0,0.0,0.0,0.0,0.0,0.0,0.0,0.0,0.0,0.0,0.0,0.0,0.0,0.0,0.0,0.0,0.0,0.0,0.0,0.0,0.0,0.0,0.0,0.0,0.0,0.0,0.0,0.0,0.0,0.0,0.0,0.0,0.0,0.0,0.0,0.0,0.0,0.0,0.0,0.0,0.0,0.0,0.0,0.0,0.0,0.0,0.0,0.0,0.0,0.0,0.0,0.0,0.0,0.0,0.0,0.0,0.0,0.0,0.0,0.0,0.0,0.0,0.0,0.0,0.0,0.0,0.0,0.0,0.0,0.0,0.0,0.0,0.0,0.0,0.0,0.0,0.0,0.0,0.0,0.0,0.0,0.0,0.0,0.0,0.0,0.0,0.0,0.0,0.0,0.0,0.0,0.0,0.0,0.0,0.0,0.0,0.0,0.0,0.0,0.0,0.0,0.0,0.0,0.0,0.0,0.0,0.0,0.0,0.0,0.0,0.0,0.0,0.0,0.0,0.0,0.0,0.0,0.0,0.0,0.0,0.0,0.0,0.0,0.0,0.0,0.0,0.0,0.0,0.0,0.0,0.0,0.0,0.0,0.0,0.0,0.0,0.0,0.0,0.0,0.0,0.0,0.0,0.0,0.0,0.0,0.0,0.0,0.0,0.0,0.0,0.0,0.0,0.0,0.0,0.0,0.0,0.0,0.0,0.0,0.0,0.0,0.0,0.0,0.0,0.0,0.0,0.0,0.0,0.0,0.0,0.0,0.0,0.0,0.0,0.0,0.0,0.0,0.0,0.0,0.0,0.0,0.0,0.0,0.0,0.0,0.0,0.0,0.0,0.0,0.0,0.0,0.0,0.0,0.0,0.0,0.0,0.0,0.0,0.0,0.0,0.0,0.0,0.0,0.0,0.0,0.0,0.0,0.0,0.0,0.0,0.0,0.0,0.0,0.0,0.0,0.0,0.0,0.0,0.0,0.0,0.0,0.0,0.0,0.0,0.0,0.0,0.0,0.0,0.0,0.0,0.0,0.0,0.0,0.0,0.0,0.0,0.0,0.0,0.0,0.0,0.0,0.0,0.0,0.0,0.0,0.0,0.0,0.0,0.0,0.0,0.0,0.0,0.0,0.0,0.0,0.0,0.0,0.0,0.0,0.0,0.0,0.0,0.0,0.0,0.0,0.0,0.0,0.0,0.0,0.0,0.0,0.0,0.0,0.0,0.0,0.0,0.0,0.0,0.0,0.0,0.0,0.0,0.0,0.0,0.0,0.0,0.0,0.0,0.0,0.0,0.0,0.0,0.0,0.0,0.0,0.0,0.0,0.0,0.0,0.0,0.0,0.0,0.0,0.0,0.0,0.0,0.0,0.0,0.0,0.0,0.0,0.0,0.0,0.0,0.0,0.0,0.0,0.0,0.0,0.0,0.0,0.0,0.0,0.0,0.0,0.0,0.0,0.0,0.0,0.0,0.0,0.0,0.0,0.0,0.0,0.0,0.0,0.0,0.0,0.0,0.0,0.0,0.0,0.0,0.0,0.0,0.0,0.0,0.0,0.0,0.0,0.0,0.0,0.0,0.0,0.0,0.0,0.0,0.0,0.0,0.0,0.0,0.0,0.0,0.0,0.0,0.0,0.0,0.0,0.0,0.0,0.0,0.0,0.0,0.0,0.0,0.0,0.0,0.0,0.0,0.0,0.0,0.0,0.0,0.0,0.0,0.0,0.0,0.0,0.0,0.0,0.0,0.0,0.0,0.0,0.0,0.0,0.0,0.0,0.0,0.0,0.0,0.0,0.0,0.0,0.0,0.0,0.0,0.0,0.0,0.0,0.0,0.0,0.0,0.0,0.0,0.0,0.0,0.0,0.0,0.0,0.0,0.0,-0.3309,0.0,0.0,0.0,0.0,0.0,0.0,0.0,0.0,0.0,0.0,0.0,0.0,0.0,0.0,0.0,0.0,0.0,0.0,0.0,0.0,0.0,0.0,0.0,0.0,0.0,0.0,0.0,0.0,0.0,0.0,0.0,0.0,0.0,0.0,0.0,0.0,0.0,0.0,0.0,0.0,0.0,0.0,0.0,0.0,0.0,0.0,0.0,0.0,0.0,0.0,0.0,0.0,0.0,0.0,0.0,0.0,0.0,0.0,0.0,0.0,0.0,0.0,0.0,0.0,0.0,0.0,0.0,0.0,0.0,0.0,0.0,0.0,0.0,0.0,0.0,0.0,0.0,0.0,0.0,0.0,0.0,0.0,0.0,0.0,0.0,0.0,0.0,0.0,0.0,0.0,0.0,0.0,0.0,0.0,0.0,0.0,0.0,0.0,0.0,0.0,0.0,0.0,0.0,0.0,0.0,0.0,0.0,0.0,0.0,0.0,-0.3554,-0.348,-0.3619,-0.3626,-0.348,0.0,0.0,0.0,0.0,0.0,0.0,0.0,0.0,0.0,0.0,0.0,0.0,0.0,0.0,0.0,0.0,0.0,0.0,0.0,0.0,0.0,0.0,0.0,0.0,0.0,0.0,0.0,0.0,0.0,0.0,0.0,0.0,0.0,0.0,0.0,0.0,0.0,0.0,0.0,0.0,0.0,0.0,0.0,0.0,0.0,0.0,0.0,0.0,0.0,0.0,0.0,0.0,0.0,0.0,0.0,0.0,0.0,0.0,0.0,0.0,0.0,0.0,0.0,0.0,0.0,0.0,0.0,0.0,0.0,0.0,0.0,0.0,0.0,0.0,0.0,0.0,0.0,0.0,0.0,0.0,0.0,0.0,0.0,0.0,0.0,0.0,0.0,0.0,0.0,0.0,0.0,0.0,0.0,0.0,0.0,0.0,0.0,0.0,0.0,0.0,0.0,0.0,0.0,0.0,0.0,0.0,0.0,0.0,0.0,0.0,0.0,0.0,-0.3822,-0.386,-0.3687,0.0,0.0,0.0,0.0,0.0,0.0,0.0,0.0,0.0,0.0,0.0,0.0,0.0,0.0,0.0,0.0,0.0,0.0,0.0,0.0,0.0,0.0,0.0,0.0,0.0,0.0,0.0,0.0,0.0,0.0,0.0,0.0,0.0,0.0,0.0,0.0,0.0,0.0,0.0,0.0,0.0,0.0,0.0,0.0,0.0,0.0,0.0,0.0,0.0,0.0,0.0,0.0,0.0,0.0,0.0,0.0,0.0,0.0,0.0,0.0,0.0,0.0,0.0,0.0,0.0,0.0,0.0,0.0,0.0,0.0,0.0,0.0,0.0,0.0,0.0,0.0,0.0,0.0,0.0,0.0,0.0,0.0,0.0,0.0,0.0,0.0,0.0,0.0,0.0,0.0,0.0,0.0,0.0,0.0,0.0,0.0,0.0,0.0,0.0,0.0,0.0,0.0,0.0,0.0,0.0,0.0,0.0,0.0,0.0,0.0,-0.333,-0.3852,-0.411,0.0,-0.3946,0.0,0.0,0.0,0.0,0.0,0.0,0.0,0.0,0.0,0.0,0.0,0.0,0.0,0.0,0.0,0.0,0.0,0.0,0.0,0.0,0.0,0.0,0.0,0.0,0.0,0.0,0.0,0.0,0.0,0.0,0.0,0.0,0.0,0.0,0.0,0.0,0.0,0.0,0.0,0.0,0.0,0.0,0.0,0.0,0.0,0.0,0.0,0.0,0.0,0.0,0.0,0.0,0.0,0.0,0.0,0.0,0.0,0.0,0.0,0.0,0.0,0.0,0.0,0.0,0.0,0.0,0.0,0.0,0.0,0.0,0.0,0.0,0.0,0.0,0.0,0.0,0.0,0.0,0.0,0.0,0.0,0.0,0.0,0.0,0.0,0.0,0.0,0.0,0.0,0.0,0.0,0.0,0.0,0.0,0.0,0.0,0.0,0.0,0.0,0.0,0.0,0.0,0.0,0.0,0.0,0.0,0.0,0.0,0.0,0.0,-0.3437,-0.3862,-0.4141,-0.426,0.0,0.0,0.0,0.0,0.0,0.0,0.0,0.0,0.0,0.0,0.0,0.0,0.0,0.0,0.0,0.0,0.0,0.0,0.0,0.0,0.0,0.0,0.0,0.0,0.0,0.0,0.0,0.0,0.0,0.0,0.0,0.0,0.0,0.0,0.0,0.0,0.0,0.0,0.0,0.0,0.0,0.0,0.0,0.0,0.0,0.0,0.0,0.0,0.0,0.0,0.0,0.0,0.0,0.0,0.0,0.0,0.0,0.0,0.0,0.0,0.0,0.0,0.0,0.0,0.0,0.0,0.0,0.0,0.0,0.0,0.0,0.0,0.0,0.0,0.0,0.0,0.0,0.0,0.0,0.0,0.0,0.0,0.0,0.0,0.0,0.0,0.0,0.0,0.0,0.0,0.0,0.0,0.0,0.0,0.0,0.0,0.0,0.0,0.0,0.0,0.0,0.0,0.0,0.0,0.0,0.0,0.0,0.0,0.0,0.0,-0.3324,-0.3643,-0.4119,-0.4333,-0.4432,-0.4445,0.0,0.0,0.0,0.0,0.0,0.0,0.0,0.0,0.0,0.0,0.0,0.0,0.0,0.0,0.0,0.0,0.0,0.0,0.0,0.0,0.0,0.0,0.0,0.0,0.0,0.0,0.0,0.0,0.0,0.0,0.0,0.0,0.0,0.0,0.0,0.0,0.0,0.0,0.0,0.0,0.0,0.0,0.0,0.0,0.0,0.0,0.0,0.0,0.0,0.0,0.0,0.0,0.0,0.0,0.0,0.0,0.0,0.0,0.0,0.0,0.0,0.0,0.0,0.0,0.0,0.0,0.0,0.0,0.0,0.0,0.0,0.0,0.0,0.0,0.0,0.0,0.0,0.0,0.0,0.0,0.0,0.0,0.0,0.0,0.0,0.0,0.0,0.0,0.0,0.0,0.0,0.0,0.0,0.0,0.0,0.0,0.0,0.0,0.0,0.0,0.0,0.0,0.0,0.0,0.0,0.0,0.0,0.0,-0.3704,-0.3542,-0.3884,-0.4905,-0.483,-0.4831,0.0,0.0,0.0,0.0,0.0,0.0,0.0,0.0,0.0,0.0,0.0,0.0,0.0,0.0,0.0,0.0,0.0,0.0,0.0,0.0,0.0,0.0,0.0,0.0,0.0,0.0,0.0,0.0,0.0,0.0,0.0,0.0,0.0,0.0,0.0,0.0,0.0,0.0,0.0,0.0,0.0,0.0,0.0,0.0,0.0,0.0,0.0,0.0,0.0,0.0,0.0,0.0,0.0,0.0,0.0,0.0,0.0,0.0,0.0,0.0,0.0,0.0,0.0,0.0,0.0,0.0,0.0,0.0,0.0,0.0,0.0,0.0,0.0,0.0,0.0,0.0,0.0,0.0,0.0,0.0,0.0,0.0,0.0,0.0,0.0,0.0,0.0,0.0,0.0,0.0,0.0,0.0,0.0,0.0,0.0,0.0,0.0,0.0,0.0,0.0,0.0,0.0,0.0,0.0,0.0,0.0,0.0,0.0,0.0,-0.351,-0.3682,-0.3993,-0.4568,-0.4613,-0.475,0.0,0.0,0.0,0.0,0.0,0.0,0.0,0.0,0.0,0.0,0.0,0.0,0.0,0.0,0.0,0.0,0.0,0.0,0.0,0.0,0.0,0.0,0.0,0.0,0.0,0.0,0.0,0.0,0.0,0.0,0.0,0.0,0.0,0.0,0.0,0.0,0.0,0.0,0.0,0.0,0.0,0.0,0.0,0.0,0.0,0.0,0.0,0.0,0.0,0.0,0.0,0.0,0.0,0.0,0.0,0.0,0.0,0.0,0.0,0.0,0.0,0.0,0.0,0.0,0.0,0.0,0.0,0.0,0.0,0.0,0.0,0.0,0.0,0.0,0.0,0.0,0.0,0.0,0.0,0.0,0.0,0.0,0.0,0.0,0.0,0.0,0.0,0.0,0.0,0.0,0.0,0.0,0.0,0.0,0.0,0.0,0.0,0.0,0.0,0.0,0.0,0.0,0.0,0.0,0.0,0.0,0.0,0.0,0.0,-0.3745,0.0,-0.4293,-0.4445,-0.4519,-0.4688,0.0,0.0,0.0,0.0,0.0,0.0,0.0,0.0,0.0,0.0,0.0,0.0,0.0,0.0,0.0,0.0,0.0,0.0,0.0,0.0,0.0,0.0,0.0,0.0,0.0,0.0,0.0,0.0,0.0,0.0,0.0,0.0,0.0,0.0,0.0,0.0,0.0,0.0,0.0,0.0,0.0,0.0,0.0,0.0,0.0,0.0,0.0,0.0,0.0,0.0,0.0,0.0,0.0,0.0,0.0,0.0,0.0,0.0,0.0,0.0,0.0,0.0,0.0,0.0,0.0,0.0,0.0,0.0,0.0,0.0,0.0,0.0,0.0,0.0,0.0,0.0,0.0,0.0,0.0,0.0,0.0,0.0,0.0,0.0,0.0,0.0,0.0,0.0,0.0,0.0,0.0,0.0,0.0,0.0,0.0,0.0,0.0,0.0,0.0,0.0,0.0,0.0,0.0,0.0,0.0,0.0,0.0,0.0,-0.3617,-0.4417,-0.476,-0.476,-0.4494,-0.4656,-0.4643,0.0,0.0,0.0,0.0,0.0,0.0,0.0,0.0,0.0,0.0,0.0,0.0,0.0,0.0,0.0,0.0,0.0,0.0,0.0,0.0,0.0,0.0,0.0,0.0,0.0,0.0,0.0,0.0,0.0,0.0,0.0,0.0,0.0,0.0,0.0,0.0,0.0,0.0,0.0,0.0,0.0,0.0,0.0,0.0,0.0,0.0,0.0,0.0,0.0,0.0,0.0,0.0,0.0,0.0,0.0,0.0,0.0,0.0,0.0,0.0,0.0,0.0,0.0,0.0,0.0,0.0,0.0,0.0,0.0,0.0,0.0,0.0,0.0,0.0,0.0,0.0,0.0,0.0,0.0,0.0,0.0,0.0,0.0,0.0,0.0,0.0,0.0,0.0,0.0,0.0,0.0,0.0,0.0,0.0,0.0,0.0,0.0,0.0,0.0,0.0,0.0,0.0,0.0,0.0,0.0,0.0,0.0,0.0,0.0,-0.3885,-0.4002,-0.3978,-0.3848,-0.3749,-0.3887,0.0,0.0,0.0,0.0,0.0,0.0,0.0,0.0,0.0,0.0,0.0,0.0,0.0,0.0,0.0,0.0,0.0,0.0,0.0,0.0,0.0,0.0,0.0,0.0,0.0,0.0,0.0,0.0,0.0,0.0,0.0,0.0,0.0,0.0,0.0,0.0,0.0,0.0,0.0,0.0,0.0,0.0,0.0,0.0,0.0,0.0,0.0,0.0,0.0,0.0,0.0,0.0,0.0,0.0,0.0,0.0,0.0,0.0,0.0,0.0,0.0,0.0,0.0,0.0,0.0,0.0,0.0,0.0,0.0,0.0,0.0,0.0,0.0,0.0,0.0,0.0,0.0,0.0,0.0,0.0,0.0,0.0,0.0,0.0,0.0,0.0,0.0,0.0,0.0,0.0,0.0,0.0,0.0,0.0,0.0,0.0,0.0,0.0,0.0,0.0,0.0,0.0,0.0,0.0,0.0,0.0,0.0,0.0,0.0,-0.3287,-0.3368,-0.3309,-0.2988,-0.2848,-0.319,-0.41,0.0,0.0,0.0,0.0,0.0,0.0,0.0,0.0,0.0,0.0,0.0,0.0,0.0,0.0,0.0,0.0,0.0,0.0,0.0,0.0,0.0,0.0,0.0,0.0,0.0,0.0,0.0,0.0,0.0,0.0,0.0,0.0,0.0,0.0,0.0,0.0,0.0,0.0,0.0,0.0,0.0,0.0,0.0,0.0,0.0,0.0,0.0,0.0,0.0,0.0,0.0,0.0,0.0,0.0,0.0,0.0,0.0,0.0,0.0,0.0,0.0,0.0,0.0,0.0,0.0,0.0,0.0,0.0,0.0,0.0,0.0,0.0,0.0,0.0,0.0,0.0,0.0,0.0,0.0,0.0,0.0,0.0,0.0,0.0,0.0,0.0,0.0,0.0,0.0,0.0,0.0,0.0,0.0,0.0,0.0,0.0,0.0,0.0,0.0,0.0,0.0,0.0,0.0,0.0,0.0,0.0,0.0,0.0,-0.2586,-0.2906,-0.2725,-0.204,-0.205,-0.2515,0.0,0.0,0.0,0.0,0.0,0.0,0.0,0.0,0.0,0.0,0.0,0.0,0.0,0.0,0.0,0.0,0.0,0.0,0.0,0.0,0.0,0.0,0.0,0.0,0.0,0.0,0.0,0.0,0.0,0.0,0.0,0.0,0.0,0.0,0.0,0.0,0.0,0.0,0.0,0.0,0.0,0.0,0.0,0.0,0.0,0.0,0.0,0.0,0.0,0.0,0.0,0.0,0.0,0.0,0.0,0.0,0.0,0.0,0.0,0.0,0.0,0.0,0.0,0.0,0.0,0.0,0.0,0.0,0.0,0.0,0.0,0.0,0.0,0.0,0.0,0.0,0.0,0.0,0.0,0.0,0.0,0.0,0.0,0.0,0.0,0.0,0.0,0.0,0.0,0.0,0.0,0.0,0.0,0.0,0.0,0.0,0.0,0.0,0.0,0.0,0.0,0.0,0.0,0.0,0.0,0.0,0.0,0.0,0.0,-0.1315,-0.1204,-0.1175,-0.1111,-0.1724,-0.2257,0.0,0.0,0.0,0.0,0.0,0.0,0.0,0.0,0.0,0.0,0.0,0.0,0.0,0.0,0.0,0.0,0.0,0.0,0.0,0.0,0.0,0.0,0.0,0.0,0.0,0.0,0.0,0.0,0.0,0.0,0.0,0.0,0.0,0.0,0.0,0.0,0.0,0.0,0.0,0.0,0.0,0.0,0.0,0.0,0.0,0.0,0.0,0.0,0.0,0.0,0.0,0.0,0.0,0.0,0.0,0.0,0.0,0.0,0.0,0.0,0.0,0.0,0.0,0.0,0.0,0.0,0.0,0.0,0.0,0.0,0.0,0.0,0.0,0.0,0.0,0.0,0.0,0.0,0.0,0.0,0.0,0.0,0.0,0.0,0.0,0.0,0.0,0.0,0.0,0.0,0.0,0.0,0.0,0.0,0.0,0.0,0.0,0.0,0.0,0.0,0.0,0.0,0.0,0.0,0.0,0.0,0.0,0.0,-0.2642,-0.0805,-0.0077,0.0244,0.0079,-0.0787,-0.1701,0.0,0.0,0.0,0.0,0.0,0.0,0.0,0.0,0.0,0.0,0.0,0.0,0.0,0.0,0.0,0.0,0.0,0.0,0.0,0.0,0.0,0.0,0.0,0.0,0.0,0.0,0.0,0.0,0.0,0.0,0.0,0.0,0.0,0.0,0.0,0.0,0.0,0.0,0.0,0.0,0.0,0.0,0.0,0.0,0.0,0.0,0.0,0.0,0.0,0.0,0.0,0.0,0.0,0.0,0.0,0.0,0.0,0.0,0.0,0.0,0.0,0.0,0.0,0.0,0.0,0.0,0.0,0.0,0.0,0.0,0.0,0.0,0.0,0.0,0.0,0.0,0.0,0.0,0.0,0.0,0.0,0.0,0.0,0.0,0.0,0.0,0.0,0.0,0.0,0.0,0.0,0.0,0.0,0.0,0.0,0.0,0.0,0.0,0.0,0.0,0.0,0.0,0.0,0.0,0.0,0.0,0.0,0.0,-0.2291,-0.0879,0.0626,0.1346,0.1265,0.0236,-0.0994,0.0,0.0,0.0,0.0,0.0,0.0,0.0,0.0,0.0,0.0,0.0,0.0,0.0,0.0,0.0,0.0,0.0,0.0,0.0,0.0,0.0,0.0,0.0,0.0,0.0,0.0,0.0,0.0,0.0,0.0,0.0,0.0,0.0,0.0,0.0,0.0,0.0,0.0,0.0,0.0,0.0,0.0,0.0,0.0,0.0,0.0,0.0,0.0,0.0,0.0,0.0,0.0,0.0,0.0,0.0,0.0,0.0,0.0,0.0,0.0,0.0,0.0,0.0,0.0,0.0,0.0,0.0,0.0,0.0,0.0,0.0,0.0,0.0,0.0,0.0,0.0,0.0,0.0,0.0,0.0,0.0,0.0,0.0,0.0,0.0,0.0,0.0,0.0,0.0,0.0,0.0,0.0,0.0,0.0,0.0,0.0,0.0,0.0,0.0,0.0,0.0,0.0,0.0,0.0,0.0,0.0,0.0,0.0,-0.2708,-0.0643,0.0706,0.1334,0.1379,0.0155,-0.0839,0.0,0.0,0.0,0.0,0.0,0.0,0.0,0.0,0.0,0.0,0.0,0.0,0.0,0.0,0.0,0.0,0.0,0.0,0.0,0.0,0.0,0.0,0.0,0.0,0.0,0.0,0.0,0.0,0.0,0.0,0.0,0.0,0.0,0.0,0.0,0.0,0.0,0.0,0.0,0.0,0.0,0.0,0.0,0.0,0.0,0.0,0.0,0.0,-0.5648,0.0,0.0,0.0,0.0,0.0,0.0,0.0,0.0,0.0,0.0,0.0,0.0,0.0,0.0,0.0,0.0,0.0,0.0,0.0,0.0,0.0,0.0,0.0,0.0,0.0,0.0,0.0,0.0,0.0,0.0,0.0,0.0,0.0,0.0,0.0,0.0,0.0,0.0,0.0,0.0,0.0,0.0,0.0,0.0,0.0,0.0,0.0,0.0,0.0,0.0,0.0,0.0,0.0,0.0,0.0,0.0,0.0,0.0,0.0,-0.1689,-0.056,0.069,0.1377,0.1569,0.0999,0.0,0.0,0.0,0.0,0.0,0.0,0.0,0.0,0.0,0.0,0.0,0.0,0.0,0.0,0.0,0.0,0.0,0.0,0.0,0.0,0.0,0.0,0.0,0.0,0.0,0.0,0.0,0.0,0.0,0.0,0.0,0.0,0.0,0.0,0.0,0.0,0.0,0.0,0.0,0.0,0.0,0.0,0.0,0.0,0.0,0.0,0.0,0.0,0.0,0.0,0.0,0.0,0.0,0.0,0.0,0.0,0.0,0.0,0.0,0.0,0.0,0.0,0.0,0.0,0.0,0.0,0.0,0.0,0.0,0.0,0.0,0.0,0.0,0.0,0.0,0.0,0.0,0.0,0.0,0.0,0.0,0.0,0.0,0.0,0.0,0.0,0.0,0.0,0.0,0.0,0.0,0.0,0.0,0.0,0.0,0.0,0.0,0.0,0.0,0.0,0.0,0.0,0.0,0.0,0.0,0.0,0.0,0.0,-0.1197,-0.0419,-0.0272,0.0743,0.1481,0.188,0.1807,0.0785,-0.1197,0.0,0.0,0.0,0.0,0.0,0.0,0.0,0.0,0.0,0.0,0.0,0.0,0.0,0.0,0.0,0.0,0.0,0.0,0.0,0.0,0.0,0.0,0.0,0.0,0.0,0.0,0.0,0.0,0.0,0.0,0.0,0.0,0.0,0.0,0.0,0.0,0.0,0.0,-0.3877,-0.3987,0.0,0.0,0.0,0.0,0.0,0.0,0.0,0.0,-0.4844,0.0,0.0,0.0,0.0,0.0,0.0,0.0,0.0,0.0,0.0,0.0,0.0,0.0,0.0,0.0,0.0,0.0,0.0,0.0,0.0,0.0,0.0,0.0,0.0,0.0,0.0,0.0,0.0,0.0,0.0,0.0,0.0,0.0,0.0,0.0,0.0,0.0,0.0,0.0,0.0,0.0,0.0,0.0,0.0,0.0,0.0,0.0,0.0,0.0,0.0,0.0,0.0,0.0,0.0,0.0,0.0,-0.3095,-0.141,-0.0122,0.0788,0.1024,0.1356,0.1873,0.1127,0.0262,-0.0771,0.0,0.0,0.0,0.0,0.0,0.0,0.0,0.0,0.0,0.0,0.0,0.0,0.0,0.0,0.0,0.0,0.0,0.0,0.0,0.0,0.0,0.0,0.0,0.0,0.0,0.0,0.0,0.0,0.0,0.0,0.0,0.0,0.0,0.0,0.0,0.0,0.0,0.0,0.0,-0.4364,-0.4352,0.0,0.0,0.0,0.0,0.0,0.0,0.0,0.0,-0.418,0.0,0.0,0.0,0.0,0.0,0.0,0.0,0.0,0.0,0.0,0.0,0.0,0.0,0.0,0.0,0.0,0.0,0.0,0.0,0.0,0.0,0.0,0.0,0.0,0.0,0.0,0.0,0.0,0.0,0.0,0.0,0.0,0.0,0.0,0.0,0.0,0.0,0.0,0.0,0.0,0.0,0.0,0.0,0.0,0.0,0.0,0.0,0.0,0.0,0.0,0.0,0.0,0.0,0.0,0.0,-0.2552,-0.1272,-0.0063,0.1067,0.1286,0.1672,0.2105,0.1548,0.0685,0.0,0.0,0.0,0.0,0.0,0.0,0.0,0.0,0.0,0.0,0.0,0.0,0.0,0.0,0.0,0.0,0.0,0.0,0.0,0.0,0.0,0.0,0.0,0.0,0.0,0.0,0.0,0.0,0.0,0.0,0.0,0.0,0.0,0.0,0.0,0.0,0.0,0.0,0.0,0.0,-0.4044,-0.3477,-0.327,0.0,0.0,0.0,0.0,0.0,0.0,-0.3975,-0.3878,0.0,0.0,0.0,0.0,0.0,0.0,0.0,0.0,0.0,0.0,0.0,0.0,0.0,0.0,0.0,0.0,0.0,0.0,0.0,0.0,0.0,0.0,0.0,0.0,0.0,0.0,0.0,0.0,0.0,0.0,0.0,0.0,0.0,0.0,0.0,0.0,0.0,0.0,0.0,0.0,0.0,0.0,0.0,0.0,0.0,0.0,0.0,0.0,0.0,0.0,0.0,0.0,0.0,0.0,0.0,-0.1942,-0.1046,-0.0,0.1038,0.146,0.1901,0.2377,0.1798,0.1006,0.0,0.0,0.0,0.0,0.0,0.0,0.0,0.0,0.0,0.0,0.0,0.0,0.0,0.0,0.0,0.0,0.0,0.0,0.0,0.0,0.0,0.0,0.0,0.0,0.0,0.0,0.0,0.0,0.0,0.0,0.0,0.0,0.0,0.0,0.0,0.0,0.0,0.0,0.0,0.0,0.0,-0.2639,-0.2226,-0.2481,0.0,0.0,0.0,0.0,-0.3333,-0.3371,0.0,0.0,0.0,0.0,0.0,0.0,0.0,0.0,0.0,0.0,0.0,0.0,0.0,0.0,0.0,0.0,0.0,0.0,0.0,0.0,0.0,0.0,0.0,0.0,0.0,0.0,0.0,0.0,0.0,0.0,0.0,0.0,0.0,0.0,0.0,0.0,0.0,0.0,0.0,0.0,0.0,0.0,0.0,0.0,0.0,0.0,0.0,0.0,0.0,0.0,0.0,0.0,0.0,0.0,0.0,0.0,-0.1365,-0.0732,0.0062,0.1078,0.142,0.1849,0.2248,0.0956,0.0218,0.0,0.0,0.0,0.0,0.0,0.0,0.0,0.0,0.0,0.0,0.0,0.0,0.0,0.0,0.0,0.0,0.0,0.0,0.0,0.0,0.0,0.0,0.0,0.0,0.0,0.0,0.0,0.0,0.0,0.0,0.0,0.0,0.0,0.0,0.0,0.0,0.0,0.0,0.0,0.0,0.0,-0.2734,-0.1631,-0.207,-0.257,0.0,0.0,-0.283,-0.3153,-0.232,0.0,0.0,0.0,0.0,0.0,0.0,0.0,0.0,0.0,0.0,0.0,0.0,0.0,0.0,0.0,0.0,0.0,0.0,0.0,0.0,0.0,0.0,0.0,0.0,0.0,0.0,0.0,0.0,0.0,0.0,0.0,0.0,0.0,0.0,0.0,0.0,0.0,0.0,0.0,0.0,0.0,0.0,0.0,0.0,0.0,0.0,0.0,0.0,0.0,0.0,0.0,0.0,0.0,0.0,0.0,-0.1871,-0.1311,-0.0355,0.0455,0.1077,0.1616,0.2046,0.2313,0.1277,0.0576,0.0,0.0,0.0,0.0,0.0,0.0,0.0,0.0,0.0,0.0,0.0,0.0,0.0,0.0,0.0,0.0,0.0,0.0,0.0,0.0,0.0,0.0,0.0,0.0,0.0,0.0,0.0,0.0,0.0,0.0,0.0,0.0,0.0,0.0,0.0,0.0,0.0,0.0,0.0,0.0,0.0,0.0,-0.1241,-0.1517,0.0,0.0,0.0,-0.2746,-0.2642,0.0,0.0,0.0,0.0,0.0,0.0,0.0,0.0,0.0,0.0,0.0,0.0,0.0,0.0,0.0,0.0,0.0,0.0,0.0,0.0,0.0,0.0,0.0,0.0,0.0,0.0,0.0,0.0,0.0,0.0,0.0,0.0,0.0,0.0,0.0,0.0,0.0,0.0,0.0,0.0,0.0,0.0,0.0,0.0,0.0,0.0,0.0,0.0,0.0,0.0,0.0,0.0,0.0,0.0,0.0,0.0,0.0,-0.1312,-0.0121,0.0798,0.1347,0.1952,0.2235,0.2329,0.179,0.0,0.0,0.0,0.0,0.0,0.0,0.0,0.0,0.0,0.0,0.0,0.0,0.0,0.0,0.0,0.0,0.0,0.0,0.0,0.0,0.0,0.0,0.0,0.0,0.0,0.0,0.0,-0.4136,0.0,0.0,0.0,0.0,0.0,0.0,0.0,0.0,0.0,0.0,0.0,0.0,0.0,0.0,-0.1002,-0.0954,-0.1032,-0.1111,0.0,0.0,-0.227,-0.1859,-0.1326,-0.0925,0.0,0.0,0.0,0.0,0.0,0.0,0.0,0.0,0.0,0.0,0.0,0.0,0.0,0.0,0.0,0.0,0.0,0.0,0.0,0.0,0.0,0.0,0.0,0.0,0.0,0.0,0.0,0.0,0.0,0.0,0.0,0.0,0.0,0.0,0.0,0.0,0.0,0.0,0.0,0.0,0.0,0.0,0.0,0.0,0.0,0.0,0.0,0.0,0.0,0.0,0.0,0.0,0.0,0.0,0.0,-0.1314,-0.0116,0.1022,0.2083,0.2153,0.2329,0.2594,0.2297,0.17,0.0,0.0,0.0,0.0,0.0,0.0,0.0,0.0,0.0,0.0,0.0,0.0,0.0,0.0,0.0,0.0,0.0,0.0,0.0,0.0,0.0,0.0,0.0,0.0,0.0,0.0,0.0,0.0,0.0,0.0,0.0,0.0,0.0,0.0,0.0,0.0,0.0,0.0,0.0,0.0,0.0,-0.1009,-0.0458,-0.0631,-0.0822,0.0,0.0,-0.0879,-0.0849,0.0262,0.0845,-0.0286,0.0,0.0,0.0,0.0,0.0,0.0,0.0,0.0,0.0,0.0,0.0,0.0,0.0,0.0,0.0,0.0,0.0,0.0,0.0,0.0,0.0,0.0,0.0,0.0,0.0,0.0,0.0,0.0,0.0,0.0,0.0,0.0,0.0,0.0,0.0,0.0,0.0,0.0,0.0,0.0,0.0,0.0,0.0,0.0,0.0,0.0,0.0,0.0,0.0,0.0,0.0,0.0,0.0,-0.084,-0.0,0.1214,0.2096,0.2614,0.2757,0.2743,0.2647,0.2381,0.1776,0.0,0.0,0.0,0.0,0.0,0.0,0.0,0.0,0.0,0.0,0.0,0.0,0.0,0.0,0.0,0.0,0.0,0.0,0.0,0.0,0.0,0.0,0.0,0.0,0.0,0.0,0.0,0.0,-0.2315,-0.2082,-0.2384,0.0,0.0,0.0,0.0,0.0,0.0,0.0,0.0,0.0,0.0,-0.0932,0.008,-0.0082,0.0,0.0,-0.0336,-0.0411,-0.0915,0.0083,0.0554,-0.0615,-0.0731,0.0,0.0,0.0,0.0,0.0,0.0,0.0,0.0,0.0,0.0,0.0,0.0,0.0,0.0,0.0,0.0,0.0,0.0,0.0,0.0,0.0,0.0,0.0,0.0,0.0,0.0,0.0,0.0,0.0,0.0,0.0,0.0,0.0,0.0,0.0,0.0,0.0,0.0,0.0,0.0,0.0,0.0,0.0,0.0,0.0,0.0,0.0,0.0,0.0,0.0,0.0,0.0,0.0317,0.0938,0.2199,0.2907,0.3075,0.3171,0.3027,0.2713,0.2621,0.2135,0.0,0.0,0.0,0.0,0.0,0.0,0.0,0.0,0.0,0.0,0.0,0.0,0.0,0.0,0.0,0.0,0.0,0.0,0.0,0.0,0.0,0.0,0.0,0.0,0.0,0.0,0.0,0.0,-0.2203,-0.204,-0.261,0.0,0.0,0.0,0.0,0.0,0.0,0.0,0.0,0.0,0.0,-0.0706,0.0082,0.0,-0.0083,-0.0084,-0.0248,-0.0569,-0.0966,-0.0315,0.0075,-0.068,0.0,0.0,0.0,0.0,0.0,0.0,0.0,0.0,0.0,0.0,0.0,0.0,0.0,0.0,0.0,0.0,0.0,0.0,0.0,0.0,0.0,0.0,0.0,0.0,0.0,0.0,0.0,-0.29,0.0,0.0,-0.3306,0.0,0.0,0.0,0.0,0.0,0.0,0.0,0.0,0.0,0.0,0.0,0.0,0.0,0.0,0.0,0.0,0.0,0.0,0.0,0.0,0.0,0.0,0.1225,0.1334,0.2511,0.3254,0.3456,0.3238,0.3013,0.2852,0.3238,0.2972,0.1866,0.0,0.0,0.0,0.0,0.0,0.0,0.0,0.0,0.0,0.0,0.0,0.0,0.0,0.0,0.0,0.0,0.0,0.0,0.0,0.0,0.0,0.0,0.0,0.0,0.0,0.0,-0.3129,-0.2387,-0.1985,0.0,0.0,0.0,0.0,0.0,0.0,0.0,0.0,0.0,0.0,-0.0888,-0.0321,-0.0395,-0.0401,-0.0242,0.0158,-0.0618,-0.1226,-0.1019,-0.0688,-0.0371,0.0,0.0,0.0,0.0,0.0,0.0,0.0,0.0,0.0,0.0,0.0,0.0,0.0,0.0,0.0,0.0,0.0,0.0,0.0,0.0,0.0,0.0,0.0,0.0,0.0,0.0,0.0,-0.0537,-0.0575,0.0,0.0,0.0,0.0,0.0,0.0,0.0,0.0,0.0,0.0,0.0,0.2821,0.4042,0.0,0.0,0.0,0.0,0.0,0.0,0.0,0.0,0.0,0.0,0.0,0.0,0.1904,0.2863,0.367,0.4044,0.4047,0.4095,0.4016,0.3816,0.3623,0.286,0.1462,0.0,0.0,0.0,0.0,0.0,0.0,0.0,0.0,0.0,0.0,0.0,0.0,0.0,0.0,0.0,0.0,0.0,0.0,0.0,0.0,0.0,0.0,0.0,0.0,0.0,-0.3541,0.0,0.0,0.0,0.0,0.0,0.0,0.0,0.0,0.0,0.0,0.0,-0.3191,-0.2014,-0.1758,-0.1365,-0.0459,-0.0309,-0.0156,0.0,0.0,0.0,0.0,0.0,0.0,0.0,0.0,0.0,0.0,0.0,0.0,0.0,0.0,-0.1716,-0.1909,-0.2309,-0.2702,-0.2991,0.0,0.0,0.0,0.0,0.0,0.0,0.0,0.0,0.0,0.0,0.0,0.0,0.0,0.0,0.1816,0.0,0.1344,0.0,0.0,0.0,0.0,0.0,0.0,0.0,0.0,0.3173,0.4105,0.4585,0.574,0.5774,0.0,0.5139,0.418,0.0,0.0,0.0,0.0,0.0,0.0,0.0,0.0,0.2177,0.3277,0.4013,0.4339,0.4274,0.4446,0.4449,0.4222,0.3735,0.3137,0.2455,0.1741,0.0948,0.0,0.0,0.0,0.0,0.0,0.0,0.0,0.0,0.0,0.0,0.0,0.0,0.0,0.0,0.0,0.0,0.0,0.0,0.0,0.0,0.0,0.0,0.0,-0.2869,0.0,0.0,0.0,0.0,0.0,0.0,0.0,0.0,0.0,-0.3275,-0.3597,-0.3522,-0.264,-0.1721,-0.1052,-0.0665,0.0,0.0,0.0,0.0,0.0,0.0,0.0,-0.0781,-0.0995,-0.0996,-0.0859,-0.0583,-0.0456,-0.0623,-0.1137,0.0,0.0,-0.2048,-0.2377,-0.2685,-0.2944,-0.3151,-0.3231,-0.3227,-0.3072,-0.2861,0.0,0.0,0.0,0.0,0.0,0.0,0.0,0.0,0.5328,0.4274,0.0,0.3483,0.0,0.0,0.0,0.0,0.0,0.1741,0.0,0.0,0.6434,0.7246,0.6237,0.671,0.6967,0.6899,0.6216,0.5904,0.5831,0.3006,0.0,0.0,0.0,0.0,0.0,0.0,0.2107,0.2623,0.3655,0.4193,0.4258,0.4435,0.4384,0.4033,0.3638,0.3802,0.4508,0.2921,0.2055,0.219,0.0214,0.0,0.0,0.0,0.0,0.0,0.0,0.0,0.0,0.0,0.0,0.0,0.0,0.0,0.0,0.0,0.0,0.0,0.0,0.0,0.0,-0.2507,0.0,0.0,0.0,0.0,0.0,0.0,0.0,0.0,0.0,0.0,-0.3208,-0.3612,-0.3825,-0.3612,0.0,0.0,0.0,0.0,0.0075,-0.1723,-0.1971,-0.1833,-0.1766,-0.0934,-0.0074,0.0388,0.0,0.0,0.0712,0.0079,-0.0463,-0.086,-0.1205,-0.1739,-0.2419,-0.2816,-0.3129,-0.3121,-0.3491,-0.3777,-0.3756,-0.3238,-0.3045,0.8873,0.0,0.0,0.0,0.0,0.5603,0.6691,0.8479,0.814,0.7895,0.758,0.6749,0.0,0.0,0.0,0.0,0.0,0.0,0.3743,0.538,0.6248,0.71,0.7935,0.8128,0.8164,0.8152,0.7563,0.7327,0.7292,0.5729,0.3652,0.1253,0.0,0.0,0.0,0.0,0.3549,0.3917,0.459,0.4897,0.4736,0.4838,0.4786,0.4522,0.4079,0.3799,0.3747,0.3452,0.2696,0.1608,0.1624,0.0,0.0,0.0,0.0,0.0,0.0,0.0,0.0,0.0,0.0,0.0,0.0,0.0,0.0,0.0,0.0,0.0,0.0,0.0,-0.2237,-0.1609,-0.14,0.0,0.0,0.0,0.0,0.0,0.0,0.0,0.0,0.0,-0.1802,-0.3257,-0.405,0.0,0.0,-0.1957,-0.1862,-0.1165,-0.0633,-0.0775,-0.0435,0.0,0.0,0.0464,0.0771,0.0469,0.1045,0.1388,0.0967,0.1305,0.1311,0.016,-0.0241,-0.0806,-0.1779,-0.2366,-0.2689,-0.2683,-0.2806,-0.2762,-0.2277,-0.1816,-0.1292,1.3842,1.202,0.889,0.8039,0.8679,0.8695,0.9681,1.1365,1.0952,1.0467,0.9976,0.9365,0.7494,0.4683,0.3517,0.0,0.0,0.0,0.4969,0.6832,0.6837,0.7343,0.8351,0.8369,0.8369,0.8351,0.8051,0.7901,0.7889,0.674,0.5306,0.3442,0.0,0.0,0.2923,0.3998,0.4664,0.4898,0.4957,0.4952,0.4901,0.5073,0.5073,0.4857,0.4411,0.4018,0.3685,0.3852,0.3289,0.1943,0.2486,0.1937,0.0,0.0,0.0,0.0,0.0,0.0,0.0,0.0,0.0,0.0,0.0,-0.3508,-0.351,0.0,0.0,0.0,-0.3346,-0.2593,-0.0982,-0.1066,0.0,0.0,0.0,0.0,0.0,0.0,0.0,-0.1854,-0.2116,-0.1816,-0.0612,-0.1245,-0.1481,-0.0655,-0.0571,-0.0553,-0.0467,0.0,0.0357,0.0215,0.0222,0.0306,0.0393,0.0944,0.134,0.1367,0.1859,0.2021,0.1684,0.1933,0.1852,0.0876,0.0315,-0.0156,-0.1013,-0.1693,-0.2219,-0.2392,-0.2455,-0.2276,-0.1871,-0.1332,-0.0804,1.8172,1.8248,1.1935,1.038,1.1956,1.1971,1.2798,1.417,1.3564,1.2344,1.0795,1.1272,0.9337,0.5562,0.4286,0.0,0.5411,0.5723,0.6618,0.7949,0.7901,0.7901,0.7955,0.7955,0.7901,0.7907,0.7901,0.7901,0.7877,0.6784,0.6185,0.6047,0.4687,0.3953,0.3989,0.4841,0.5358,0.5435,0.482,0.4656,0.4901,0.5128,0.5242,0.5073,0.4684,0.4291,0.395,0.4021,0.3747,0.2956,0.2873,0.2507,0.1784,0.0,0.0,0.0,0.0,0.0,0.0,0.0,0.0,0.0,0.0,0.0,0.0,0.0,0.0,0.0,-0.132,0.0,0.0774,-0.0496,0.0,0.0,0.0,-0.0216,0.0983,0.108,0.1001,0.0727,0.0,0.0,0.0467,0.164,0.2574,0.3084,0.3343,0.3086,0.2245,0.2446,0.2355,0.114,0.0442,-0.0,0.0154,0.0854,0.1745,0.2459,0.3027,0.2948,0.2501,0.2149,0.1724,0.1252,0.0729,0.0219,-0.0219,-0.0876,-0.161,-0.2161,-0.2291,-0.2264,-0.2247,-0.1778,-0.1187,1.871,1.8639,1.6684,1.6094,1.6438,1.6124,1.5833,1.5521,1.5098,1.4421,1.3574,1.2434,1.0646,0.8292,0.7744,0.739,0.7263,0.778,0.822,0.8567,0.8109,0.8156,0.8573,0.8109,0.8008,0.8121,0.7955,0.7955,0.8109,0.7664,0.7025,0.6116,0.575,0.4879,0.3649,0.4812,0.4972,0.4022,0.4491,0.4804,0.5058,0.5128,0.5073,0.4956,0.4522,0.4076,0.3566,0.3405,0.3188,0.28,0.3185,0.3146,0.2505,0.1666,0.0,0.0,0.0,0.0,0.0,0.0,0.0,0.0,0.0,-0.2824,-0.2896,0.0,-0.3368,0.0,-0.0686,0.1139,0.2168,0.1664,0.0,0.0,0.113,0.0921,0.1099,0.1744,0.1741,0.0643,0.0841,0.1306,0.1934,0.2554,0.3382,0.4468,0.3151,0.1958,0.201,0.2516,0.2569,0.1791,0.2003,0.2075,0.1115,0.1422,0.2033,0.2876,0.3045,0.2987,0.2821,0.2953,0.2863,0.2114,0.1673,0.1237,0.0654,-0.0215,-0.0914,-0.1324,-0.185,-0.2305,-0.2218,-0.1773,-0.1141,1.9147,1.9168,1.8856,1.8555,1.826,1.7484,1.6596,1.5737,1.5396,1.4818,1.4171,1.2664,1.1238,1.002,0.9436,0.8988,0.8679,0.8988,0.9145,0.9145,0.8573,0.8626,0.9249,0.8672,0.8474,0.8639,0.8533,0.8374,0.8221,0.8062,0.7635,0.689,0.6884,0.6139,0.4634,0.4612,0.4235,0.357,0.4139,0.4671,0.5054,0.5069,0.4754,0.4193,0.3921,0.3279,0.2238,0.2358,0.2139,0.153,0.229,0.25,0.1938,0.1511,0.106,0.0,0.0,0.0,0.0,0.0,0.0,0.0,0.0,0.0,0.0,0.0,-0.173,-0.1074,0.0604,0.1844,0.23,0.2069,0.1962,0.2164,0.2181,0.2259,0.255,0.307,0.3105,0.2278,0.2654,0.3039,0.3281,0.3786,0.433,0.5098,0.4138,0.3471,0.3619,0.3668,0.3409,0.2677,0.2661,0.2478,0.1397,0.1611,0.2041,0.2607,0.284,0.2935,0.3075,0.3089,0.2906,0.2486,0.212,0.1763,0.1356,0.0746,0.0067,-0.0459,-0.1006,-0.1559,-0.1896,-0.1814,-0.1407,1.9588,1.9767,1.9532,1.9113,1.8588,1.7308,1.6262,1.546,1.5042,1.439,1.3588,1.2289,1.1461,1.0947,1.0076,0.9658,0.9614,0.9666,0.9718,0.9718,0.919,0.9295,0.9917,0.9399,0.919,0.9316,0.9204,0.8876,0.8271,0.8203,0.7953,0.7647,0.767,0.7059,0.5874,0.4315,0.3551,0.351,0.3856,0.4349,0.4884,0.4739,0.4115,0.3164,0.3116,0.2382,0.0847,0.1273,0.1117,0.0135,0.1023,0.1448,0.1071,0.0787,0.0656,0.0,-0.0144,0.0,0.0,0.0,0.0,0.0,0.0,0.0,0.0,-0.0602,0.0546,0.1379,0.206,0.2368,0.218,0.2062,0.2353,0.3205,0.3262,0.3597,0.4339,0.451,0.4504,0.4328,0.4496,0.4483,0.4293,0.4912,0.5242,0.5051,0.5213,0.5341,0.554,0.5101,0.4439,0.3781,0.2835,0.2053,0.1387,0.1528,0.1883,0.2223,0.2539,0.2918,0.3233,0.2996,0.2711,0.2631,0.2337,0.2046,0.1971,0.1578,0.1077,0.0432,-0.0125,-0.0759,-0.1484,-0.1782,-0.159,2.0232,2.0213,1.9654,1.9164,1.8544,1.7042,1.6085,1.5576,1.5093,1.4239,1.3089,1.1875,1.1172,1.0993,1.0441,1.0087,0.9762,1.0241,1.0498,1.0549,1.002,1.0072,1.0541,1.0064,0.9865,0.9961,0.934,0.8903,0.8676,0.8208,0.7309,0.6176,0.6342,0.5912,0.4852,0.0,0.0,0.0,0.3948,0.4335,0.3982,0.3423,0.2976,0.2638,0.2431,0.0,0.1177,0.0988,0.085,0.067,0.0909,0.0,0.0,0.0,0.0,0.0,0.0,0.0,0.0,0.0,0.0,0.0,-0.0416,-0.0042,-0.0177,0.0647,0.1534,0.2304,0.2796,0.3426,0.4253,0.421,0.4219,0.4342,0.43,0.4321,0.4562,0.4527,0.4448,0.4501,0.4478,0.4458,0.4396,0.4612,0.4752,0.4758,0.4925,0.5084,0.5104,0.5358,0.5278,0.4504,0.3103,0.1943,0.1204,0.148,0.1732,0.208,0.2417,0.2792,0.3013,0.3081,0.2995,0.2937,0.2843,0.2644,0.2339,0.1982,0.166,0.1251,0.0357,-0.0537,-0.1309,-0.1605,-0.1464,1.9633,0.0,1.9126,1.8652,0.0,1.6591,1.5831,1.5652,1.487,1.3909,1.2759,1.2027,1.1572,1.1222,1.1047,1.0854,1.0643,1.1006,1.1158,1.1217,1.0643,1.0744,1.1318,1.0787,1.0423,1.0167,0.9806,0.9254,0.8615,0.8298,0.7789,0.7031,0.7159,0.6984,0.6444,0.6433,0.5548,0.3771,0.4312,0.4483,0.4222,0.3831,0.3326,0.2779,0.263,0.0,0.0,0.0,0.0,0.0,0.0,0.0,0.0,0.0723,0.0,0.1112,0.0464,0.0254,0.0685,0.0368,0.0188,0.0195,0.144,0.1925,0.1376,0.2322,0.3106,0.3425,0.374,0.4185,0.4733,0.4738,0.466,0.4582,0.4507,0.4475,0.4423,0.434,0.4295,0.4287,0.4327,0.4284,0.4284,0.4526,0.4624,0.4631,0.481,0.4914,0.4938,0.5165,0.5113,0.4433,0.3044,0.1951,0.168,0.1395,0.1508,0.1908,0.217,0.2543,0.2911,0.2956,0.2944,0.2897,0.2856,0.2767,0.2595,0.2444,0.2197,0.165,0.1134,0.0508,-0.0277,-0.0731,-0.0907,1.9099,1.8955,1.868,1.8238,1.759,1.6312,1.5649,1.5475,0.0,0.0,0.0,1.2281,1.1937,1.1536,1.1528,1.1519,1.1528,1.1678,1.1728,1.1769,1.1259,1.136,1.1877,1.1443,1.0973,1.0525,1.0415,0.9776,0.8659,0.8554,0.8455,0.8357,0.8343,0.8421,0.8427,0.8421,0.7396,0.5394,0.4919,0.4684,0.4646,0.4334,0.3764,0.2931,0.2943,0.2514,0.1732,0.1137,0.0806,0.0761,0.0223,-0.0044,0.0087,0.0086,0.0342,0.0886,0.0633,0.0973,0.214,0.1814,0.1683,0.1947,0.3159,0.3556,0.2808,0.376,0.4363,0.4387,0.453,0.4673,0.4707,0.4694,0.464,0.457,0.4532,0.4408,0.4304,0.4245,0.4255,0.4135,0.4206,0.4249,0.4262,0.4522,0.4653,0.4663,0.4741,0.484,0.4847,0.4904,0.4761,0.4075,0.2975,0.2125,0.1963,0.1576,0.1357,0.1838,0.2029,0.2334,0.2724,0.2862,0.2826,0.2807,0.2738,0.2707,0.2699,0.2697,0.2569,0.1992,0.1793,0.1578,0.0929,0.0317,0.0054,1.9955,1.954,1.9245,1.8552,1.7656,1.6775,1.5649,1.4475,1.3563,1.2794,1.2263,1.1935,1.1681,1.1528,1.1528,1.1578,1.1678,1.1669,1.1819,1.2026,1.1986,1.1968,1.2076,1.1977,1.1909,1.181,1.1183,1.0456,0.9646,0.9226,0.8768,0.8178,0.83,0.8474,0.8573,0.8573,0.81,0.7109,0.5942,0.5001,0.4457,0.3348,0.2723,0.2571,0.2379,0.2176,0.2027,0.1258,0.0806,0.076,0.026,0.0089,0.0342,0.0429,0.0586,0.0905,0.1339,0.1726,0.2133,0.2682,0.3254,0.3749,0.3716,0.3685,0.3866,0.4017,0.4189,0.4383,0.4647,0.4793,0.4714,0.4687,0.467,0.4643,0.4594,0.4519,0.4463,0.4408,0.4408,0.4408,0.4463,0.4463,0.4411,0.449,0.4507,0.456,0.4555,0.4597,0.4589,0.4755,0.4601,0.3955,0.327,0.2653,0.2105,0.167,0.1579,0.1782,0.2176,0.2412,0.2711,0.2789,0.2789,0.2728,0.2699,0.2689,0.2689,0.2699,0.2607,0.2404,0.208,0.1687,0.1414,0.1218,0.1114,1.9399,1.9144,1.8782,1.8351,1.7831,1.6957,1.5691,1.4268,1.3901,1.3212,1.2323,1.1897,1.1719,1.1728,1.1628,1.1669,1.1828,1.1877,1.1977,1.2076,1.2076,1.2076,1.2076,1.2076,1.1751,1.1146,1.0827,1.01,0.9096,0.8833,0.8579,0.8226,0.8449,0.8586,0.8626,0.8685,0.8474,0.7984,0.6634,0.5596,0.4871,0.4015,0.3601,0.3601,0.3447,0.3394,0.3394,0.2686,0.2181,0.1879,0.13,0.0914,0.0692,0.1,0.1385,0.1839,0.2124,0.2625,0.3347,0.3569,0.3809,0.4082,0.3917,0.392,0.4113,0.4231,0.4295,0.4292,0.4518,0.4646,0.4575,0.4565,0.4565,0.4565,0.4556,0.4519,0.4463,0.4463,0.4463,0.4463,0.4463,0.4463,0.4463,0.4463,0.4463,0.4463,0.4519,0.4519,0.4463,0.4575,0.4584,0.429,0.3722,0.3125,0.2509,0.2009,0.1746,0.1777,0.197,0.2254,0.2587,0.2736,0.2732,0.2697,0.2711,0.2642,0.2674,0.2646,0.2583,0.2505,0.2324,0.2026,0.1937,0.1898,0.1849,1.892,1.876,1.8421,1.8253,1.8004,1.6905,1.5736,1.4597,1.4185,1.3458,1.2512,1.2095,1.1918,1.1877,1.1778,1.1828,1.1927,1.2036,1.2067,1.2076,1.2076,1.2076,1.2076,1.2076,1.1657,1.0814,1.0575,0.9954,0.9001,0.8638,0.8441,0.8414,0.8597,0.8685,0.8633,0.8745,0.8692,0.8368,0.7278,0.6303,0.555,0.4842,0.446,0.4463,0.4457,0.4463,0.446,0.3904,0.3403,0.2903,0.2347,0.179,0.1345,0.1734,0.2235,0.2623,0.2828,0.3299,0.425,0.4154,0.3981,0.3984,0.4062,0.4181,0.4399,0.4728,0.4691,0.4359,0.4529,0.4632,0.4522,0.4522,0.4463,0.4463,0.4463,0.4463,0.4519,0.4574,0.468,0.468,0.4791,0.4901,0.4846,0.4901,0.4846,0.4736,0.4629,0.4519,0.4519,0.4463,0.4573,0.4515,0.4082,0.3391,0.2943,0.2281,0.1855,0.179,0.1794,0.2079,0.2523,0.2693,0.2693,0.2683,0.267,0.2647,0.269,0.2638,0.2495,0.2411,0.2343,0.2299,0.2207,0.2172,0.2131,1.9298,1.8907,1.8782,1.8563,1.7927,1.6584,1.5884,1.5495,1.3767,1.288,1.2793,1.2725,1.2393,1.1918,1.1868,1.1868,1.1927,1.1927,1.1977,1.2076,1.2076,1.2076,1.2076,1.2076,1.2058,1.1791,1.1147,1.066,1.0264,0.9212,0.8592,0.8443,0.8404,0.8557,0.8712,0.8804,0.8745,0.8573,0.7818,0.7063,0.6253,0.5113,0.4463,0.4463,0.4463,0.4463,0.4463,0.3904,0.3569,0.3461,0.2959,0.2569,0.2514,0.2569,0.2625,0.2732,0.3094,0.358,0.3979,0.405,0.3993,0.3996,0.4247,0.458,0.4996,0.5623,0.5609,0.4838,0.4948,0.5011,0.457,0.4519,0.4519,0.4463,0.4463,0.4463,0.4574,0.4952,0.5226,0.5226,0.5605,0.6046,0.5937,0.5878,0.5714,0.5117,0.4794,0.4567,0.4494,0.444,0.4498,0.4418,0.4015,0.34,0.2863,0.2244,0.1953,0.1843,0.179,0.2071,0.2521,0.2687,0.2689,0.2656,0.2647,0.2595,0.259,0.2495,0.2403,0.234,0.2317,0.2301,0.2236,0.2201,0.2074,1.8879,1.8437,1.8449,1.815,1.7558,1.6718,1.6165,1.574,1.4361,1.3589,1.3266,1.2967,1.2491,1.2017,1.1927,1.1927,1.2026,1.2026,1.2026,1.2076,1.2076,1.2076,1.2076,1.2076,1.1966,1.1737,1.1363,1.0913,1.0348,0.9423,0.8685,0.8212,0.8444,0.8546,0.8403,0.8665,0.8745,0.8567,0.7498,0.6799,0.6421,0.55,0.4846,0.4629,0.4574,0.4463,0.446,0.4236,0.3959,0.3624,0.3347,0.307,0.2738,0.3014,0.3209,0.3148,0.3516,0.3796,0.3849,0.3883,0.3924,0.4012,0.3949,0.4263,0.5012,0.6318,0.6671,0.5584,0.5649,0.5605,0.5058,0.4952,0.4846,0.457,0.4463,0.4519,0.4519,0.5007,0.5332,0.5332,0.5828,0.6209,0.6154,0.5878,0.55,0.5011,0.4739,0.4542,0.4358,0.4334,0.4338,0.4267,0.4049,0.3699,0.3249,0.2795,0.2471,0.2338,0.2184,0.224,0.2569,0.2636,0.2609,0.2665,0.2549,0.244,0.2466,0.2401,0.2321,0.2276,0.2233,0.2211,0.2207,0.2201,0.2064,1.8422,1.8127,1.7935,1.7806,1.7519,1.675,1.6313,1.5953,1.4873,1.4079,1.3583,1.2998,1.2546,1.2135,1.1977,1.2017,1.2076,1.2076,1.2076,1.2076,1.2076,1.2076,1.2076,1.2076,1.1978,1.1673,1.1393,1.0842,1.0097,0.9542,0.8933,0.8414,0.8579,0.8566,0.8357,0.8652,0.8752,0.858,0.761,0.6934,0.6561,0.5964,0.5285,0.4688,0.4574,0.4463,0.4463,0.4463,0.4275,0.3799,0.3802,0.3618,0.3096,0.3528,0.3688,0.3573,0.3808,0.3934,0.3748,0.3869,0.403,0.4122,0.3875,0.4193,0.5439,0.6907,0.7336,0.6676,0.6658,0.6529,0.566,0.555,0.5336,0.4846,0.4791,0.4736,0.4849,0.5226,0.5664,0.5823,0.6475,0.6696,0.648,0.5932,0.5269,0.5,0.4664,0.4402,0.4226,0.4133,0.4133,0.4127,0.4006,0.3856,0.3607,0.3263,0.3035,0.2863,0.2615,0.2422,0.2699,0.2679,0.2517,0.2501,0.2364,0.2307,0.2354,0.2309,0.2252,0.2238,0.2249,0.2207,0.2201,0.2201,0.2201,1.815,1.807,1.7622,1.7679,1.7924,1.6566,1.6198,1.6409,1.4857,1.3993,1.3549,1.2941,1.2466,1.2135,1.2076,1.2076,1.2076,1.2076,1.2076,1.2076,1.2076,1.2076,1.2076,1.2076,1.2058,1.1975,1.1336,1.0557,0.9739,0.95,0.9306,0.9109,0.8705,0.8588,0.8704,0.8771,0.8798,0.8718,0.8343,0.7693,0.6726,0.642,0.5697,0.4656,0.4519,0.4515,0.4508,0.4515,0.4395,0.4207,0.4316,0.4251,0.3969,0.405,0.4034,0.3819,0.3941,0.389,0.3792,0.4103,0.4431,0.4621,0.4357,0.4776,0.642,0.7234,0.7653,0.8,0.7988,0.7528,0.6455,0.614,0.5937,0.5563,0.5336,0.5336,0.5508,0.5937,0.648,0.702,0.7563,0.7605,0.7343,0.6322,0.5565,0.5137,0.4771,0.4403,0.412,0.4029,0.4033,0.4002,0.3938,0.3752,0.3627,0.3497,0.3385,0.3335,0.3101,0.273,0.2794,0.2805,0.2605,0.2405,0.2365,0.2315,0.2313,0.2238,0.2193,0.2172,0.2221,0.2201,0.2201,0.2203,0.2215,1.8798,1.8471,1.7705,1.7668,1.7901,1.652,1.6164,1.6432,1.4612,1.3717,1.3471,1.2672,1.2204,1.2076,1.2076,1.2076,1.2076,1.2076,1.2076,1.2076,1.2076,1.2076,1.2076,1.2076,1.2076,1.2049,1.1782,1.1288,1.0727,1.0613,1.0108,0.9323,0.9206,0.8978,0.8629,0.8717,0.8717,0.8493,0.8005,0.7353,0.6663,0.5971,0.5302,0.4805,0.4739,0.4689,0.4481,0.4478,0.4411,0.4212,0.426,0.4282,0.4267,0.4122,0.4045,0.3969,0.4091,0.4322,0.4581,0.4918,0.5254,0.5491,0.5334,0.5548,0.6586,0.7248,0.7703,0.7987,0.8056,0.7735,0.735,0.6818,0.6263,0.5832,0.5664,0.5828,0.6209,0.6691,0.7171,0.745,0.7883,0.7894,0.7065,0.6278,0.5562,0.4836,0.4401,0.4129,0.3966,0.3925,0.3972,0.3996,0.3951,0.3911,0.4104,0.3827,0.3673,0.3767,0.3635,0.3456,0.3415,0.3202,0.2973,0.2663,0.2539,0.2309,0.2251,0.2064,0.2064,0.2201,0.2201,0.2201,0.2201,0.2228,0.2259,1.8839,1.8501,1.7746,1.7679,1.7878,1.6508,1.6153,1.6398,1.4796,1.3888,1.3471,1.2841,1.2354,1.2144,1.2076,1.2076,1.2076,1.2076,1.2076,1.2076,1.2076,1.2076,1.2076,1.2076,1.2076,1.2076,1.2076,1.1868,1.1578,1.1377,1.0672,0.9672,0.9621,0.9261,0.868,0.8711,0.8664,0.8322,0.7803,0.7326,0.6693,0.5988,0.5499,0.5207,0.5062,0.4797,0.4433,0.4426,0.4303,0.4122,0.4199,0.4271,0.4208,0.4113,0.4061,0.4098,0.4342,0.4667,0.5054,0.5479,0.586,0.6123,0.6112,0.634,0.6907,0.7548,0.7944,0.8041,0.8159,0.814,0.785,0.7353,0.6827,0.6406,0.6323,0.6524,0.6907,0.7224,0.7545,0.7818,0.7777,0.7395,0.6726,0.6014,0.5212,0.4417,0.4143,0.3931,0.3808,0.3816,0.3908,0.3897,0.392,0.3987,0.4142,0.4018,0.4052,0.4111,0.3929,0.3874,0.3831,0.3537,0.328,0.2976,0.271,0.2391,0.2148,0.1927,0.1973,0.2154,0.2201,0.2201,0.2228,0.2269,0.2256,1.815,1.8124,1.7599,1.7645,1.7775,1.6486,1.6141,1.6318,1.535,1.4377,1.373,1.3392,1.2805,1.228,1.2126,1.2076,1.2076,1.2076,1.2076,1.2076,1.2076,1.2076,1.2076,1.2076,1.2076,1.2076,1.2076,1.2076,1.1977,1.1569,1.1032,1.0356,0.9843,0.9399,0.8791,0.8784,0.8657,0.8353,0.813,0.7614,0.6752,0.6601,0.6323,0.5728,0.538,0.4948,0.426,0.4218,0.4147,0.4008,0.4178,0.4245,0.4029,0.4109,0.4263,0.4385,0.4691,0.4965,0.5213,0.5777,0.624,0.6493,0.6623,0.6943,0.7459,0.8119,0.8449,0.823,0.8403,0.8528,0.8075,0.79,0.7688,0.7372,0.7272,0.7439,0.761,0.7605,0.7765,0.8249,0.7771,0.6966,0.6525,0.5705,0.4762,0.4386,0.4087,0.3922,0.3788,0.3806,0.3773,0.3773,0.3928,0.4127,0.4203,0.4245,0.4395,0.4481,0.4153,0.3922,0.3973,0.3787,0.3527,0.3218,0.2861,0.2549,0.237,0.2194,0.2105,0.2196,0.2199,0.2215,0.2257,0.2301,0.2349,1.8583,1.8459,1.7746,1.7461,1.7461,1.6371,1.5992,1.6038,1.5037,1.441,1.4031,1.33,1.2851,1.2569,1.2264,1.2076,1.2076,1.2076,1.2076,1.2076,1.2076,1.2076,1.2076,1.2076,1.2076,1.2076,1.2076,1.2076,1.2076,1.1918,1.1351,1.0525,1.0269,0.9666,0.8857,0.8791,0.8584,0.815,0.8214,0.7791,0.6887,0.6775,0.6554,0.6024,0.544,0.4893,0.4633,0.4381,0.4174,0.4062,0.4051,0.4069,0.4188,0.4431,0.4583,0.4733,0.5281,0.586,0.625,0.6627,0.6988,0.7359,0.7498,0.7596,0.7747,0.799,0.8228,0.8267,0.8457,0.8408,0.8326,0.843,0.8258,0.7757,0.7764,0.7984,0.8315,0.8374,0.848,0.8586,0.799,0.7263,0.6589,0.5589,0.4857,0.4357,0.4042,0.3858,0.4102,0.4047,0.4099,0.4184,0.4268,0.4258,0.4235,0.428,0.4359,0.4424,0.4216,0.4028,0.4066,0.4002,0.3735,0.3442,0.3043,0.2787,0.2605,0.2485,0.2366,0.2303,0.2352,0.2338,0.2288,0.2347,0.2413,1.8637,1.8709,1.7954,1.7668,1.7576,1.6773,1.6336,1.6035,1.5283,1.4746,1.4266,1.3505,1.2967,1.2725,1.2304,1.2076,1.2076,1.2076,1.2076,1.2076,1.2076,1.2076,1.2076,1.2076,1.2076,1.2076,1.2076,1.2076,1.2076,1.2026,1.1551,1.0576,1.0423,0.9865,0.891,0.8798,0.8557,0.819,0.827,0.7996,0.7313,0.7058,0.6875,0.6477,0.583,0.5443,0.5323,0.4924,0.4488,0.4216,0.4232,0.4495,0.4679,0.4958,0.5152,0.5306,0.5747,0.6286,0.679,0.7007,0.7293,0.7569,0.7794,0.7855,0.7776,0.7675,0.7795,0.831,0.8383,0.8417,0.855,0.8684,0.8633,0.8309,0.8249,0.8421,0.8752,0.8804,0.8639,0.8421,0.7824,0.7136,0.6364,0.5604,0.4982,0.4475,0.413,0.4002,0.4315,0.4334,0.4395,0.4467,0.451,0.4449,0.4313,0.4284,0.4288,0.4308,0.4244,0.4188,0.418,0.4036,0.3836,0.3598,0.3251,0.3135,0.296,0.2825,0.2659,0.2665,0.2628,0.2541,0.2509,0.2453,0.2519,1.841,1.8679,1.8302,1.8015,1.7955,1.7427,1.6899,1.6497,1.5944,1.5229,1.4485,1.3858,1.3362,1.2871,1.2403,1.2175,1.2126,1.2126,1.2126,1.2126,1.2126,1.2126,1.2126,1.2076,1.2076,1.2076,1.2076,1.2076,1.2076,1.2076,1.1551,1.0517,1.0372,0.9865,0.9008,0.8804,0.8657,0.8383,0.839,0.8165,0.7542,0.7548,0.7422,0.7055,0.6502,0.62,0.6116,0.5722,0.5013,0.4276,0.4797,0.528,0.5435,0.5644,0.5713,0.5793,0.608,0.6437,0.6815,0.6973,0.7092,0.7261,0.7571,0.7812,0.7655,0.7624,0.7726,0.8293,0.8417,0.853,0.8724,0.8798,0.8752,0.8804,0.8699,0.8758,0.8752,0.8804,0.8639,0.809,0.7492,0.6828,0.6159,0.5426,0.4837,0.457,0.4455,0.4372,0.4468,0.4553,0.4548,0.4601,0.4734,0.4626,0.4473,0.4429,0.4391,0.4311,0.4276,0.4199,0.4176,0.4089,0.4044,0.3788,0.3573,0.3444,0.3396,0.3254,0.3169,0.3173,0.3032,0.2832,0.2752,0.274,0.275,1.8476,1.8247,1.8139,1.7878,1.7542,1.7025,1.6543,1.6026,1.5567,1.528,1.4891,1.414,1.3752,1.3589,1.2754,1.2372,1.24,1.24,1.2323,1.2274,1.2224,1.2175,1.2126,1.2076,1.2076,1.2076,1.2076,1.2076,1.2076,1.2076,1.151,1.0474,1.0415,0.9865,0.8956,0.8804,0.8651,0.8457,0.8597,0.8404,0.7936,0.8016,0.7983,0.7663,0.7013,0.6639,0.6574,0.618,0.54,0.4448,0.526,0.6085,0.6385,0.6247,0.6142,0.6208,0.6483,0.6778,0.6927,0.6999,0.7221,0.759,0.7424,0.7525,0.8123,0.8283,0.8318,0.8484,0.855,0.8711,0.8791,0.8804,0.8804,0.8804,0.8804,0.8804,0.8804,0.8804,0.8699,0.848,0.7676,0.7019,0.6436,0.5701,0.5021,0.4855,0.4737,0.4618,0.4731,0.4782,0.4805,0.4923,0.4978,0.4769,0.4677,0.4577,0.4509,0.4372,0.4263,0.4179,0.416,0.4135,0.4127,0.4028,0.391,0.3804,0.3912,0.389,0.3817,0.3745,0.3602,0.3447,0.3146,0.3069,0.3123,1.8583,1.8464,1.8193,1.7924,1.7668,1.7433,1.6954,1.6319,1.6031,1.5661,1.5291,1.4547,1.4129,1.3941,1.337,1.2926,1.2786,1.2736,1.2736,1.2598,1.2457,1.2283,1.2126,1.2076,1.2076,1.2076,1.2076,1.2076,1.2076,1.2076,1.161,1.0897,1.0525,0.9961,0.9211,0.8903,0.8731,0.8611,0.8717,0.8571,0.8176,0.8277,0.8183,0.7922,0.7457,0.723,0.7187,0.6877,0.6145,0.5395,0.582,0.658,0.6918,0.6843,0.6681,0.6623,0.6823,0.695,0.7005,0.7128,0.7412,0.7656,0.7449,0.7739,0.8273,0.866,0.8711,0.8604,0.8624,0.8684,0.8784,0.8804,0.8804,0.8804,0.8804,0.8804,0.8804,0.8804,0.8639,0.8368,0.7871,0.7143,0.6665,0.5859,0.5397,0.5052,0.4876,0.4932,0.5027,0.5055,0.5051,0.5076,0.5125,0.4936,0.4786,0.4673,0.4542,0.4457,0.435,0.421,0.4196,0.4175,0.4172,0.4214,0.4191,0.4233,0.4381,0.4465,0.4428,0.4285,0.4206,0.3981,0.3664,0.3497,0.3558,1.8625,1.8934,1.8398,1.8139,1.8159,1.8274,1.7612,1.6927,1.6734,1.6303,1.5542,1.4949,1.4482,1.4073,1.3921,1.3647,1.3195,1.3256,1.3138,1.2995,1.2707,1.241,1.2304,1.2314,1.2369,1.2337,1.2245,1.2273,1.2259,1.2204,1.1863,1.1327,1.0785,1.0167,0.9562,0.9106,0.891,0.8778,0.8778,0.8697,0.8464,0.845,0.8357,0.8127,0.8061,0.7887,0.7819,0.7624,0.7085,0.6019,0.6578,0.7057,0.7238,0.7508,0.7311,0.7039,0.7036,0.7072,0.7128,0.7412,0.7652,0.7722,0.7847,0.8056,0.8444,0.8684,0.8758,0.8744,0.8564,0.8624,0.8751,0.8804,0.8804,0.8804,0.8804,0.8804,0.8804,0.8804,0.8586,0.809,0.7984,0.7391,0.6645,0.6014,0.5684,0.5177,0.5019,0.5059,0.5123,0.5085,0.5111,0.5067,0.5128,0.5099,0.4951,0.4757,0.4632,0.4474,0.4393,0.4299,0.4292,0.4264,0.4261,0.4282,0.4509,0.4776,0.4993,0.5008,0.4923,0.4933,0.4822,0.4506,0.4164,0.4047,0.4055,1.8614,1.8667,1.856,1.8506,1.8447,1.8072,1.7568,1.6982,1.6644,1.6291,1.5646,1.5076,1.4838,1.4736,1.4328,1.3994,1.3869,1.3849,1.3671,1.3192,1.271,1.2648,1.2744,1.2838,1.2987,1.2995,1.2818,1.2813,1.2871,1.2424,1.1989,1.1731,1.1277,1.0592,0.9769,0.951,0.9211,0.891,0.8811,0.8778,0.8724,0.8684,0.8651,0.8564,0.8571,0.83,0.8021,0.7996,0.7907,0.7768,0.7784,0.7936,0.8077,0.7695,0.7399,0.737,0.7293,0.7293,0.7428,0.7655,0.7983,0.8116,0.8052,0.8126,0.8645,0.8756,0.879,0.8798,0.8744,0.8724,0.8791,0.8804,0.8804,0.8804,0.8804,0.8804,0.8804,0.8804,0.8699,0.8533,0.8196,0.7658,0.7025,0.645,0.5967,0.5391,0.5175,0.5179,0.5194,0.521,0.5337,0.5441,0.5304,0.5325,0.5234,0.501,0.4691,0.4566,0.4462,0.4512,0.4508,0.4529,0.4611,0.4762,0.498,0.5214,0.5416,0.5381,0.5262,0.5341,0.5406,0.5096,0.4831,0.4702,0.4519,1.8732,1.8679,1.8614,1.8614,1.8566,1.8319,1.797,1.752,1.7262,1.6943,1.6433,1.5853,1.5526,1.5404,1.4997,1.465,1.4487,1.4464,1.4155,1.3681,1.3307,1.3399,1.3597,1.36,1.3631,1.3459,1.3192,1.3184,1.312,1.2798,1.241,1.2235,1.172,1.1124,1.0336,0.9925,0.9458,0.9211,0.891,0.8804,0.8804,0.8804,0.8804,0.8804,0.8798,0.8624,0.841,0.8426,0.8454,0.8473,0.8481,0.8439,0.8484,0.8092,0.7802,0.7663,0.7643,0.7597,0.7756,0.7956,0.8203,0.8363,0.8318,0.852,0.8705,0.8804,0.8804,0.8804,0.8804,0.8804,0.8804,0.8804,0.8804,0.8804,0.8804,0.8804,0.8804,0.8804,0.8804,0.8752,0.8533,0.8096,0.7557,0.6912,0.6317,0.5801,0.537,0.532,0.5588,0.5601,0.5878,0.5905,0.5706,0.555,0.5492,0.5269,0.4805,0.468,0.4522,0.4713,0.4865,0.4903,0.5004,0.5124,0.5266,0.5524,0.568,0.5644,0.5726,0.5873,0.5863,0.5701,0.5445,0.5135,0.499,1.8851,1.8851,1.8679,1.8667,1.8667,1.8774,1.8465,1.8088,1.8154,1.7772,1.7361,1.6807,1.6321,1.5997,1.5744,1.5375,1.5057,1.4805,1.4492,1.4194,1.3893,1.3978,1.4229,1.4184,1.3998,1.3525,1.347,1.3497,1.3461,1.3146,1.2917,1.2739,1.2133,1.1583,1.1166,1.0454,0.9821,0.951,0.9159,0.891,0.8804,0.8804,0.8804,0.8804,0.8804,0.8791,0.8717,0.8758,0.8784,0.8804,0.8804,0.8612,0.8395,0.8307,0.829,0.7961,0.7948,0.7996,0.8049,0.8257,0.845,0.845,0.8644,0.8778,0.8804,0.8804,0.8804,0.8804,0.8804,0.8804,0.8804,0.8804,0.8811,0.8804,0.8804,0.8804,0.8811,0.8804,0.8752,0.8586,0.8368,0.8043,0.7771,0.7289,0.675,0.6213,0.5782,0.5567,0.5778,0.5991,0.6209,0.6209,0.5941,0.5508,0.5395,0.5289,0.4897,0.4836,0.4668,0.4922,0.5132,0.528,0.5352,0.5446,0.5589,0.5738,0.5908,0.5903,0.6062,0.6322,0.6276,0.6046,0.5784,0.5561,0.5401,1.8987,1.8934,1.8934,1.8934,1.8934,1.8946,1.8658,1.8202,1.8202,1.7917,1.7446,1.7241,1.68,1.6414,1.6195,1.5843,1.5286,1.5017,1.4785,1.4619,1.426,1.4208,1.4402,1.4374,1.4259,1.4371,1.4164,1.4052,1.3992,1.3616,1.3423,1.3415,1.2867,1.2313,1.1774,1.125,1.0478,0.9873,0.9517,0.9211,0.8956,0.8804,0.8804,0.8804,0.8804,0.8804,0.8857,0.8804,0.8804,0.8804,0.8804,0.8771,0.8677,0.8555,0.8383,0.8323,0.8303,0.8303,0.8337,0.855,0.8697,0.8744,0.8778,0.8804,0.8804,0.8804,0.8804,0.8804,0.8804,0.8811,0.8804,0.8804,0.8857,0.891,0.8857,0.8857,0.891,0.8804,0.8533,0.8256,0.809,0.7984,0.7717,0.7503,0.7128,0.6696,0.6431,0.6159,0.6209,0.6372,0.6485,0.6376,0.61,0.5614,0.5234,0.5132,0.4942,0.4975,0.4965,0.5137,0.5322,0.557,0.5673,0.5708,0.5751,0.5848,0.5998,0.6107,0.6194,0.625,0.6293,0.6315,0.6046,0.5718,0.5524,1.8987,1.8987,1.8987,1.8987,1.8987,1.8987,1.8855,1.8626,1.8602,1.8482,1.8092,1.7558,1.714,1.672,1.6038,1.5623,1.539,1.5234,1.5107,1.4982,1.4762,1.4554,1.4648,1.4542,1.4538,1.4573,1.4471,1.4434,1.4542,1.4072,1.3756,1.3507,1.3194,1.2748,1.212,1.1713,1.1217,1.0518,0.9947,0.9524,0.9166,0.8962,0.8804,0.8804,0.8857,0.8962,0.9211,0.9211,0.9361,0.9517,0.9361,0.9256,0.911,0.884,0.8591,0.8642,0.8642,0.8591,0.8597,0.8744,0.8791,0.8798,0.8804,0.8804,0.8804,0.8804,0.8811,0.891,0.9008,0.8962,0.891,0.891,0.891,0.891,0.8864,0.8864,0.8804,0.8527,0.8256,0.8037,0.8275,0.8221,0.7771,0.7557,0.7396,0.7182,0.6966,0.6804,0.6696,0.6858,0.7025,0.6642,0.6372,0.5723,0.5289,0.5132,0.5072,0.5106,0.5174,0.535,0.5551,0.5758,0.5875,0.5976,0.6025,0.6038,0.6017,0.6125,0.6153,0.6172,0.6263,0.6293,0.6119,0.5921,0.5655,1.8987,1.8987,1.8987,1.8987,1.8987,1.8987,1.8987,1.8987,1.8975,1.8951,1.8881,1.8058,1.7461,1.6839,1.597,1.5312,1.5391,1.5391,1.5381,1.5303,1.5196,1.5118,1.5079,1.498,1.4784,1.4715,1.4638,1.4647,1.4619,1.4408,1.3979,1.371,1.3552,1.3183,1.2538,1.2209,1.1835,1.136,1.0617,1.0082,0.9657,0.9141,0.8857,0.8962,0.8956,0.9211,0.971,0.9762,0.9909,1.0064,1.002,0.9769,0.9666,0.9256,0.8956,0.8956,0.891,0.8804,0.8798,0.8791,0.8804,0.8804,0.8804,0.8804,0.8857,0.8903,0.8956,0.9008,0.9106,0.9159,0.9061,0.9061,0.9008,0.891,0.891,0.8857,0.8745,0.858,0.8362,0.8374,0.8679,0.8459,0.7955,0.8043,0.7937,0.7717,0.7498,0.745,0.7343,0.7557,0.7616,0.7128,0.6583,0.5882,0.5449,0.5183,0.521,0.5327,0.537,0.544,0.5679,0.591,0.6025,0.6148,0.6254,0.6238,0.6189,0.6133,0.6212,0.6288,0.6371,0.625,0.6054,0.5918,0.5701,1.8987,1.8987,1.8987,1.8987,1.8987,1.8987,1.8987,1.8987,1.8963,1.8987,1.8934,1.8673,1.7783,1.6613,1.5467,1.5164,1.5322,1.542,1.542,1.5352,1.5254,1.5205,1.5098,1.4843,1.4852,1.4793,1.4725,1.4606,1.4597,1.4532,1.4243,1.3912,1.382,1.3608,1.303,1.2732,1.2502,1.2269,1.1822,1.1064,1.015,0.9323,0.9232,0.9413,0.9562,0.9762,1.0218,1.032,1.0423,1.0466,1.0372,1.0269,1.021,0.9814,0.9562,0.9361,0.9106,0.8804,0.8804,0.8804,0.8804,0.8804,0.8811,0.8857,0.9015,0.9113,0.9159,0.9166,0.9211,0.9204,0.9211,0.9159,0.9159,0.9106,0.8956,0.8956,0.8903,0.8745,0.8527,0.8611,0.8824,0.8558,0.8133,0.8387,0.854,0.8256,0.8037,0.7984,0.7883,0.799,0.783,0.7235,0.6642,0.5937,0.5454,0.5242,0.5242,0.5388,0.5473,0.5521,0.5791,0.5984,0.6141,0.6278,0.6375,0.6302,0.6071,0.6108,0.6278,0.6352,0.6327,0.6149,0.5957,0.5809,0.5744,1.9052,1.8987,1.8987,1.8987,1.8987,1.8987,1.8987,1.8927,1.8674,1.8553,1.8324,1.7771,1.6917,1.597,1.5308,1.5234,1.5391,1.542,1.542,1.541,1.5313,1.5264,1.5088,1.497,1.497,1.4793,1.4793,1.4775,1.4675,1.4579,1.4394,1.3974,1.4066,1.3882,1.3406,1.3131,1.2868,1.2511,1.187,1.1146,1.0457,1.0008,0.9865,1.0064,1.0115,1.0431,1.0787,1.0897,1.1099,1.1141,1.088,1.0423,1.0167,0.9666,0.9166,0.9113,0.8962,0.8811,0.8804,0.8804,0.8857,0.8857,0.891,0.8956,0.9225,0.9323,0.9316,0.9316,0.9368,0.9361,0.9309,0.9256,0.9159,0.9113,0.9008,0.8962,0.891,0.8857,0.8771,0.8878,0.8971,0.8721,0.8553,0.8658,0.8689,0.8209,0.815,0.8203,0.8049,0.7943,0.7616,0.7079,0.6534,0.5991,0.5563,0.5242,0.5246,0.5338,0.5346,0.5506,0.5831,0.603,0.6185,0.6314,0.6396,0.6237,0.5965,0.6096,0.6328,0.6291,0.6283,0.6179,0.608,0.6068,0.5961,1.9036,1.9105,1.9052,1.898,1.8806,1.8927,1.8987,1.8939,1.8614,1.8417,1.7982,1.7142,1.6174,1.5618,1.5399,1.5244,1.541,1.542,1.542,1.541,1.5352,1.5254,1.5137,1.5079,1.4911,1.4625,1.4793,1.4843,1.4871,1.4831,1.466,1.3995,1.4268,1.4075,1.3635,1.3433,1.3341,1.3058,1.2316,1.1623,1.1088,1.0793,1.068,1.0667,1.0787,1.099,1.141,1.1469,1.1728,1.1769,1.1401,1.0939,1.0635,0.9976,0.9368,0.9159,0.8956,0.8857,0.8857,0.8857,0.885,0.8956,0.9054,0.9159,0.9449,0.9487,0.9465,0.9465,0.951,0.9517,0.9465,0.9309,0.9211,0.9113,0.8956,0.891,0.8811,0.8811,0.8891,0.9051,0.9138,0.9192,0.9046,0.9069,0.8841,0.8236,0.8209,0.8381,0.8262,0.7996,0.7509,0.7025,0.6337,0.5841,0.5508,0.5242,0.5301,0.5317,0.5329,0.5527,0.5879,0.6072,0.6156,0.6274,0.6404,0.6343,0.6172,0.6278,0.6367,0.631,0.6282,0.6232,0.6219,0.6211,0.6186,1.8914,1.9368,1.9223,1.8851,1.835,1.8794,1.8987,1.8987,1.8915,1.8814,1.8448,1.7337,1.6426,1.6079,1.5432,1.5156,1.5439,1.542,1.5469,1.542,1.5313,1.5342,1.5215,1.502,1.4902,1.497,1.497,1.4911,1.4977,1.5226,1.4805,1.4287,1.4542,1.4271,1.3947,1.382,1.3737,1.3478,1.2964,1.2602,1.2061,1.1584,1.1151,1.1226,1.1267,1.1469,1.1977,1.1977,1.1977,1.2076,1.176,1.1429,1.0988,1.03,0.9732,0.9517,0.9036,0.8944,0.9017,0.8937,0.891,0.9008,0.9211,0.9368,0.9539,0.9577,0.9569,0.9584,0.9665,0.9591,0.9532,0.9487,0.9411,0.9256,0.9145,0.9086,0.8945,0.8824,0.8925,0.9132,0.9218,0.9232,0.9203,0.9131,0.921,0.868,0.8381,0.8543,0.8328,0.8037,0.7498,0.6912,0.6128,0.5635,0.5348,0.525,0.5345,0.5374,0.539,0.5612,0.5899,0.6059,0.6278,0.6359,0.6548,0.6465,0.6392,0.6396,0.6367,0.6266,0.6281,0.6254,0.6221,0.618,0.6172,1.9078,1.8966,1.9273,1.9193,1.8827,1.9032,1.9052,1.8927,1.865,1.8287,1.7944,1.694,1.6584,1.6501,1.5773,1.5633,1.6226,1.592,1.587,1.582,1.5751,1.5555,1.539,1.5185,1.502,1.5107,1.5039,1.5029,1.5126,1.5482,1.5203,1.4914,1.5087,1.479,1.4517,1.4174,1.3922,1.3607,1.3358,1.3049,1.2681,1.2396,1.205,1.1772,1.1927,1.1927,1.2076,1.2076,1.2076,1.2026,1.1828,1.1523,1.1121,1.043,1.003,0.9868,0.9342,0.9212,0.9314,0.9131,0.9008,0.9263,0.9413,0.9517,0.9584,0.9629,0.9621,0.9665,0.979,0.9773,0.9613,0.9742,0.9764,0.9528,0.937,0.9268,0.9193,0.9031,0.9078,0.9289,0.921,0.9123,0.9101,0.9085,0.9177,0.9203,0.8903,0.8572,0.8362,0.8037,0.7444,0.7014,0.6289,0.5876,0.558,0.5516,0.5466,0.549,0.5515,0.5822,0.6134,0.6397,0.6556,0.6642,0.6683,0.6605,0.6539,0.6416,0.6384,0.6323,0.6327,0.6363,0.6306,0.6229,0.6237,1.9256,1.9019,1.9281,1.929,1.9056,1.9162,1.9117,1.898,1.8626,1.81,1.7546,1.706,1.6922,1.6888,1.643,1.6175,1.6666,1.6517,1.6302,1.626,1.6159,1.5953,1.5737,1.559,1.5498,1.5405,1.5482,1.5609,1.5515,1.5718,1.5744,1.5831,1.5884,1.5647,1.4843,1.4513,1.4147,1.3886,1.3728,1.3552,1.3238,1.3111,1.2936,1.2571,1.2577,1.2457,1.2402,1.2347,1.2304,1.2072,1.1746,1.1345,1.0869,1.0394,1.0031,0.9881,0.9764,0.9555,0.9652,0.9449,0.9232,0.9361,0.9475,0.959,0.9598,0.9635,0.9624,0.9804,0.9919,0.9984,0.9756,0.989,0.9938,0.9666,0.954,0.9475,0.9482,0.9372,0.9439,0.9502,0.9389,0.9412,0.9693,0.9694,0.9335,0.9335,0.8981,0.8612,0.8263,0.7931,0.7439,0.6981,0.6587,0.6257,0.5982,0.5814,0.5653,0.5624,0.5744,0.6083,0.638,0.6644,0.6908,0.6997,0.7007,0.6811,0.6683,0.6552,0.6486,0.6412,0.6416,0.6408,0.6396,0.6331,0.6355,1.9309,1.9698,1.9233,1.8896,1.8806,1.9068,1.9182,1.917,1.8992,1.8626,1.8109,1.7918,1.7699,1.7334,1.6969,1.7057,1.7269,1.7042,1.6858,1.6878,1.6825,1.668,1.6413,1.6244,1.6052,1.615,1.6166,1.6166,1.6074,1.6572,1.6631,1.6602,1.6612,1.6374,1.5143,1.497,1.4942,1.4932,1.4672,1.4324,1.396,1.3784,1.3497,1.3212,1.3111,1.2945,1.2831,1.2767,1.2707,1.2512,1.2043,1.1653,1.114,1.0701,1.0342,1.0016,1.0073,1.0172,1.0301,0.9749,0.9563,0.9578,0.9757,0.9742,0.9691,0.9649,0.9774,0.9988,1.0096,1.0093,1.0087,1.0091,1.0017,0.9918,0.9789,0.9726,0.9746,0.9593,0.9626,0.9713,0.9753,0.9826,1.02,1.0334,0.9709,0.9395,0.9071,0.8769,0.838,0.8244,0.7929,0.7449,0.7125,0.6521,0.6297,0.6058,0.5891,0.5843,0.6036,0.6453,0.6714,0.697,0.7236,0.7367,0.7138,0.6815,0.6683,0.6618,0.6486,0.642,0.642,0.642,0.642,0.642,0.642,1.9635,1.9786,1.961,1.9496,1.9419,1.9334,1.921,1.9105,1.8999,1.8881,1.8655,1.8321,1.8321,1.8118,1.7678,1.7662,1.8452,1.8162,1.7967,1.7826,1.7772,1.7252,1.6973,1.6733,1.6544,1.6529,1.6626,1.6685,1.6514,1.6992,1.6924,1.6763,1.6831,1.6418,1.5664,1.5298,1.5088,1.5029,1.4855,1.4646,1.4175,1.4053,1.3839,1.3415,1.3415,1.3322,1.3264,1.3245,1.3231,1.3124,1.2659,1.212,1.1751,1.1368,1.0823,1.0704,1.0754,1.0365,1.0465,1.0282,1.0224,1.0183,1.0064,1.01,1.0224,1.0142,1.0165,1.0236,1.0351,1.03,1.0156,1.0449,1.0424,1.0186,1.012,1.0194,1.012,0.982,0.9706,0.9826,0.99,0.9693,0.9853,1.0301,1.002,0.9781,0.955,0.9219,0.8902,0.9055,0.8934,0.8317,0.7747,0.7062,0.6561,0.6384,0.6328,0.6276,0.6569,0.704,0.7231,0.7389,0.7407,0.7521,0.7138,0.6819,0.6738,0.6635,0.6506,0.642,0.6432,0.6428,0.642,0.642,0.642,1.9798,1.9798,1.9798,1.9759,1.9656,1.946,1.9263,1.904,1.8987,1.8987,1.8934,1.8602,1.859,1.8696,1.8473,1.8315,1.9477,1.9326,1.913,1.8997,1.8997,1.8464,1.7849,1.7442,1.7323,1.7179,1.71,1.7148,1.6982,1.7119,1.7161,1.7132,1.6885,1.6694,1.623,1.6036,1.567,1.5561,1.5377,1.5086,1.4666,1.4439,1.4297,1.4054,1.3904,1.3821,1.383,1.3883,1.3891,1.3697,1.3177,1.2638,1.2297,1.1779,1.1248,1.1174,1.1194,1.0865,1.0953,1.0953,1.0924,1.0931,1.0631,1.0502,1.0603,1.0545,1.0545,1.0587,1.0685,1.0587,1.0481,1.0788,1.067,1.0431,1.0404,1.047,1.0361,1.006,1.0007,1.0114,1.01,0.982,0.9613,0.9927,1.0174,1.0087,0.9993,0.9728,0.9426,0.9505,0.9408,0.8801,0.8177,0.7471,0.6969,0.6795,0.6701,0.666,0.7083,0.7565,0.7599,0.7693,0.7683,0.7615,0.7281,0.6944,0.6726,0.6595,0.6566,0.6513,0.6469,0.6457,0.6428,0.642,0.642,1.9798,1.9798,1.9798,1.9656,1.9473,1.942,1.9263,1.904,1.8987,1.8987,1.8987,1.8946,1.8999,1.9084,1.9228,1.9413,1.9515,1.9812,1.9894,1.9964,1.9812,1.9393,1.9086,1.8868,1.8324,1.7919,1.775,1.7787,1.7527,1.7607,1.7812,1.7754,1.7256,1.7103,1.7035,1.6889,1.6471,1.6117,1.5766,1.5473,1.5164,1.4972,1.4828,1.4676,1.4599,1.4467,1.4525,1.4619,1.4547,1.4033,1.3194,1.2724,1.2239,1.1628,1.1331,1.1233,1.1392,1.1483,1.1497,1.1468,1.149,1.1333,1.0998,1.0746,1.0792,1.1049,1.1197,1.1025,1.0984,1.089,1.0857,1.0829,1.0724,1.062,1.0557,1.0528,1.0598,1.0454,1.0448,1.0474,1.0461,1.0281,1.0053,1.02,1.0294,1.016,1.012,1.0153,0.9846,0.9583,0.9408,0.8854,0.8276,0.7731,0.7384,0.738,0.7262,0.7288,0.7703,0.8052,0.8072,0.7922,0.7756,0.7626,0.74,0.7129,0.6805,0.6696,0.6725,0.666,0.6578,0.6477,0.6448,0.6424,0.642,1.9798,1.9798,1.9798,1.9747,1.9656,1.946,1.9263,1.8987,1.8987,1.8987,1.8987,1.8987,1.9052,1.9177,1.9149,1.9464,1.9684,1.9923,2.0047,2.0198,2.0375,2.0026,1.9857,1.9683,1.9194,1.8787,1.8485,1.8267,1.7919,1.8008,1.7988,1.7891,1.7617,1.7666,1.7686,1.7686,1.7148,1.6641,1.6227,1.5914,1.5561,1.5291,1.5155,1.502,1.4951,1.4819,1.4965,1.5003,1.4926,1.4821,1.4084,1.3579,1.3093,1.2502,1.2012,1.149,1.1578,1.1608,1.1622,1.1622,1.1645,1.1667,1.1418,1.1243,1.1409,1.1722,1.2058,1.1737,1.1631,1.1636,1.1322,1.1101,1.087,1.0681,1.0618,1.0618,1.0618,1.0618,1.0618,1.0618,1.0618,1.0481,1.0294,1.0347,1.0401,1.0241,1.0214,1.0285,1.0338,1.005,0.9849,0.9291,0.8877,0.8527,0.8222,0.8089,0.7976,0.7926,0.8265,0.8414,0.8317,0.8098,0.7834,0.7559,0.726,0.7035,0.6781,0.6773,0.6883,0.6855,0.6765,0.657,0.6473,0.6481,0.6518,1.9798,1.9798,1.9798,1.9747,1.9708,1.9473,1.9303,1.9146,1.9105,1.9105,1.9146,1.9146,1.921,1.9312,1.9424,1.9703,1.9963,2.0213,2.0474,2.077,2.0682,2.062,2.0531,2.0226,1.9552,1.9177,1.8721,1.825,1.8046,1.7842,1.7783,1.7988,1.79,1.7891,1.792,1.7881,1.7598,1.7061,1.6602,1.6227,1.5875,1.5515,1.5263,1.5176,1.5098,1.5166,1.5293,1.5254,1.5332,1.5245,1.451,1.3855,1.3312,1.2634,1.2081,1.16,1.1615,1.1622,1.1645,1.1714,1.1855,1.1948,1.1865,1.1907,1.2195,1.2577,1.2583,1.2381,1.2504,1.2458,1.1911,1.1421,1.1052,1.0688,1.0618,1.0618,1.0618,1.0618,1.0618,1.0618,1.0521,1.0474,1.0461,1.0598,1.0584,1.045,1.0362,1.0451,1.0566,1.051,1.0463,1.0269,0.992,0.9509,0.921,0.8761,0.8516,0.8427,0.8583,0.8642,0.8487,0.8153,0.7755,0.7391,0.7039,0.6908,0.6867,0.6976,0.7054,0.704,0.6974,0.6806,0.6712,0.6635,0.6688,1.9685,1.9736,1.9786,1.9747,1.9604,1.946,1.942,1.942,1.9263,1.9275,1.9368,1.942,1.9356,1.9482,1.9699,1.9829,1.997,2.0183,2.0556,2.1284,2.1033,2.1028,2.106,2.056,2.0161,1.9243,1.8664,1.8529,1.8045,1.7803,1.7783,1.7949,1.7627,1.7588,1.7822,1.7852,1.7617,1.7295,1.6855,1.6504,1.6172,1.5801,1.5518,1.5517,1.5537,1.5527,1.5508,1.5527,1.5459,1.5058,1.4547,1.3907,1.3094,1.2351,1.1802,1.1667,1.1626,1.1677,1.1758,1.1854,1.223,1.2305,1.224,1.2661,1.3084,1.3451,1.3397,1.3128,1.3139,1.2765,1.2212,1.1969,1.165,1.1141,1.086,1.0762,1.0715,1.0661,1.0618,1.0588,1.0661,1.0678,1.0809,1.0884,1.1009,1.0749,1.071,1.0746,1.0746,1.0919,1.0995,1.1002,1.0655,1.0245,0.989,0.9484,0.9031,0.8947,0.891,0.8759,0.859,0.8069,0.7537,0.7259,0.6987,0.7036,0.707,0.7159,0.7228,0.7112,0.7114,0.7082,0.698,0.6879,0.6875,1.8832,1.9246,1.9648,1.9811,1.9759,1.9617,1.9604,1.9708,1.9565,1.9473,1.942,1.942,1.9436,1.9565,1.9621,1.9666,1.9691,1.9787,2.022,2.0653,2.0861,2.1176,2.1661,2.1272,2.0749,2.0161,1.9518,1.8777,1.8093,1.7812,1.7686,1.7559,1.7383,1.75,1.7588,1.7607,1.7549,1.7363,1.7109,1.6777,1.6504,1.6504,1.6416,1.6305,1.6205,1.6156,1.6159,1.6135,1.6047,1.5778,1.5317,1.4357,1.3128,1.2135,1.1692,1.1659,1.1809,1.1897,1.2006,1.2197,1.2565,1.2892,1.3063,1.3645,1.4055,1.4368,1.4312,1.3935,1.3588,1.3103,1.2669,1.2531,1.2232,1.1609,1.1042,1.0969,1.0902,1.0762,1.0615,1.0668,1.0775,1.09,1.1084,1.1211,1.1359,1.1324,1.1293,1.1247,1.1136,1.1199,1.1418,1.1389,1.1194,1.0863,1.0479,1.008,0.9541,0.914,0.9001,0.8816,0.8599,0.799,0.7385,0.7229,0.7021,0.7062,0.7135,0.7285,0.7283,0.7259,0.7231,0.7166,0.724,0.7171,0.7151,1.853,1.9021,1.9585,1.9798,1.9798,1.9708,1.9759,1.9759,1.9708,1.9656,1.9565,1.954,1.9505,1.9457,1.9492,1.9339,1.9302,1.9307,1.9745,2.0169,2.0475,2.0742,2.1188,2.1521,2.0569,1.9929,1.9302,1.8546,1.789,1.7705,1.7529,1.7402,1.7383,1.7373,1.7402,1.751,1.751,1.7393,1.7246,1.708,1.6797,1.6611,1.6611,1.6539,1.6655,1.6592,1.6597,1.6556,1.6416,1.5785,1.5058,1.3967,1.2932,1.231,1.2086,1.205,1.2153,1.2182,1.2336,1.2699,1.3112,1.3559,1.3475,1.385,1.5411,1.5633,1.5122,1.4728,1.4637,1.4206,1.3614,1.3332,1.2741,1.2094,1.1565,1.1223,1.1189,1.1122,1.0949,1.0828,1.096,1.1111,1.1218,1.1362,1.1424,1.1483,1.1507,1.156,1.1482,1.1509,1.1704,1.1804,1.1612,1.1108,1.0558,1.0276,1.0057,0.9617,0.9047,0.8662,0.8241,0.7704,0.7296,0.7081,0.698,0.7009,0.711,0.7281,0.7395,0.7363,0.7343,0.737,0.7395,0.7403,0.7354,1.8442,1.9058,1.9585,1.9798,1.9798,1.9798,1.9798,1.9798,1.9798,1.9798,1.9747,1.9798,1.951,1.9434,1.9535,1.9169,1.908,1.9337,1.967,2.0031,2.0065,2.0644,2.0795,2.0674,2.0166,1.9456,1.8689,1.8161,1.7627,1.7607,1.7598,1.7432,1.7344,1.7324,1.7471,1.7578,1.7578,1.75,1.7412,1.7373,1.6943,1.6455,1.6621,1.6748,1.6816,1.6782,1.6811,1.6763,1.667,1.5871,1.4866,1.3737,1.2979,1.2587,1.2468,1.2416,1.2504,1.2562,1.2711,1.3408,1.4085,1.4486,1.3947,1.4542,1.6142,1.642,1.5896,1.5539,1.5387,1.4926,1.4311,1.386,1.3173,1.2549,1.2004,1.1565,1.1552,1.1505,1.131,1.1195,1.1288,1.1368,1.1521,1.1654,1.1668,1.1706,1.1687,1.1668,1.1668,1.184,1.2051,1.2085,1.1992,1.1377,1.077,1.0266,1.0125,0.9547,0.8985,0.8403,0.7898,0.756,0.7289,0.6982,0.6899,0.7054,0.7119,0.7244,0.7346,0.7439,0.7447,0.7427,0.7439,0.7447,0.7464,1.8304,1.9206,1.9636,1.9798,1.9798,1.9798,1.9798,1.9798,1.9798,1.9798,1.9798,1.9798,1.971,1.9635,1.9723,1.9558,1.9469,1.9552,2.0126,2.0704,2.0451,2.0798,2.089,2.0421,2.0232,1.943,1.8506,1.8137,1.7642,1.7733,1.7686,1.7402,1.7002,1.7051,1.7324,1.7383,1.7324,1.7412,1.751,1.7441,1.7383,1.7119,1.7178,1.7246,1.7256,1.748,1.7578,1.7412,1.721,1.6421,1.5164,1.4081,1.3315,1.2953,1.2862,1.2861,1.2949,1.31,1.3422,1.3925,1.4582,1.5043,1.4846,1.5437,1.6606,1.7126,1.6551,1.5848,1.5513,1.4798,1.4197,1.4093,1.3561,1.2917,1.234,1.2213,1.2136,1.2047,1.186,1.1853,1.1984,1.2171,1.2379,1.2491,1.2577,1.2603,1.2531,1.2495,1.2108,1.2225,1.2365,1.2294,1.2232,1.1986,1.1499,1.0376,0.9917,0.9425,0.8835,0.8193,0.7803,0.7618,0.7289,0.7009,0.7082,0.7269,0.7313,0.724,0.7301,0.7391,0.7447,0.7468,0.748,0.748,0.748]}]]